[[{"header":{"parameterUnit":"m.s-1","parameterCategory":1,"la1":31.0,"la2":29.5877,"lo1":-88.7671,"lo2":-86.6584,"dy":0.0162,"dx":0.0185,"nx":115,"ny":88,"refTime":"2024-03-21T12:00:00:Z","depth":0,"parameterNumber":2,"parameterNumberName":"U-component_of_WINDS"},"data":[0.0,0.0,0.0,0.0,0.0,0.0,0.0,0.0,0.0,0.0,0.0,0.0,0.0,0.0,0.0,0.0,0.0,0.0,0.0,0.0,0.0,0.0,0.0,0.0,0.0,0.0,0.0,0.0,0.0,0.0,0.0,0.0,0.0,0.0,0.0,0.0,0.0,0.0,0.0,0.0,0.0,0.0,0.0,0.0,0.0,0.0,0.0,0.0,0.0,0.0,0.0,0.0,0.0,0.0,0.0,0.0,0.0,0.0,0.0,0.0,0.0,0.0,0.0,0.0,0.0,0.0,0.0,0.0,0.0,0.0,0.0,0.0,0.0,0.0,0.0,0.0,0.0,0.0,0.0,0.0,0.0,0.0,0.0,0.0,0.0,0.0,0.0,0.0,0.0,0.0,0.0,0.0,0.0,0.0,0.0,0.0,0.0,0.0,0.0,0.0,0.0,0.0,0.0,0.0,0.0,0.0,0.0,0.0,0.0,0.0,0.0,0.0,0.0,0.0,0.0,0.0,0.0,0.0,0.0,0.0,0.0,0.0,0.0,0.0,0.0,0.0,0.0,0.0,0.0,0.0,0.0,0.0,0.0,0.0,0.0,0.0,0.0,0.0,0.0,0.0,0.0,0.0,0.0,0.0,0.0,0.0,0.0,0.0,0.0,0.0,0.0,0.0,0.0,0.0,0.0,0.0,0.0,0.0,0.0,0.0,0.0,0.0,0.0,0.0,0.0,0.0,0.0,0.0,0.0,0.0,0.0,0.0,0.0,0.0,0.0,0.0,0.0,0.0,0.0,0.0,0.0,0.0,0.0,0.0,0.0,0.0,0.0,0.0,0.0,0.0,0.0,0.0,0.0,0.0,0.0,0.0,0.0,0.0,0.0,0.0,0.0,0.0,0.0,0.0,0.0,0.0,0.0,0.0,0.0,0.0,0.0,0.0,0.0,0.0,0.0,0.0,0.0,0.0,0.0,0.0,0.0,0.0,0.0,0.0,0.0,0.0,0.0,0.0,0.0,0.0,0.0,0.0,0.0,0.0,0.0,0.0,0.0,0.0,0.0,0.0,0.0,0.0,0.0,0.0,0.0,0.0,0.0,0.0,0.0,0.0,0.0,0.0,0.0,0.0,0.0,0.0,0.0,0.0,0.0,0.0,0.0,0.0,0.0,0.0,0.0,0.0,0.0,0.0,0.0,0.0,0.0,0.0,0.0,0.0,0.0,0.0,0.0,0.0,0.0,0.0,0.0,0.0,0.0,0.0,0.0,0.0,0.0,0.0,0.0,0.0,0.0,0.0,0.0,0.0,0.0,0.0,0.0,0.0,0.0,0.0,0.0,0.0,0.0,0.0,0.0,0.0,0.0,0.0,0.0,0.0,0.0,0.0,0.0,0.0,0.0,0.0,0.0,0.0,0.0,0.0,0.0,0.0,0.0,0.0,0.0,0.0,0.0,0.0,0.0,0.0,0.0,0.0,0.0,0.0,0.0,0.0,0.0,0.0,0.0,0.0,0.0,0.0,0.0,0.0,0.0,0.0,0.0,0.0,0.0,0.0,0.0,0.0,0.0,0.0,0.0,0.0,0.0,0.0,0.0,0.0,0.0,0.0,0.0,0.0,0.0,0.0,0.0,0.0,0.0,0.0,0.0,0.0,0.0,0.0,0.0,0.0,0.0,0.0,0.0,0.0,0.0,0.0,0.0,0.0,0.0,0.0,0.0,0.0,0.0,0.0,0.0,0.0,0.0,0.0,0.0,0.0,0.0,0.0,0.0,0.0,0.0,0.0,0.0,0.0,0.0,0.0,0.0,0.0,0.0,0.0,0.0,0.0,0.0,0.0,0.0,0.0,0.0,0.0,0.0,0.0,0.0,0.0,0.0,0.0,0.0,0.0,0.0,0.0,0.0,0.0,0.0,0.0,0.0,0.0,0.0,0.0,0.0,0.0,0.0,0.0,0.0,0.0,0.0,0.0,0.0,0.0,0.0,0.0,0.0,0.0,0.0,0.0,0.0,0.0,0.0,0.0,0.0,0.0,0.0,0.0,0.0,0.0,0.0,0.0,0.0,0.0,0.0,0.0,0.0,0.0,0.0,0.0,0.0,0.0,0.0,0.0,0.0,0.0,0.0,0.0,0.0,0.0,0.0,0.0,0.0,0.0,0.0,0.0,0.0,0.0,0.0,0.0,0.0,0.0,0.0,0.0,0.0,0.0,0.0,0.0,0.0,0.0,0.0,0.0,0.0,0.0,0.0,0.0,0.0,0.0,0.0,0.0,0.0,0.0,0.0,0.0,0.0,0.0,0.0,0.0,0.0,0.0,0.0,0.0,0.0,0.0,0.0,0.0,0.0,0.0,0.0,0.0,0.0,0.0,0.0,0.0,0.0,0.0,0.0,0.0,0.0,0.0,0.0,0.0,0.0,0.0,0.0,0.0,0.0,0.0,0.0,0.0,0.0,0.0,0.0,0.0,0.0,0.0,0.0,0.0,0.0,0.0,0.0,0.0,0.0,0.0,0.0,0.0,0.0,0.0,0.0,0.0,0.0,0.0,0.0,0.0,0.0,0.0,0.0,0.0,0.0,0.0,0.0,0.0,0.0,0.0,0.0,0.0,0.0,0.0,0.0,0.0,0.0,0.0,0.0,0.0,0.0,0.0,0.0,0.0,0.0,0.0,0.0,0.0,0.0,0.0,0.0,0.0,0.0,0.0,0.0,0.0,0.0,0.0,0.0,0.0,0.0,0.0,0.0,0.0,0.0,0.0,0.0,0.0,0.0,0.0,0.0,0.0,0.0,0.0,0.0,0.0,0.0,0.0,0.0,0.0,0.0,0.0,0.0,0.0,0.0,0.0,0.0,0.0,0.0,0.0,0.0,0.0,0.0,0.0,0.0,0.0,0.0,0.0,0.0,0.0,0.0,0.0,0.0,0.0,0.0,0.0,0.0,0.0,0.0,0.0,0.0,0.0,0.0,0.0,0.0,0.0,0.0,0.0,0.0,0.0,0.0,0.0,0.0,0.0,0.0,0.0,0.0,0.0,0.0,0.0,0.0,0.0,0.0,0.0,0.0,0.0,0.0,0.0,0.0,0.0,0.0,0.0,0.0,0.0,0.0,0.0,0.0,0.0,0.0,0.0,0.0,0.0,0.0,0.0,0.0,0.0,0.0,0.0,0.0,0.0,0.0,0.0,0.0,0.0,0.0,0.0,0.0,0.0,0.0,0.0,0.0,0.0,0.0,0.0,0.0,0.0,0.0,0.0,0.0,0.0,0.0,0.0,0.0,0.0,0.0,0.0,0.0,0.0,0.0,0.0,0.0,0.0,0.0,0.0,0.0,0.0,0.0,0.0,0.0,0.0,0.0,0.0,0.0,0.0,0.0,0.0,0.0,0.0,0.0,0.0,0.0,0.0,0.0,0.0,0.0,0.0,0.0,0.0,0.0,0.0,0.0,0.0,0.0,0.0,0.0,0.0,0.0,0.0,0.0,0.0,0.0,0.0,0.0,0.0,0.0,0.0,0.0,0.0,0.0,0.0,0.0,0.0,0.0,0.0,0.0,0.0,0.0,0.0,0.0,0.0,0.0,0.0,0.0,0.0,0.0,0.0,0.0,0.0,0.0,0.0,0.0,0.0,0.0,0.0,0.0,0.0,0.0,0.0,0.0,0.0,0.0,0.0,0.0,0.0,0.0,0.0,0.0,0.0,0.0,0.0,0.0,0.0,0.0,0.0,0.0,0.0,0.0,0.0,0.0,0.0,0.0,0.0,0.0,0.0,0.0,0.0,0.0,0.0,0.0,0.0,0.0,0.0,0.0,0.0,0.0,0.0,0.0,0.0,0.0,0.0,0.0,0.0,0.0,0.0,0.0,0.0,0.0,0.0,0.0,0.0,0.0,0.0,0.0,0.0,0.0,0.0,0.0,0.0,0.0,0.0,0.0,0.0,0.0,0.0,0.0,0.0,0.0,0.0,0.0,0.0,0.0,0.0,0.0,0.0,0.0,0.0,0.0,0.0,0.0,0.0,0.0,0.0,0.0,0.0,0.0,0.0,0.0,0.0,0.0,0.0,0.0,0.0,0.0,0.0,0.0,0.0,0.0,0.0,0.0,0.0,0.0,0.0,0.0,0.0,0.0,0.0,0.0,0.0,0.0,0.0,0.0,0.0,0.0,0.0,0.0,0.0,0.0,0.0,0.0,0.0,0.0,0.0,0.0,0.0,0.0,0.0,0.0,0.0,0.0,0.0,0.0,0.0,0.0,0.0,0.0,0.0,0.0,0.0,0.0,0.0,3.5076,0.0,0.0,0.0,0.0,0.0,0.0,0.0,0.0,0.0,0.0,0.0,0.0,0.0,0.0,0.0,0.0,0.0,0.0,0.0,0.0,0.0,0.0,0.0,0.0,0.0,0.0,0.0,0.0,0.0,0.0,0.0,0.0,0.0,0.0,0.0,0.0,0.0,0.0,0.0,0.0,0.0,0.0,0.0,0.0,0.0,0.0,0.0,0.0,0.0,0.0,0.0,0.0,0.0,0.0,0.0,0.0,0.0,0.0,0.0,0.0,0.0,0.0,0.0,0.0,0.0,0.0,0.0,0.0,0.0,0.0,0.0,0.0,0.0,0.0,0.0,0.0,0.0,0.0,0.0,0.0,0.0,0.0,0.0,0.0,0.0,0.0,0.0,0.0,0.0,0.0,0.0,0.0,0.0,0.0,0.0,0.0,0.0,0.0,0.0,0.0,0.0,0.0,0.0,0.0,0.0,0.0,0.0,0.0,0.0,0.0,3.6939,3.6939,3.6939,3.6801,3.6422,0.0,0.0,0.0,0.0,0.0,0.0,0.0,0.0,0.0,0.0,0.0,0.0,0.0,0.0,0.0,0.0,0.0,0.0,0.0,0.0,0.0,0.0,0.0,0.0,0.0,0.0,0.0,0.0,0.0,0.0,0.0,0.0,0.0,0.0,0.0,0.0,0.0,0.0,0.0,0.0,0.0,0.0,0.0,0.0,0.0,0.0,0.0,0.0,0.0,0.0,0.0,0.0,0.0,0.0,0.0,0.0,0.0,0.0,0.0,0.0,0.0,0.0,0.0,0.0,0.0,0.0,0.0,0.0,0.0,0.0,0.0,0.0,0.0,0.0,0.0,0.0,0.0,0.0,0.0,0.0,0.0,0.0,0.0,0.0,0.0,0.0,0.0,0.0,0.0,0.0,0.0,0.0,0.0,0.0,0.0,0.0,0.0,0.0,0.0,0.0,0.0,0.0,0.0,0.0,0.0,0.0,0.0,0.0,0.0,0.0,0.0,0.0,3.7732,3.7663,3.7422,0.0,0.0,0.0,0.0,0.0,0.0,0.0,0.0,0.0,0.0,0.0,0.0,0.0,0.0,0.0,0.0,0.0,0.0,0.0,0.0,0.0,0.0,0.0,0.0,0.0,0.0,0.0,0.0,0.0,0.0,0.0,0.0,0.0,0.0,0.0,0.0,0.0,0.0,0.0,0.0,0.0,0.0,0.0,0.0,0.0,0.0,0.0,0.0,0.0,0.0,0.0,0.0,0.0,0.0,0.0,0.0,0.0,0.0,0.0,0.0,0.0,0.0,0.0,0.0,0.0,0.0,0.0,0.0,0.0,0.0,0.0,0.0,0.0,0.0,0.0,0.0,0.0,0.0,0.0,0.0,0.0,0.0,0.0,0.0,0.0,0.0,0.0,0.0,0.0,0.0,0.0,0.0,0.0,0.0,0.0,0.0,0.0,0.0,0.0,0.0,0.0,0.0,0.0,0.0,0.0,0.0,0.0,0.0,0.0,0.0,3.7801,3.8456,3.8491,0.0,3.7422,0.0,0.0,0.0,0.0,0.0,0.0,0.0,0.0,0.0,0.0,0.0,0.0,0.0,0.0,0.0,0.0,0.0,0.0,0.0,0.0,0.0,0.0,0.0,0.0,0.0,0.0,0.0,0.0,0.0,0.0,0.0,0.0,0.0,0.0,0.0,0.0,0.0,0.0,0.0,0.0,0.0,0.0,0.0,0.0,0.0,0.0,0.0,0.0,0.0,0.0,0.0,0.0,0.0,0.0,0.0,0.0,0.0,0.0,0.0,0.0,0.0,0.0,0.0,0.0,0.0,0.0,0.0,0.0,0.0,0.0,0.0,0.0,0.0,0.0,0.0,0.0,0.0,0.0,0.0,0.0,0.0,0.0,0.0,0.0,0.0,0.0,0.0,0.0,0.0,0.0,0.0,0.0,0.0,0.0,0.0,0.0,0.0,0.0,0.0,0.0,0.0,0.0,0.0,0.0,0.0,0.0,0.0,0.0,0.0,0.0,3.8939,3.925,3.8836,3.8249,0.0,0.0,0.0,0.0,0.0,0.0,0.0,0.0,0.0,0.0,0.0,0.0,0.0,0.0,0.0,0.0,0.0,0.0,0.0,0.0,0.0,0.0,0.0,0.0,0.0,0.0,0.0,0.0,0.0,0.0,0.0,0.0,0.0,0.0,0.0,0.0,0.0,0.0,0.0,0.0,0.0,0.0,0.0,0.0,0.0,0.0,0.0,0.0,0.0,0.0,0.0,0.0,0.0,0.0,0.0,0.0,0.0,0.0,0.0,0.0,0.0,0.0,0.0,0.0,0.0,0.0,0.0,0.0,0.0,0.0,0.0,0.0,0.0,0.0,0.0,0.0,0.0,0.0,0.0,0.0,0.0,0.0,0.0,0.0,0.0,0.0,0.0,0.0,0.0,0.0,0.0,0.0,0.0,0.0,0.0,0.0,0.0,0.0,0.0,0.0,0.0,0.0,0.0,0.0,0.0,0.0,0.0,0.0,0.0,0.0,3.9043,3.9802,3.9974,3.9284,3.856,3.7801,0.0,0.0,0.0,0.0,0.0,0.0,0.0,0.0,0.0,0.0,0.0,0.0,0.0,0.0,0.0,0.0,0.0,0.0,0.0,0.0,0.0,0.0,0.0,0.0,0.0,0.0,0.0,0.0,0.0,0.0,0.0,0.0,0.0,0.0,0.0,0.0,0.0,0.0,0.0,0.0,0.0,0.0,0.0,0.0,0.0,0.0,0.0,0.0,0.0,0.0,0.0,0.0,0.0,0.0,0.0,0.0,0.0,0.0,0.0,0.0,0.0,0.0,0.0,0.0,0.0,0.0,0.0,0.0,0.0,0.0,0.0,0.0,0.0,0.0,0.0,0.0,0.0,0.0,0.0,0.0,0.0,0.0,0.0,0.0,0.0,0.0,0.0,0.0,0.0,0.0,0.0,0.0,0.0,0.0,0.0,0.0,0.0,0.0,0.0,0.0,0.0,0.0,0.0,0.0,0.0,0.0,0.0,0.0,3.8525,3.9319,4.0077,4.0767,4.0043,3.9319,0.0,0.0,0.0,0.0,0.0,0.0,0.0,0.0,0.0,0.0,0.0,0.0,0.0,0.0,0.0,0.0,0.0,0.0,0.0,0.0,0.0,0.0,0.0,0.0,0.0,0.0,0.0,0.0,0.0,0.0,0.0,0.0,0.0,0.0,0.0,0.0,0.0,0.0,0.0,0.0,0.0,0.0,0.0,0.0,0.0,0.0,0.0,0.0,0.0,0.0,0.0,0.0,0.0,0.0,0.0,0.0,0.0,0.0,0.0,0.0,0.0,0.0,0.0,0.0,0.0,0.0,0.0,0.0,0.0,0.0,0.0,0.0,0.0,0.0,0.0,0.0,0.0,0.0,0.0,0.0,0.0,0.0,0.0,0.0,0.0,0.0,0.0,0.0,0.0,0.0,0.0,0.0,0.0,0.0,0.0,0.0,0.0,0.0,0.0,0.0,0.0,0.0,0.0,0.0,0.0,0.0,0.0,0.0,0.0,3.8629,3.9802,4.0595,4.0836,4.0112,3.9353,0.0,0.0,0.0,0.0,0.0,0.0,0.0,0.0,0.0,0.0,0.0,0.0,0.0,0.0,0.0,0.0,0.0,0.0,0.0,0.0,0.0,0.0,0.0,0.0,0.0,0.0,0.0,0.0,0.0,0.0,0.0,0.0,0.0,0.0,0.0,0.0,0.0,0.0,0.0,0.0,0.0,0.0,0.0,0.0,0.0,0.0,0.0,0.0,0.0,0.0,0.0,0.0,0.0,0.0,0.0,0.0,0.0,0.0,0.0,0.0,0.0,0.0,0.0,0.0,0.0,0.0,0.0,0.0,0.0,0.0,0.0,0.0,0.0,0.0,0.0,0.0,0.0,0.0,0.0,0.0,0.0,0.0,0.0,0.0,0.0,0.0,0.0,0.0,0.0,0.0,0.0,0.0,0.0,0.0,0.0,0.0,0.0,0.0,0.0,0.0,0.0,0.0,0.0,0.0,0.0,0.0,0.0,0.0,0.0,3.9353,0.0,4.1112,4.0871,4.0595,3.9836,0.0,0.0,0.0,0.0,0.0,0.0,0.0,0.0,0.0,0.0,0.0,0.0,0.0,0.0,0.0,0.0,0.0,0.0,0.0,0.0,0.0,0.0,0.0,0.0,0.0,0.0,0.0,0.0,0.0,0.0,0.0,0.0,0.0,0.0,0.0,0.0,0.0,0.0,0.0,0.0,0.0,0.0,0.0,0.0,0.0,0.0,0.0,0.0,0.0,0.0,0.0,0.0,0.0,0.0,0.0,0.0,0.0,0.0,0.0,0.0,0.0,0.0,0.0,0.0,0.0,0.0,0.0,0.0,0.0,0.0,0.0,0.0,0.0,0.0,0.0,0.0,0.0,0.0,0.0,0.0,0.0,0.0,0.0,0.0,0.0,0.0,0.0,0.0,0.0,0.0,0.0,0.0,0.0,0.0,0.0,0.0,0.0,0.0,0.0,0.0,0.0,0.0,0.0,0.0,0.0,0.0,0.0,0.0,3.9388,4.0802,4.1595,4.163,4.1022,4.1595,4.0905,0.0,0.0,0.0,0.0,0.0,0.0,0.0,0.0,0.0,0.0,0.0,0.0,0.0,0.0,0.0,0.0,0.0,0.0,0.0,0.0,0.0,0.0,0.0,0.0,0.0,0.0,0.0,0.0,0.0,0.0,0.0,0.0,0.0,0.0,0.0,0.0,0.0,0.0,0.0,0.0,0.0,0.0,0.0,0.0,0.0,0.0,0.0,0.0,0.0,0.0,0.0,0.0,0.0,0.0,0.0,0.0,0.0,0.0,0.0,0.0,0.0,0.0,0.0,0.0,0.0,0.0,0.0,0.0,0.0,0.0,0.0,0.0,0.0,0.0,0.0,0.0,0.0,0.0,0.0,0.0,0.0,0.0,0.0,0.0,0.0,0.0,0.0,0.0,0.0,0.0,0.0,0.0,0.0,0.0,0.0,0.0,0.0,0.0,0.0,0.0,0.0,0.0,0.0,0.0,0.0,0.0,0.0,0.0,0.0,4.163,4.1871,4.2147,4.2472,4.2147,4.1181,0.0,0.0,0.0,0.0,0.0,0.0,0.0,0.0,0.0,0.0,0.0,0.0,0.0,0.0,0.0,0.0,0.0,0.0,0.0,0.0,0.0,0.0,0.0,0.0,0.0,0.0,0.0,0.0,0.0,0.0,0.0,0.0,0.0,0.0,0.0,0.0,0.0,0.0,0.0,0.0,0.0,0.0,0.0,0.0,0.0,0.0,0.0,0.0,0.0,0.0,0.0,0.0,0.0,0.0,0.0,0.0,0.0,0.0,0.0,0.0,0.0,0.0,0.0,0.0,0.0,0.0,0.0,0.0,0.0,0.0,0.0,0.0,0.0,0.0,0.0,0.0,0.0,0.0,0.0,0.0,0.0,0.0,0.0,0.0,0.0,0.0,0.0,0.0,0.0,0.0,0.0,0.0,0.0,0.0,0.0,0.0,0.0,0.0,0.0,0.0,0.0,0.0,0.0,0.0,0.0,0.0,0.0,0.0,0.0,4.2802,4.2837,4.294,4.3232,4.2699,4.1698,4.0215,0.0,0.0,0.0,0.0,0.0,0.0,0.0,0.0,0.0,0.0,0.0,0.0,0.0,0.0,0.0,0.0,0.0,0.0,0.0,0.0,0.0,0.0,0.0,0.0,0.0,0.0,0.0,0.0,0.0,0.0,0.0,0.0,0.0,0.0,0.0,0.0,0.0,0.0,0.0,0.0,0.0,0.0,0.0,0.0,0.0,0.0,0.0,0.0,0.0,0.0,0.0,0.0,0.0,0.0,0.0,0.0,0.0,0.0,0.0,0.0,0.0,0.0,0.0,0.0,0.0,0.0,0.0,0.0,0.0,0.0,0.0,0.0,0.0,0.0,0.0,0.0,0.0,0.0,0.0,0.0,0.0,0.0,0.0,0.0,0.0,0.0,0.0,0.0,0.0,0.0,0.0,0.0,0.0,0.0,0.0,0.0,0.0,0.0,0.0,0.0,0.0,0.0,0.0,0.0,0.0,0.0,0.0,0.0,4.432,4.4423,4.4147,4.3473,4.3404,4.261,0.0,0.0,0.0,0.0,0.0,0.0,0.0,0.0,0.0,0.0,0.0,0.0,0.0,0.0,0.0,0.0,0.0,0.0,0.0,0.0,0.0,0.0,0.0,0.0,0.0,0.0,0.0,0.0,0.0,0.0,0.0,0.0,0.0,0.0,0.0,0.0,0.0,0.0,0.0,0.0,0.0,0.0,0.0,0.0,0.0,0.0,0.0,0.0,0.0,0.0,0.0,0.0,0.0,0.0,0.0,0.0,0.0,0.0,0.0,0.0,0.0,0.0,0.0,0.0,0.0,0.0,0.0,0.0,0.0,0.0,0.0,0.0,0.0,0.0,0.0,0.0,0.0,0.0,0.0,0.0,0.0,0.0,0.0,0.0,0.0,0.0,0.0,0.0,0.0,0.0,0.0,0.0,0.0,0.0,0.0,0.0,0.0,0.0,0.0,0.0,0.0,0.0,0.0,0.0,0.0,0.0,0.0,0.0,0.0,4.5113,4.6217,4.6458,4.5734,4.5147,4.3837,0.0,0.0,0.0,0.0,0.0,0.0,0.0,0.0,0.0,0.0,0.0,0.0,0.0,0.0,0.0,0.0,0.0,0.0,0.0,0.0,0.0,0.0,0.0,0.0,0.0,0.0,0.0,0.0,0.0,0.0,0.0,0.0,0.0,0.0,0.0,0.0,0.0,0.0,0.0,0.0,0.0,0.0,0.0,0.0,0.0,0.0,0.0,0.0,0.0,0.0,0.0,0.0,0.0,0.0,0.0,0.0,0.0,0.0,0.0,0.0,0.0,0.0,0.0,0.0,0.0,0.0,0.0,0.0,0.0,0.0,0.0,0.0,0.0,0.0,0.0,0.0,0.0,0.0,0.0,0.0,0.0,0.0,0.0,0.0,0.0,0.0,0.0,0.0,0.0,0.0,0.0,0.0,0.0,0.0,0.0,0.0,0.0,0.0,0.0,0.0,0.0,0.0,0.0,0.0,0.0,0.0,0.0,0.0,4.4803,4.5906,4.7389,4.7976,4.7527,4.6148,4.4665,0.0,0.0,0.0,0.0,0.0,0.0,0.0,0.0,0.0,0.0,0.0,0.0,0.0,0.0,0.0,0.0,0.0,0.0,0.0,0.0,0.0,0.0,0.0,0.0,0.0,0.0,0.0,0.0,0.0,0.0,0.0,0.0,0.0,0.0,0.0,0.0,0.0,0.0,0.0,0.0,0.0,0.0,0.0,0.0,0.0,0.0,0.0,0.0,0.0,0.0,0.0,0.0,0.0,0.0,0.0,0.0,0.0,0.0,0.0,0.0,0.0,0.0,0.0,0.0,0.0,0.0,0.0,0.0,0.0,0.0,0.0,0.0,0.0,0.0,0.0,0.0,0.0,0.0,0.0,0.0,0.0,0.0,0.0,0.0,0.0,0.0,0.0,0.0,0.0,0.0,0.0,0.0,0.0,0.0,0.0,0.0,0.0,0.0,0.0,0.0,0.0,0.0,0.0,0.0,0.0,0.0,0.0,0.0,4.5147,4.67,4.8183,4.8941,4.8872,4.6803,4.5216,0.0,0.0,0.0,0.0,0.0,0.0,0.0,0.0,0.0,0.0,0.0,0.0,0.0,0.0,0.0,0.0,0.0,0.0,0.0,0.0,0.0,0.0,0.0,0.0,0.0,0.0,0.0,0.0,0.0,0.0,0.0,0.0,0.0,0.0,0.0,0.0,0.0,0.0,0.0,0.0,0.0,0.0,0.0,0.0,0.0,0.0,0.0,0.0,0.0,0.0,0.0,0.0,0.0,0.0,0.0,0.0,0.0,0.0,0.0,0.0,0.0,0.0,0.0,0.0,0.0,0.0,0.0,0.0,0.0,0.0,0.0,0.0,0.0,0.0,0.0,0.0,0.0,0.0,0.0,0.0,0.0,0.0,0.0,0.0,0.0,0.0,0.0,0.0,0.0,0.0,0.0,0.0,0.0,0.0,0.0,0.0,0.0,0.0,0.0,0.0,0.0,0.0,0.0,0.0,0.0,0.0,0.0,0.0,4.5906,4.7458,4.8976,4.9769,4.9735,4.8114,4.6286,0.0,0.0,0.0,0.0,0.0,0.0,0.0,0.0,0.0,0.0,0.0,0.0,0.0,0.0,0.0,0.0,0.0,0.0,0.0,0.0,0.0,0.0,0.0,0.0,0.0,0.0,0.0,0.0,0.0,0.0,0.0,0.0,0.0,0.0,0.0,0.0,0.0,0.0,0.0,0.0,0.0,0.0,0.0,0.0,0.0,0.0,0.0,0.0,-0.7236,0.0,0.0,0.0,0.0,0.0,0.0,0.0,0.0,0.0,0.0,0.0,0.0,0.0,0.0,0.0,0.0,0.0,0.0,0.0,0.0,0.0,0.0,0.0,0.0,0.0,0.0,0.0,0.0,0.0,0.0,0.0,0.0,0.0,0.0,0.0,0.0,0.0,0.0,0.0,0.0,0.0,0.0,0.0,0.0,0.0,0.0,0.0,0.0,0.0,0.0,0.0,0.0,0.0,0.0,0.0,0.0,0.0,0.0,0.0,4.6562,4.77,4.9217,5.0011,4.9942,4.8528,4.703,0.0,0.0,0.0,0.0,0.0,0.0,0.0,0.0,0.0,0.0,0.0,0.0,0.0,0.0,0.0,0.0,0.0,0.0,0.0,0.0,0.0,0.0,0.0,0.0,0.0,0.0,0.0,0.0,0.0,0.0,0.0,0.0,0.0,0.0,0.0,0.0,0.0,0.0,0.0,0.0,0.0,0.0,0.0,0.0,0.0,0.0,0.0,0.0,0.0,0.0,0.0,0.0,0.0,0.0,0.0,0.0,0.0,0.0,0.0,0.0,0.0,0.0,0.0,0.0,0.0,0.0,0.0,0.0,0.0,0.0,0.0,0.0,0.0,0.0,0.0,0.0,0.0,0.0,0.0,0.0,0.0,0.0,0.0,0.0,0.0,0.0,0.0,0.0,0.0,0.0,0.0,0.0,0.0,0.0,0.0,0.0,0.0,0.0,0.0,0.0,0.0,0.0,0.0,0.0,0.0,0.0,0.0,4.5492,4.701,4.7907,4.9286,5.0011,4.9976,4.8528,4.7341,4.6637,0.0,0.0,0.0,0.0,0.0,0.0,0.0,0.0,0.0,0.0,0.0,0.0,0.0,0.0,0.0,0.0,0.0,0.0,0.0,0.0,0.0,0.0,0.0,0.0,0.0,0.0,0.0,0.0,0.0,0.0,0.0,0.0,0.0,0.0,0.0,0.0,0.0,0.0,2.6092,2.2911,0.0,0.0,0.0,0.0,0.0,0.0,0.0,0.0,-0.6157,0.0,0.0,0.0,0.0,0.0,0.0,0.0,0.0,0.0,0.0,0.0,0.0,0.0,0.0,0.0,0.0,0.0,0.0,0.0,0.0,0.0,0.0,0.0,0.0,0.0,0.0,0.0,0.0,0.0,0.0,0.0,0.0,0.0,0.0,0.0,0.0,0.0,0.0,0.0,0.0,0.0,0.0,0.0,0.0,0.0,0.0,0.0,0.0,0.0,0.0,0.0,0.0,0.0,0.0,0.0,0.0,4.4078,4.5768,4.7286,4.8596,4.9528,5.0011,4.9976,4.8528,4.7044,4.5683,0.0,0.0,0.0,0.0,0.0,0.0,0.0,0.0,0.0,0.0,0.0,0.0,0.0,0.0,0.0,0.0,0.0,0.0,0.0,0.0,0.0,0.0,0.0,0.0,0.0,0.0,0.0,0.0,0.0,0.0,0.0,0.0,0.0,0.0,0.0,0.0,0.0,0.0,0.0,2.4349,2.1361,0.0,0.0,0.0,0.0,0.0,0.0,0.0,0.0,-0.7828,0.0,0.0,0.0,0.0,0.0,0.0,0.0,0.0,0.0,0.0,0.0,0.0,0.0,0.0,0.0,0.0,0.0,0.0,0.0,0.0,0.0,0.0,0.0,0.0,0.0,0.0,0.0,0.0,0.0,0.0,0.0,0.0,0.0,0.0,0.0,0.0,0.0,0.0,0.0,0.0,0.0,0.0,0.0,0.0,0.0,0.0,0.0,0.0,0.0,0.0,0.0,0.0,0.0,0.0,0.0,4.4216,4.6182,4.7734,4.8803,4.9597,5.0011,4.9976,4.8528,4.6975,0.0,0.0,0.0,0.0,0.0,0.0,0.0,0.0,0.0,0.0,0.0,0.0,0.0,0.0,0.0,0.0,0.0,0.0,0.0,0.0,0.0,0.0,0.0,0.0,0.0,0.0,0.0,0.0,0.0,0.0,0.0,0.0,0.0,0.0,0.0,0.0,0.0,0.0,0.0,0.0,2.4565,2.1775,1.8686,0.0,0.0,0.0,0.0,0.0,0.0,-0.2762,-0.6157,0.0,0.0,0.0,0.0,0.0,0.0,0.0,0.0,0.0,0.0,0.0,0.0,0.0,0.0,0.0,0.0,0.0,0.0,0.0,0.0,0.0,0.0,0.0,0.0,0.0,0.0,0.0,0.0,0.0,0.0,0.0,0.0,0.0,0.0,0.0,0.0,0.0,0.0,0.0,0.0,0.0,0.0,0.0,0.0,0.0,0.0,0.0,0.0,0.0,0.0,0.0,0.0,0.0,0.0,0.0,4.4458,4.6631,4.8148,4.9045,4.9666,5.0011,4.9976,4.8528,4.701,0.0,0.0,0.0,0.0,0.0,0.0,0.0,0.0,0.0,0.0,0.0,0.0,0.0,0.0,0.0,0.0,0.0,0.0,0.0,0.0,0.0,0.0,0.0,0.0,0.0,0.0,0.0,0.0,0.0,0.0,0.0,0.0,0.0,0.0,0.0,0.0,0.0,0.0,0.0,0.0,0.0,2.1843,1.8574,1.5227,0.0,0.0,0.0,0.0,0.2159,-0.0959,0.0,0.0,0.0,0.0,0.0,0.0,0.0,0.0,0.0,0.0,0.0,0.0,0.0,0.0,0.0,0.0,0.0,0.0,0.0,0.0,0.0,0.0,0.0,0.0,0.0,0.0,0.0,0.0,0.0,0.0,0.0,0.0,0.0,0.0,0.0,0.0,0.0,0.0,0.0,0.0,0.0,0.0,0.0,0.0,0.0,0.0,0.0,0.0,0.0,0.0,0.0,0.0,0.0,0.0,0.0,0.0,4.5216,4.6906,4.8424,4.9769,4.9942,5.0011,4.9976,4.8528,4.701,0.0,0.0,0.0,0.0,0.0,0.0,0.0,0.0,0.0,0.0,0.0,0.0,0.0,0.0,0.0,0.0,0.0,0.0,0.0,0.0,0.0,0.0,0.0,0.0,0.0,0.0,0.0,0.0,0.0,0.0,0.0,0.0,0.0,0.0,0.0,0.0,0.0,0.0,0.0,0.0,0.0,2.2638,1.9747,1.6846,1.3834,0.0,0.0,0.6497,0.4709,0.1367,0.0,0.0,0.0,0.0,0.0,0.0,0.0,0.0,0.0,0.0,0.0,0.0,0.0,0.0,0.0,0.0,0.0,0.0,0.0,0.0,0.0,0.0,0.0,0.0,0.0,0.0,0.0,0.0,0.0,0.0,0.0,0.0,0.0,0.0,0.0,0.0,0.0,0.0,0.0,0.0,0.0,0.0,0.0,0.0,0.0,0.0,0.0,0.0,0.0,0.0,0.0,0.0,0.0,0.0,0.0,4.2388,4.5354,4.6941,4.8459,4.9942,5.0011,5.0011,5.0011,4.8528,4.701,0.0,0.0,0.0,0.0,0.0,0.0,0.0,0.0,0.0,0.0,0.0,0.0,0.0,0.0,0.0,0.0,0.0,0.0,0.0,0.0,0.0,0.0,0.0,0.0,0.0,0.0,0.0,0.0,0.0,0.0,0.0,0.0,0.0,0.0,0.0,0.0,0.0,0.0,0.0,0.0,0.0,0.0,1.9703,1.7028,0.0,0.0,0.0,0.8552,0.7112,0.0,0.0,0.0,0.0,0.0,0.0,0.0,0.0,0.0,0.0,0.0,0.0,0.0,0.0,0.0,0.0,0.0,0.0,0.0,0.0,0.0,0.0,0.0,0.0,0.0,0.0,0.0,0.0,0.0,0.0,0.0,0.0,0.0,0.0,0.0,0.0,0.0,0.0,0.0,0.0,0.0,0.0,0.0,0.0,0.0,0.0,0.0,0.0,0.0,0.0,0.0,0.0,0.0,0.0,0.0,0.0,0.0,4.5354,4.6941,4.8562,5.0218,5.0287,5.0287,5.0252,4.8976,0.0,0.0,0.0,0.0,0.0,0.0,0.0,0.0,0.0,0.0,0.0,0.0,0.0,0.0,0.0,0.0,0.0,0.0,0.0,0.0,0.0,0.0,0.0,0.0,0.0,0.0,0.0,3.1191,0.0,0.0,0.0,0.0,0.0,0.0,0.0,0.0,0.0,0.0,0.0,0.0,0.0,0.0,2.2017,1.9588,1.727,1.5012,0.0,0.0,1.0149,0.8806,0.5912,0.1978,0.0,0.0,0.0,0.0,0.0,0.0,0.0,0.0,0.0,0.0,0.0,0.0,0.0,0.0,0.0,0.0,0.0,0.0,0.0,0.0,0.0,0.0,0.0,0.0,0.0,0.0,0.0,0.0,0.0,0.0,0.0,0.0,0.0,0.0,0.0,0.0,0.0,0.0,0.0,0.0,0.0,0.0,0.0,0.0,0.0,0.0,0.0,0.0,0.0,0.0,0.0,0.0,0.0,0.0,0.0,4.5354,4.6941,4.8803,5.0942,5.1045,5.1045,5.1011,5.0252,4.8803,0.0,0.0,0.0,0.0,0.0,0.0,0.0,0.0,0.0,0.0,0.0,0.0,0.0,0.0,0.0,0.0,0.0,0.0,0.0,0.0,0.0,0.0,0.0,0.0,0.0,0.0,0.0,0.0,0.0,0.0,0.0,0.0,0.0,0.0,0.0,0.0,0.0,0.0,0.0,0.0,0.0,2.1867,1.9613,1.7949,1.6126,0.0,1.2361,1.0987,0.9192,0.613,0.2402,-0.212,0.0,0.0,0.0,0.0,0.0,0.0,0.0,0.0,0.0,0.0,0.0,0.0,0.0,0.0,0.0,0.0,0.0,0.0,0.0,0.0,0.0,0.0,0.0,0.0,0.0,0.0,0.0,0.0,0.0,0.0,0.0,0.0,0.0,0.0,0.0,0.0,0.0,0.0,0.0,0.0,0.0,0.0,0.0,0.0,0.0,0.0,0.0,0.0,0.0,0.0,0.0,0.0,0.0,4.2837,4.5389,4.7389,4.9286,5.1045,5.1563,5.1804,5.177,5.0631,4.9148,0.0,0.0,0.0,0.0,0.0,0.0,0.0,0.0,0.0,0.0,0.0,0.0,0.0,0.0,0.0,0.0,0.0,0.0,0.0,0.0,0.0,0.0,0.0,0.0,0.0,0.0,0.0,0.0,3.44,3.4753,3.4728,0.0,0.0,0.0,0.0,0.0,0.0,0.0,0.0,0.0,0.0,2.1362,1.9586,1.7642,0.0,0.0,1.2271,1.0907,1.0161,0.6477,0.2345,-0.1623,-0.6801,0.0,0.0,0.0,0.0,0.0,0.0,0.0,0.0,0.0,0.0,0.0,0.0,0.0,0.0,0.0,0.0,0.0,0.0,0.0,0.0,0.0,0.0,0.0,0.0,0.0,0.0,0.0,0.0,0.0,0.0,0.0,0.0,0.0,0.0,0.0,0.0,0.0,0.0,0.0,0.0,0.0,0.0,0.0,0.0,0.0,0.0,0.0,0.0,0.0,0.0,0.0,0.0,4.3113,4.5336,4.7665,4.9666,5.139,5.2183,5.2563,5.2528,5.1321,4.9942,0.0,0.0,0.0,0.0,0.0,0.0,0.0,0.0,0.0,0.0,0.0,0.0,0.0,0.0,0.0,0.0,0.0,0.0,0.0,0.0,0.0,0.0,0.0,0.0,0.0,0.0,0.0,0.0,3.518,3.5274,3.4745,0.0,0.0,0.0,0.0,0.0,0.0,0.0,0.0,0.0,0.0,2.1148,1.9301,1.7089,1.5063,1.3396,1.1868,1.0352,0.9152,0.531,0.1129,-0.2487,0.0,0.0,0.0,0.0,0.0,0.0,0.0,0.0,0.0,0.0,0.0,0.0,0.0,0.0,0.0,0.0,0.0,0.0,0.0,0.0,0.0,0.0,0.0,0.0,0.0,0.0,0.0,0.0,0.0,0.0,3.6347,0.0,0.0,0.0,0.0,0.0,0.0,0.0,0.0,0.0,0.0,0.0,0.0,0.0,0.0,0.0,0.0,0.0,0.0,0.0,0.0,0.0,0.0,4.3147,4.5371,4.7734,4.9942,5.2114,5.2977,5.3391,5.3356,5.2597,5.1459,4.9942,0.0,0.0,0.0,0.0,0.0,0.0,0.0,0.0,0.0,0.0,0.0,0.0,0.0,0.0,0.0,0.0,0.0,0.0,0.0,0.0,0.0,0.0,0.0,0.0,0.0,0.0,3.572,3.6045,3.5819,0.0,0.0,0.0,0.0,0.0,0.0,0.0,0.0,0.0,0.0,2.3703,2.1254,1.8721,1.6389,1.3981,1.1429,1.0894,0.9313,0.5522,0.2155,-0.128,0.0,0.0,0.0,0.0,0.0,0.0,0.0,0.0,0.0,0.0,0.0,0.0,0.0,0.0,0.0,0.0,0.0,0.0,0.0,0.0,0.0,0.0,0.0,0.0,0.0,0.0,0.0,4.0643,4.0602,0.0,0.0,0.0,0.0,0.0,0.0,0.0,0.0,0.0,0.0,0.0,4.4871,4.5258,0.0,0.0,0.0,0.0,0.0,0.0,0.0,0.0,0.0,0.0,0.0,0.0,4.4389,4.6251,4.8941,5.0942,5.2183,5.3494,5.4149,5.4115,5.3391,5.1804,4.9286,0.0,0.0,0.0,0.0,0.0,0.0,0.0,0.0,0.0,0.0,0.0,0.0,0.0,0.0,0.0,0.0,0.0,0.0,0.0,0.0,0.0,0.0,0.0,0.0,0.0,3.5391,0.0,0.0,0.0,0.0,0.0,0.0,0.0,0.0,0.0,0.0,0.0,2.7031,2.5461,2.2928,2.017,1.7697,1.4868,1.2294,0.0,0.0,0.0,0.0,0.0,0.0,0.0,0.0,0.0,0.0,0.0,0.0,0.0,0.0,-3.1033,-3.1981,-3.3073,-3.4263,-3.5432,0.0,0.0,0.0,0.0,0.0,0.0,0.0,0.0,0.0,0.0,0.0,0.0,0.0,0.0,4.3793,0.0,4.269,0.0,0.0,0.0,0.0,0.0,0.0,0.0,0.0,4.5566,4.6535,4.7337,4.7743,4.7875,0.0,4.6673,4.4976,0.0,0.0,0.0,0.0,0.0,0.0,0.0,0.0,4.5458,4.7044,4.9735,5.1597,5.2632,5.3873,5.4494,5.4494,5.377,5.2114,4.9321,4.7527,4.5561,0.0,0.0,0.0,0.0,0.0,0.0,0.0,0.0,0.0,0.0,0.0,0.0,0.0,0.0,0.0,0.0,0.0,0.0,0.0,0.0,0.0,0.0,0.0,3.5704,0.0,0.0,0.0,0.0,0.0,0.0,0.0,0.0,0.0,3.058,2.9212,2.7573,2.5626,2.2736,1.9733,1.6718,0.0,0.0,0.0,0.0,0.0,0.0,0.0,-0.6173,-1.0197,-1.241,-1.4677,-1.793,-2.1731,-2.5022,-2.7035,0.0,0.0,-3.2695,-3.4085,-3.5359,-3.6635,-3.7734,-3.9043,-4.0582,-4.2081,-4.3669,0.0,0.0,0.0,0.0,0.0,0.0,0.0,0.0,4.7168,4.6728,0.0,4.5186,0.0,0.0,0.0,0.0,0.0,4.4338,0.0,0.0,4.7534,4.8291,4.896,4.9496,4.9578,4.9159,4.8303,4.7682,4.7222,4.3441,0.0,0.0,0.0,0.0,0.0,0.0,4.6251,4.7803,5.0011,5.1873,5.3356,5.4115,5.4494,5.4494,5.3804,5.239,5.0218,4.9286,4.7803,4.5577,4.3354,0.0,0.0,0.0,0.0,0.0,0.0,0.0,0.0,0.0,0.0,0.0,0.0,0.0,0.0,0.0,0.0,0.0,0.0,0.0,0.0,3.5326,0.0,0.0,0.0,0.0,0.0,0.0,0.0,0.0,0.0,0.0,3.1612,2.9964,2.8264,2.6404,0.0,0.0,0.0,0.0,1.0203,0.8003,0.5043,0.1787,-0.1207,-0.4837,-0.8008,-0.9949,0.0,0.0,-2.0238,-2.2704,-2.4848,-2.6813,-2.8874,-3.1131,-3.3398,-3.5066,-3.6624,-3.7976,-3.9167,-4.0503,-4.1842,-4.3337,-4.4709,5.0945,0.0,0.0,0.0,0.0,4.8488,4.8857,4.882,4.8857,4.8746,4.8453,4.7645,0.0,0.0,0.0,0.0,0.0,0.0,4.7228,4.8193,4.9531,5.02,5.0243,5.088,5.103,5.0794,4.9796,4.9203,4.8907,4.6549,4.4689,4.3319,0.0,0.0,0.0,0.0,4.7286,4.9321,5.1045,5.239,5.3391,5.4115,5.4494,5.4494,5.377,5.308,5.2425,5.0666,4.9114,4.7872,4.5665,0.0,0.0,0.0,0.0,0.0,0.0,0.0,0.0,0.0,0.0,0.0,0.0,0.0,0.0,0.0,0.0,0.0,0.0,0.0,3.5794,3.6179,3.6241,0.0,0.0,0.0,0.0,0.0,0.0,0.0,0.0,0.0,3.1734,3.0176,2.8359,0.0,0.0,1.922,1.5238,1.1942,0.9134,0.6973,0.3887,0.0,-0.1963,-0.4834,-0.7699,-1.0248,-1.3667,-1.7115,-1.9779,-2.2007,-2.4179,-2.6325,-2.8898,-3.16,-3.4134,-3.5428,-3.6813,-3.8276,-3.9781,-4.1399,-4.2997,-4.4669,-4.6465,5.3989,5.1789,5.0398,4.9591,4.937,5.0178,5.0508,5.0508,5.0875,5.0839,5.0508,4.9955,4.9179,4.8327,4.8125,0.0,0.0,0.0,4.8812,4.9513,5.0437,5.0964,5.119,5.1458,5.1556,5.1367,5.0647,5.0365,5.0519,4.899,4.7977,4.7229,0.0,0.0,4.632,4.7424,4.8907,5.0838,5.208,5.308,5.3839,5.4287,5.4494,5.4494,5.408,5.3701,5.3391,5.177,5.039,4.9321,4.7389,4.5285,0.0,0.0,0.0,0.0,0.0,0.0,0.0,0.0,0.0,0.0,0.0,3.3533,3.3419,0.0,0.0,0.0,3.5187,3.5794,3.6457,3.6574,0.0,0.0,0.0,0.0,0.0,0.0,0.0,3.434,3.3759,3.2901,3.1682,2.9978,2.806,2.6036,2.2632,1.8927,1.4785,0.0,0.846,0.6016,0.3183,0.0153,-0.2757,-0.5211,-0.796,-1.1611,-1.4769,-1.7654,-1.9585,-2.1698,-2.4103,-2.659,-2.9186,-3.1708,-3.423,-3.5917,-3.7707,-3.9541,-4.1075,-4.2696,-4.4397,-4.5942,-4.7629,5.6328,5.5322,5.3213,5.1899,5.1238,5.1862,5.2155,5.2192,5.2852,5.2742,5.2045,5.1925,5.1359,5.0466,5.0081,0.0,4.9928,4.9708,4.9997,5.0748,5.0602,5.0909,5.1622,5.1505,5.1386,5.1317,5.1016,5.122,5.1787,5.0898,5.0726,5.128,4.848,4.7355,4.8045,4.939,5.0838,5.2287,5.3011,5.377,5.4494,5.4494,5.4494,5.4494,5.4494,5.4184,5.3529,5.2666,5.1597,5.0218,4.8665,4.6769,4.4596,0.0,0.0,0.0,0.0,0.0,0.0,0.0,0.0,0.0,0.0,0.0,0.0,0.0,0.0,3.5522,3.5818,0.0,3.7229,3.6835,0.0,0.0,0.0,3.6577,3.6535,3.6157,3.5549,3.4716,0.0,0.0,3.1527,2.9492,2.741,2.5606,2.2219,1.8552,1.4491,1.1351,0.8369,0.5364,0.2774,-0.0,-0.3591,-0.6098,-0.9051,-1.3385,-1.6024,-1.7834,-1.952,-2.1798,-2.4324,-2.6858,-2.9414,-3.1811,-3.4054,-3.6662,-3.9142,-4.1337,-4.2772,-4.4225,-4.5524,-4.7002,-4.8358,5.6901,5.6134,5.5587,5.4903,5.4135,5.3697,5.3507,5.347,5.3076,5.2784,5.2638,5.2558,5.1988,5.1048,5.0379,5.0145,5.039,5.039,5.0673,5.1134,5.1047,5.1051,5.1017,5.0857,5.101,5.1459,5.1346,5.1685,5.2299,5.2101,5.1983,5.1968,5.1218,5.07,5.0321,5.0666,5.1597,5.3115,5.3287,5.377,5.4494,5.4494,5.4494,5.4494,5.4494,5.4425,5.4218,5.2942,5.2046,5.1666,4.97,4.7803,4.6148,4.4596,0.0,0.0,0.0,0.0,0.0,0.0,0.0,0.0,0.0,3.5038,3.5837,0.0,3.6445,0.0,3.7377,3.7928,3.8179,3.838,0.0,0.0,3.7758,3.7599,3.7184,3.6825,3.6303,3.5472,3.4705,3.3558,3.1569,2.9515,2.7174,2.4573,2.1546,1.8142,1.4066,1.1302,0.86,0.5992,0.326,-0.0156,-0.4229,-0.7981,-1.1244,-1.4345,-1.6339,-1.7864,-1.9531,-2.194,-2.437,-2.6411,-2.9276,-3.2036,-3.4448,-3.7124,-3.9555,-4.1807,-4.3306,-4.4405,-4.5859,-4.745,-4.9138,5.7182,5.6635,5.6685,5.6382,5.5825,5.4937,5.451,5.4428,5.3991,5.3727,5.3681,5.3671,5.323,5.2522,5.1718,5.1382,5.1429,5.1327,5.1369,5.1581,5.1825,5.1801,5.1633,5.1577,5.1708,5.2068,5.201,5.231,5.2943,5.2918,5.2969,5.3253,5.3253,5.3046,5.2632,5.2287,5.2701,5.3873,5.3908,5.4115,5.4494,5.4494,5.4494,5.4494,5.4494,5.4356,5.4046,5.2839,5.208,5.1701,5.0218,4.8803,4.7665,4.606,4.4405,0.0,0.0,0.0,0.0,0.0,0.0,0.0,0.0,0.0,0.0,0.0,3.7969,3.8093,3.8634,3.911,3.9414,3.9674,3.9618,3.9023,3.8608,3.8255,3.7992,3.7339,3.6811,3.6207,3.5167,3.3534,3.1481,2.9223,2.6651,2.3941,2.1053,1.7897,1.4342,1.1424,0.8859,0.6667,0.3435,-0.047,-0.5327,-0.9071,-1.2172,-1.4499,-1.6339,-1.8035,-1.9669,-2.2058,-2.4514,-2.6418,-2.9482,-3.2423,-3.4711,-3.7421,-3.9983,-4.1826,-4.357,-4.5068,-4.6537,-4.8069,-4.9694,5.7138,5.6969,5.6933,5.6865,5.6704,5.5752,5.5243,5.5075,5.4967,5.4798,5.4688,5.4589,5.4389,5.4112,5.3365,5.2925,5.2644,5.2302,5.2172,5.2151,5.2532,5.2671,5.2671,5.2671,5.2705,5.281,5.2691,5.3013,5.3679,5.3591,5.3873,5.4494,5.4494,5.4494,5.4494,5.3873,5.3873,5.4494,5.4494,5.4494,5.4494,5.4494,5.4494,5.4494,5.4425,5.4046,5.3425,5.2563,5.177,5.1149,5.0424,4.9666,4.8838,4.7361,4.6097,0.0,4.2719,0.0,0.0,0.0,0.0,0.0,0.0,0.0,0.0,3.9518,3.9768,3.973,3.9881,4.0174,4.0742,4.068,4.0529,4.0292,3.9518,3.8994,3.8792,3.7846,3.7234,3.7044,3.5339,3.3446,3.1505,2.8854,2.6222,2.361,2.0793,1.7898,1.4687,1.1697,0.9091,0.6885,0.3135,-0.1724,-0.6417,-0.9537,-1.2172,-1.4499,-1.6374,-1.8113,-1.9838,-2.2377,-2.4709,-2.6836,-2.9899,-3.2793,-3.4786,-3.7639,-4.0126,-4.1834,-4.3769,-4.5685,-4.7184,-4.8526,-4.995,5.6653,5.6492,5.6492,5.6492,5.6456,5.6277,5.5933,5.544,5.4691,5.4251,5.4148,5.4132,5.4028,5.3869,5.3727,5.3495,5.3223,5.3001,5.2796,5.2717,5.2601,5.2552,5.2552,5.2339,5.2624,5.3211,5.3245,5.3625,5.435,5.4287,5.4356,5.4494,5.4494,5.4494,5.4494,0.0,0.0,0.0,5.4494,5.4494,5.4494,5.4494,5.4494,5.4494,5.3908,0.0,5.3356,5.2046,5.1252,5.1114,5.039,0.0,0.0,0.0,0.0,0.0,0.0,0.0,0.0,0.0,0.0,0.0,4.3345,4.2931,4.1372,4.1395,4.1537,4.1506,4.1508,4.1477,4.1585,4.1486,4.1042,4.0181,4.0286,4.0228,3.9505,3.8904,3.8206,3.7529,3.5613,3.3638,3.1579,2.9091,2.6481,2.3705,2.1234,1.857,1.5509,1.223,0.9101,0.5621,0.0626,-0.3916,-0.7045,-0.9692,-1.2172,-1.4515,-1.6481,-1.8289,-2.0045,-2.2674,-2.5101,-2.7003,-3.0115,-3.3062,-3.5121,-3.7786,-4.0289,-4.2116,-4.393,-4.5731,-4.7232,-4.8682,-4.9925,5.6843,0.0,5.6304,5.6162,0.0,5.6162,5.5968,5.574,5.5348,5.5062,5.4953,5.4843,5.4768,5.4599,5.412,5.3809,5.3637,5.3428,5.3311,5.3286,5.3428,5.3479,5.3479,5.3418,5.3563,5.3942,5.3942,5.4149,5.4494,5.4494,5.4494,5.4494,5.4494,5.4494,5.4494,5.4494,5.4494,5.4494,5.4494,5.4494,5.4494,5.4494,5.4494,5.4494,5.4149,0.0,0.0,0.0,0.0,0.0,0.0,0.0,0.0,4.9306,0.0,4.7902,4.7044,4.6242,4.5436,4.5177,4.5062,4.5277,4.552,4.4936,4.3288,4.313,4.2948,4.2709,4.259,4.2446,4.2141,4.1964,4.1576,4.0971,4.0565,4.0358,4.0147,3.9457,3.8619,3.7673,3.6088,3.4193,3.2115,2.9658,2.7243,2.4482,2.1909,1.9192,1.6135,1.2817,0.9161,0.4224,-0.0783,-0.4857,-0.7201,-0.9692,-1.2172,-1.4515,-1.6507,-1.8368,-2.0029,-2.2817,-2.5322,-2.717,-3.0284,-3.3163,-3.5271,-3.7786,-4.0289,-4.2116,-4.4068,-4.5731,-4.7232,-4.8682,-4.995,5.7317,5.707,5.6399,5.6082,5.5941,5.5941,5.587,5.5729,0.0,0.0,0.0,5.5648,5.5472,5.5354,5.4605,5.4172,5.3992,5.3871,5.381,5.3844,5.4281,5.4494,5.4494,5.4494,5.4494,5.4494,5.4494,5.4494,5.4494,5.4494,5.4494,5.4494,5.4494,5.4494,5.4494,5.4494,5.4494,5.4494,5.4494,5.4494,5.4494,5.4494,5.4494,5.4494,5.4391,5.4011,5.3425,5.3253,5.2597,5.139,5.1321,5.1227,5.0978,5.0283,4.9909,4.9981,4.8993,4.8166,4.7863,4.7141,4.6965,4.7521,4.7076,4.6162,4.474,4.4596,4.4211,4.3512,4.3517,4.3241,4.2493,4.2366,4.2113,4.1698,4.0862,4.0508,4.0769,3.9884,3.8849,3.7887,3.6359,3.4669,3.2636,3.0247,2.781,2.5413,2.2568,1.9415,1.5955,1.2306,0.8274,0.3132,-0.1097,-0.4701,-0.7201,-0.9692,-1.2172,-1.4507,-1.6534,-1.8456,-2.0355,-2.296,-2.527,-2.7379,-3.0377,-3.3146,-3.5402,-3.7932,-4.0269,-4.2257,-4.4068,-4.5731,-4.7232,-4.8657,-5.0078,5.7588,5.7241,5.7137,5.6718,5.6055,5.6055,5.5706,5.5174,5.5507,5.5448,5.5113,5.5113,5.5113,5.5053,5.4948,5.4852,5.4818,5.4668,5.4606,5.4641,5.4523,5.4494,5.4494,5.4494,5.4494,5.4494,5.4494,5.4494,5.4494,5.4494,5.4494,5.4494,5.4494,5.4494,5.4494,5.4494,5.4494,5.4494,5.4494,5.4494,5.4494,5.4494,5.4494,5.4494,5.3908,5.3529,5.3391,5.277,5.2287,5.208,5.2046,5.2019,5.1802,5.1486,5.1074,5.0755,5.0025,4.9513,4.9305,4.8594,4.8179,4.8153,4.7756,4.6834,4.5327,4.5361,4.5026,4.4171,4.4167,4.3909,4.2985,4.2816,4.2488,4.1621,4.1651,4.1654,4.1299,4.0307,3.9288,3.8291,3.6603,3.4669,3.2673,3.049,2.8233,2.5655,2.2718,1.9446,1.4298,0.9842,0.6417,0.2977,-0.047,-0.376,-0.6889,-0.9692,-1.2179,-1.4653,-1.664,-1.8612,-2.0398,-2.3103,-2.5635,-2.7748,-3.0546,-3.3449,-3.5997,-3.8224,-4.0412,-4.2538,-4.4343,-4.5731,-4.7232,-4.8918,-5.0461,5.8044,5.7846,5.7463,5.708,5.6767,5.6767,5.6495,5.6119,5.621,5.5819,5.5026,5.4965,5.4904,5.4904,5.4745,5.4745,5.4745,5.4655,5.4655,5.4655,5.4494,5.4494,5.4494,5.4494,5.4494,5.4494,5.4494,5.4494,5.4494,5.4494,5.4494,5.4494,5.4494,5.4494,5.4494,5.4494,5.4494,5.4494,5.4494,5.4494,5.4494,5.4494,5.4494,5.4494,5.4184,5.4011,5.4011,5.3667,5.3287,5.2873,5.2839,5.2716,5.2432,5.2213,5.1995,5.1798,5.1313,5.0922,5.0667,4.9973,4.9451,4.8872,4.8419,4.7638,4.6496,4.6134,4.5608,4.48,4.4724,4.4331,4.346,4.3279,4.2942,4.234,4.2182,4.2038,4.1692,4.0865,3.9849,3.8693,3.7184,3.5517,3.3516,3.1513,2.9421,2.6632,2.2855,1.7967,1.3399,0.9687,0.6108,0.2977,-0.0313,-0.3601,-0.6889,-0.9692,-1.2205,-1.478,-1.6738,-1.8681,-2.0547,-2.3111,-2.5674,-2.7919,-3.07,-3.36,-3.6294,-3.8516,-4.0698,-4.2958,-4.464,-4.6136,-4.7738,-4.9797,-5.1695,5.855,5.8481,5.7925,5.7578,5.7404,5.723,5.7097,5.6932,5.6932,5.6374,5.5459,5.5126,5.5063,5.5237,5.4937,5.4874,5.5012,5.5012,5.5046,5.5012,5.5012,5.5046,5.5012,5.5012,5.4943,5.477,5.477,5.4701,5.4529,5.4494,5.4494,5.4494,5.4494,5.4494,5.4494,5.4494,5.4494,5.4494,5.4494,5.4494,5.4494,5.4494,5.4494,5.4494,5.4494,5.4494,5.4494,5.4494,5.4253,5.3701,5.357,5.3444,5.3092,5.2833,5.2707,5.2594,5.2164,5.1762,5.135,5.0711,5.0089,4.9372,4.8769,4.8279,4.7575,4.6875,4.6159,4.5487,4.5232,4.4747,4.4184,4.3868,4.3599,4.3166,4.2696,4.2399,4.2012,4.1263,4.0223,3.8976,3.7767,3.6204,3.4328,3.2476,3.0053,2.6344,2.1704,1.7056,1.3692,0.9992,0.6414,0.3132,-0.0313,-0.3603,-0.6889,-0.9692,-1.2238,-1.4899,-1.68,-1.873,-2.0676,-2.3158,-2.57,-2.8076,-3.1008,-3.3902,-3.6442,-3.8806,-4.1105,-4.3236,-4.4914,-4.6674,-4.8738,-5.0916,-5.2929,5.9113,5.8977,5.8839,5.8426,5.7838,5.7182,5.6905,5.684,5.6805,5.6736,5.6595,5.5839,5.5908,5.6426,5.5839,5.5874,5.6495,5.6598,5.6529,5.6529,5.6598,5.6598,5.6495,5.6564,5.6184,5.5598,5.5529,5.5219,5.4667,5.4563,5.4529,5.4494,5.4494,5.4494,5.4494,5.4494,5.4494,5.4494,5.4494,5.4494,5.4494,5.4494,5.4494,5.4494,5.4494,5.4494,5.4494,5.4494,5.4494,5.4425,5.42,5.4072,5.3844,5.3415,5.2941,5.259,5.2125,5.1466,5.0743,5.0246,4.9773,4.9372,4.8718,4.8292,4.8145,4.7614,4.7011,4.6239,4.5799,4.544,4.5029,4.4894,4.444,4.3591,4.3329,4.3022,4.2174,4.1263,4.0199,3.8908,3.7811,3.6351,3.4779,3.2648,2.9369,2.4943,2.113,1.7369,1.4007,1.0452,0.6878,0.3441,-0.0157,-0.3601,-0.6885,-0.9692,-1.2251,-1.4899,-1.68,-1.8749,-2.0877,-2.3329,-2.5885,-2.8374,-3.1315,-3.4203,-3.6737,-3.9241,-4.1389,-4.3492,-4.5437,-4.7316,-5.0028,-5.1944,-5.3416,5.9081,5.9012,5.9012,5.884,5.853,5.8219,5.8116,5.8116,5.8116,5.8116,5.8012,5.7322,5.6909,5.6771,5.646,5.6495,5.6805,5.6805,5.6805,5.6805,5.6805,5.6805,5.6805,5.6805,5.6598,5.6322,5.6322,5.615,5.5839,5.5391,5.4943,5.4563,5.4494,5.4494,5.4494,5.4494,5.4494,5.4494,5.4494,5.4494,5.4494,5.4494,5.4494,5.4494,5.4494,5.4494,5.4494,5.4494,5.4494,5.4494,5.4303,5.411,5.398,5.3517,5.2972,5.2449,5.1688,5.1048,5.0666,5.0168,4.9741,4.934,4.9088,4.8748,4.8207,4.8148,4.7892,4.7491,4.7003,4.6434,4.5687,4.5619,4.5209,4.4274,4.383,4.3321,4.2425,4.1492,4.0526,3.9556,3.8429,3.7149,3.5244,3.2116,2.8442,2.4543,2.113,1.7825,1.4467,1.0601,0.6874,0.3597,-0.0,-0.3601,-0.6889,-0.9692,-1.2278,-1.4829,-1.6871,-1.8749,-2.1166,-2.3707,-2.6346,-2.87,-3.1759,-3.4654,-3.7179,-3.951,-4.1813,-4.393,-4.6626,-4.9047,-5.0968,-5.2465,-5.3806,5.9012,5.9012,5.9012,5.9012,5.9012,5.9012,5.9012,5.9012,5.9012,5.9012,5.8978,5.8426,5.7909,5.7426,5.7219,5.7185,5.7391,5.7426,5.7391,5.7391,5.7391,5.7426,5.7391,5.7426,5.7288,5.7116,5.7081,5.7012,5.6771,5.6253,5.5667,5.5184,5.4908,5.4805,5.477,5.4632,5.4494,5.4494,5.4494,5.4494,5.4494,5.4494,5.4494,5.4494,5.4494,5.4494,5.4494,5.4494,5.4431,5.4431,5.4239,5.4045,5.3849,5.3382,5.2834,5.2164,5.1317,5.0743,5.0589,5.0279,4.9976,4.9603,4.9612,4.9387,4.8895,4.8771,4.8682,4.8596,4.8097,4.7503,4.655,4.6288,4.5795,4.4964,4.4313,4.3653,4.265,4.172,4.0761,4.0071,3.8817,3.7356,3.5218,3.1704,2.8053,2.4983,2.1727,1.828,1.4766,1.091,0.703,0.3753,-0.0,-0.3601,-0.6889,-0.9692,-1.2304,-1.4877,-1.6924,-1.8966,-2.1446,-2.3939,-2.6635,-2.9138,-3.2353,-3.5235,-3.762,-3.9941,-4.2656,-4.5142,-4.7581,-4.9822,-5.122,-5.2588,-5.4047,5.9012,5.9012,5.9012,5.9012,5.9012,5.9012,5.9012,5.9012,5.9012,5.9012,5.9012,5.8944,5.8909,5.8771,5.815,5.8219,5.8806,5.8806,5.8771,5.8771,5.8806,5.8875,5.8944,5.8909,5.853,5.7874,5.784,5.7529,5.6874,5.6771,5.6736,5.6633,5.5908,5.5563,5.5495,5.4977,5.4563,5.4701,5.4701,5.4598,5.4598,5.4598,5.4598,5.4598,5.4494,5.4494,5.4529,5.4494,5.4431,5.4239,5.4045,5.3849,5.3416,5.311,5.2553,5.1835,5.1048,5.0621,5.0639,5.0675,5.0536,5.0351,5.029,5.0239,4.9974,4.9631,4.9421,4.9288,4.8964,4.8396,4.7689,4.7026,4.635,4.5287,4.4639,4.3764,4.265,4.1769,4.0808,4.0117,3.8971,3.7156,3.4284,3.1491,2.8485,2.5409,2.2311,1.9025,1.5225,1.1374,0.7493,0.4061,0.0313,-0.3603,-0.6889,-0.9692,-1.2304,-1.4885,-1.7109,-1.8957,-2.1464,-2.4111,-2.6779,-2.9589,-3.2809,-3.5682,-3.8039,-4.0779,-4.3609,-4.6113,-4.8002,-4.995,-5.1346,-5.2711,-5.4166,5.9012,5.9012,5.9012,5.9012,5.9012,5.9012,5.9012,5.9012,5.9012,5.9012,5.9012,5.9012,5.9012,5.9012,5.8737,5.8771,5.9012,5.9012,5.9012,5.9012,5.9012,5.9012,5.9012,5.9012,5.8909,5.8668,5.8599,5.8219,5.7564,5.7495,5.7253,5.684,5.6529,5.6391,5.6322,5.6115,5.5977,5.5977,5.5977,5.5977,5.5943,5.5977,5.577,5.5219,5.477,5.4494,5.4494,5.4367,5.4303,5.4175,5.3849,5.355,5.3349,5.2731,5.2125,5.168,5.1391,5.1261,5.1246,5.134,5.1226,5.1006,5.0882,5.0756,5.0516,5.0258,5.0044,4.9834,4.9404,4.8909,4.8207,4.7391,4.656,4.5795,4.4856,4.3958,4.3148,4.2356,4.1612,4.0722,3.9038,3.683,3.4439,3.1772,2.9059,2.5862,2.2608,1.9166,1.5675,1.1522,0.7493,0.4061,0.0313,-0.3603,-0.7045,-0.9692,-1.2258,-1.4853,-1.7277,-1.9682,-2.218,-2.5028,-2.7748,-3.0377,-3.3432,-3.6423,-3.9076,-4.2052,-4.4892,-4.6784,-4.8682,-5.0078,-5.1346,-5.2711,-5.4286,5.9012,5.9012,5.9012,5.9012,5.9012,5.9012,5.9012,5.9012,5.9012,5.9012,5.9012,5.9012,5.9012,5.9012,5.9012,5.9012,5.9012,5.9012,5.9012,5.9012,5.9012,5.9012,5.9012,5.9012,5.9012,5.9012,5.9012,5.8737,5.8323,5.8254,5.7978,5.7564,5.7288,5.715,5.7116,5.6909,5.6805,5.6805,5.6805,5.6805,5.6805,5.6805,5.6564,5.6012,5.5495,5.4977,5.4563,5.4303,5.4175,5.411,5.3717,5.3281,5.3008,5.2467,5.2015,5.189,5.1894,5.1965,5.1981,5.2068,5.2031,5.1693,5.1678,5.1544,5.1031,5.0709,5.0375,5.0086,4.96,4.9108,4.861,4.7801,4.6977,4.6218,4.518,4.4287,4.3628,4.2985,4.2064,4.0692,3.9002,3.6938,3.4708,3.2193,2.9345,2.6314,2.2905,1.9467,1.5828,1.1837,0.7652,0.422,0.0313,-0.3443,-0.6896,-0.9729,-1.2474,-1.5224,-1.7426,-2.0009,-2.2805,-2.578,-2.853,-3.1315,-3.4186,-3.7161,-4.0208,-4.3331,-4.5572,-4.7473,-4.9047,-5.0487,-5.1721,-5.2956,-5.4405,5.9012,5.9012,5.9012,5.9012,5.9012,5.9012,5.9012,5.9012,5.9012,5.9012,5.9012,5.9012,5.9012,5.9012,5.9012,5.9012,5.9012,5.9012,5.9012,5.9012,5.9012,5.9012,5.9012,5.9012,5.9012,5.9012,5.9012,5.9012,5.8909,5.8909,5.8875,5.8771,5.8185,5.7909,5.7909,5.7322,5.6943,5.7012,5.7047,5.6978,5.684,5.6978,5.6943,5.6805,5.6736,5.6081,5.4701,5.4441,5.4316,5.4151,5.372,5.311,5.2644,5.2557,5.2541,5.2486,5.2602,5.2669,5.2684,5.2962,5.2838,5.2473,5.2533,5.2274,5.1574,5.0887,5.0375,5.0086,4.9698,4.9207,4.8909,4.838,4.7568,4.6533,4.5582,4.483,4.3976,4.3237,4.2066,4.0478,3.8912,3.7287,3.512,3.263,2.9774,2.659,2.3201,1.9618,1.5981,1.1991,0.8119,0.4376,0.0626,-0.3132,-0.6441,-0.9787,-1.2739,-1.5431,-1.7575,-1.9958,-2.3111,-2.6175,-2.8983,-3.1912,-3.5664,-3.8622,-4.163,-4.4481,-4.6224,-4.8002,-4.9411,-5.0842,-5.2094,-5.32,-5.4524,5.9012,5.9012,5.9012,5.9012,5.9012,5.9012,5.9012,5.9012,5.9012,5.9012,5.9012,5.9012,5.9012,5.9012,5.9012,5.9012,5.9012,5.9012,5.9012,5.9012,5.9012,5.9012,5.9012,5.9012,5.9012,5.9012,5.9012,5.9012,5.9012,5.9012,5.9012,5.8944,5.8771,5.8668,5.8633,5.8426,5.8323,5.8323,5.8323,5.8323,5.8323,5.8288,5.8081,5.7633,5.7564,5.7081,5.615,5.5718,5.5518,5.5281,5.4833,5.4161,5.3568,5.328,5.3213,5.3123,5.323,5.3373,5.3387,5.3597,5.3584,5.3184,5.302,5.2577,5.188,5.1105,5.0662,5.0375,4.9892,4.9404,4.898,4.8581,4.7903,4.6873,4.6034,4.5257,4.46,4.3597,4.239,4.0994,3.9497,3.7575,3.5275,3.277,3.0058,2.7041,2.3349,1.9768,1.6277,1.2146,0.8594,0.5477,0.1408,-0.2665,-0.6138,-0.9504,-1.2476,-1.548,-1.7967,-2.0475,-2.3452,-2.6635,-2.9449,-3.3095,-3.6829,-3.9901,-4.2914,-4.5165,-4.6917,-4.8371,-4.9668,-5.0968,-5.2342,-5.3565,-5.4762,5.9012,5.9012,5.9012,5.9012,5.9012,5.9012,5.9012,5.9012,5.9012,5.9012,5.9012,5.9012,5.9012,5.9012,5.9012,5.9012,5.9012,5.9012,5.9012,5.9012,5.9012,5.9012,5.9012,5.9012,5.9012,5.9012,5.9012,5.9012,5.9012,5.9012,5.9012,5.9012,5.9012,5.8978,5.9012,5.9012,5.9012,5.9012,5.8978,5.9012,5.9012,5.9012,5.8771,5.8392,5.8323,5.8081,5.7633,5.7261,5.6713,5.5924,5.5152,5.4494,5.3924,5.3922,5.3883,5.3776,5.3938,5.4109,5.409,5.4073,5.3931,5.3584,5.3201,5.2757,5.2155,5.1386,5.0728,5.0501,4.999,4.9502,4.9009,4.9038,4.8517,4.7515,4.6596,4.584,4.5206,4.4028,4.2691,4.1324,3.9823,3.7709,3.5256,3.291,3.0359,2.7186,2.3497,1.9768,1.6277,1.2454,0.9211,0.5789,0.1878,-0.2197,-0.5833,-0.9218,-1.2364,-1.5361,-1.8398,-2.109,-2.4038,-2.7093,-3.0083,-3.4584,-3.8622,-4.1063,-4.393,-4.5708,-4.734,-4.8657,-4.9925,-5.1445,-5.2711,-5.3713,-5.479,5.9116,5.9081,5.9081,5.9081,5.9012,5.9012,5.9012,5.9012,5.9012,5.9012,5.9012,5.9012,5.9012,5.9012,5.9012,5.9012,5.9012,5.9012,5.9012,5.9012,5.9012,5.9012,5.9012,5.9012,5.9012,5.9012,5.9012,5.9012,5.9012,5.9012,5.9012,5.9012,5.9012,5.9012,5.9012,5.9012,5.9012,5.9012,5.9012,5.9012,5.9012,5.9012,5.8978,5.8944,5.8909,5.8875,5.8737,5.8357,5.7564,5.6091,5.5122,5.4481,5.4142,5.4319,5.447,5.447,5.4677,5.4685,5.4697,5.4327,5.4017,5.3789,5.3321,5.2846,5.2306,5.1449,5.0728,5.0501,5.0077,4.9589,4.9238,4.9538,4.9239,4.8415,4.7325,4.6435,4.5456,4.4255,4.298,4.152,3.9953,3.8109,3.5275,3.291,3.0201,2.7171,2.3484,1.9908,1.6429,1.2755,0.9211,0.5786,0.2349,-0.2202,-0.6013,-0.895,-1.2103,-1.5441,-1.8484,-2.1678,-2.4831,-2.8019,-3.1437,-3.5924,-3.9634,-4.2214,-4.4343,-4.6001,-4.763,-4.9047,-5.0461,-5.197,-5.3078,-5.3954,-5.4908,6.0392,5.9909,5.9875,5.9564,5.9047,5.9012,5.9012,5.9012,5.9012,5.9012,5.9012,5.9012,5.9012,5.9012,5.9012,5.9012,5.9012,5.9012,5.9012,5.9012,5.9012,5.9012,5.9012,5.9012,5.9012,5.9012,5.9012,5.9012,5.9012,5.9012,5.9012,5.9012,5.9012,5.9012,5.9012,5.9012,5.9012,5.9012,5.9012,5.9012,5.9012,5.9012,5.9012,5.9012,5.9012,5.9012,5.8944,5.8385,5.7707,5.6787,5.604,5.5529,5.5306,5.515,5.5086,5.5069,5.4902,5.4813,5.4729,5.4359,5.4017,5.3789,5.3528,5.3086,5.2306,5.1572,5.0947,5.0589,5.0398,5.0196,4.9781,5.0064,4.9953,4.9009,4.7936,4.6716,4.5658,4.4597,4.3411,4.161,4.0084,3.7955,3.5393,3.291,3.0359,2.7171,2.3484,1.9768,1.6429,1.2762,0.9066,0.6573,0.298,-0.1892,-0.6042,-0.8833,-1.1993,-1.5353,-1.8721,-2.2099,-2.5793,-2.9419,-3.3079,-3.7308,-3.9921,-4.2516,-4.4343,-4.6136,-4.7738,-4.9332,-5.0715,-5.197,-5.3105,-5.4101,-5.5026,6.1047,6.0668,6.0668,6.022,5.953,5.9495,5.9323,5.9047,5.9012,5.9012,5.9012,5.9012,5.9012,5.9012,5.9012,5.9012,5.9012,5.9012,5.9012,5.9012,5.9012,5.9012,5.9012,5.9012,5.9012,5.9012,5.9012,5.9012,5.9012,5.9012,5.9012,5.9012,5.9012,5.9012,5.9012,5.9012,5.9012,5.9012,5.9012,5.9012,5.9012,5.9012,5.9012,5.9012,5.9012,5.8944,5.8736,5.8314,5.7735,5.7105,5.6525,5.6086,5.5927,5.5604,5.5409,5.5409,5.5031,5.4813,5.4729,5.4359,5.4103,5.3876,5.3702,5.3144,5.2549,5.1876,5.1458,5.0943,5.1011,5.0803,5.0338,5.0408,5.015,4.9443,4.8391,4.7212,4.5892,4.4719,4.3255,4.1633,3.9823,3.7975,3.5275,3.291,3.0201,2.7171,2.3497,1.9897,1.6429,1.2601,0.9221,0.6889,0.315,-0.1904,-0.6091,-0.9069,-1.2404,-1.5788,-2.0206,-2.3448,-2.6908,-3.0669,-3.4134,-3.7601,-4.0208,-4.2656,-4.4481,-4.6271,-4.787,-4.9307,-5.0715,-5.197,-5.3105,-5.4101,-5.5026,6.1496,6.1427,6.1427,6.1013,6.0358,6.0289,5.9875,5.9254,5.9219,5.9116,5.9047,5.9012,5.9012,5.9012,5.9012,5.9012,5.9012,5.9012,5.9012,5.9012,5.9012,5.9012,5.9012,5.9012,5.9012,5.9012,5.9012,5.9012,5.9012,5.9012,5.9012,5.9012,5.9012,5.9012,5.9012,5.9012,5.9012,5.9012,5.9012,5.9012,5.9012,5.9012,5.9012,5.9012,5.9012,5.8875,5.8631,5.8243,5.7881,5.7364,5.6558,5.6165,5.6006,5.5572,5.5409,5.5328,5.5031,5.4813,5.4729,5.4359,5.4103,5.4017,5.364,5.3264,5.2793,5.2392,5.1935,5.1503,5.1625,5.1526,5.1138,5.0584,5.0133,4.982,4.8815,4.7677,4.6371,4.4792,4.3177,4.1527,3.9713,3.7575,3.5256,3.2752,3.0201,2.675,2.3201,1.9758,1.6277,1.2447,0.9687,0.7529,0.3161,-0.1919,-0.5814,-0.9475,-1.299,-1.6554,-2.1883,-2.5674,-2.8487,-3.1896,-3.4918,-3.7893,-4.0371,-4.2656,-4.4755,-4.6405,-4.787,-4.9307,-5.0715,-5.197,-5.3227,-5.4101,-5.4936,6.2772,6.222,6.222,6.1772,6.1151,6.1047,6.0634,5.9944,5.9944,5.9633,5.915,5.9012,5.9012,5.9012,5.9012,5.9012,5.9012,5.9012,5.9012,5.9012,5.9012,5.9012,5.9012,5.9012,5.9012,5.9012,5.9012,5.9012,5.9012,5.9012,5.9012,5.9012,5.9012,5.9012,5.9012,5.9012,5.9012,5.9012,5.9012,5.9012,5.9012,5.9012,5.9012,5.9012,5.9012,5.8875,5.8701,5.8419,5.7954,5.7439,5.6757,5.6244,5.5927,5.5572,5.5409,5.5328,5.5031,5.4813,5.4729,5.4359,5.4103,5.4017,5.3702,5.3299,5.3468,5.2695,5.2323,5.2151,5.2296,5.2307,5.208,5.126,5.0518,4.9843,4.8983,4.7703,4.6371,4.4792,4.3153,4.1377,3.943,3.7307,3.4727,3.2193,2.9472,2.6314,2.2892,1.9457,1.5963,1.2454,0.9998,0.769,0.3176,-0.1927,-0.6479,-1.0313,-1.4186,-1.7882,-2.275,-2.6792,-2.9604,-3.2522,-3.5384,-3.7893,-4.0371,-4.2635,-4.4755,-4.654,-4.7894,-4.9307,-5.0715,-5.2094,-5.3227,-5.4101,-5.4936,6.3358,6.3013,6.3013,6.2565,6.191,6.1841,6.1427,6.0806,6.0737,6.0289,5.9668,5.9564,5.9357,5.9012,5.9012,5.9012,5.9012,5.9012,5.9012,5.9012,5.9012,5.9012,5.9012,5.9012,5.9012,5.9012,5.9012,5.9012,5.9012,5.9012,5.9012,5.9012,5.9012,5.9012,5.9012,5.9012,5.9012,5.9012,5.9012,5.9012,5.9012,5.9012,5.9012,5.9012,5.9012,5.8944,5.8771,5.849,5.8099,5.7588,5.6911,5.6369,5.5927,5.5604,5.5409,5.5328,5.5031,5.4813,5.4729,5.4359,5.4103,5.4103,5.389,5.3734,5.3745,5.327,5.3039,5.2889,5.2909,5.2972,5.2623,5.154,5.0656,5.001,4.8868,4.7586,4.613,4.4546,4.3028,4.1248,3.9299,3.7018,3.4552,3.1895,2.9059,2.6168,2.2757,1.9317,1.5981,1.2615,0.9842,0.7076,0.271,-0.1935,-0.6982,-1.1463,-1.5699,-1.9351,-2.3424,-2.6936,-2.9619,-3.2522,-3.5402,-3.7893,-4.0228,-4.2516,-4.464,-4.6271,-4.8026,-4.9565,-5.0968,-5.2218,-5.3322,-5.4314,-5.5144,6.36,6.36,6.36,6.322,6.2703,6.2634,6.222,6.1565,6.1496,6.1047,6.0461,6.0358,5.9978,5.9357,5.9254,5.915,5.9012,5.9012,5.9012,5.9012,5.9012,5.9012,5.9012,5.9012,5.9012,5.9012,5.9012,5.9012,5.9012,5.9012,5.9012,5.9012,5.9012,5.9012,5.9012,5.9012,5.9012,5.9012,5.9012,5.9012,5.9012,5.9012,5.9012,5.9012,5.9012,5.8944,5.884,5.8561,5.8277,5.7662,5.7063,5.6558,5.6086,5.5653,5.5409,5.5409,5.5031,5.4813,5.4729,5.4359,5.4103,5.4134,5.4267,5.4259,5.3991,5.3905,5.3754,5.3567,5.3331,5.302,5.2544,5.1568,5.0544,4.9783,4.8753,4.7442,4.5864,4.4275,4.2776,4.1097,3.8882,3.6634,3.4139,3.1632,2.8757,2.5876,2.246,1.9166,1.5828,1.2628,0.9864,0.6788,0.2722,-0.2764,-0.804,-1.2162,-1.6416,-2.0179,-2.4087,-2.6936,-2.9774,-3.269,-3.5569,-3.7747,-4.0065,-4.2376,-4.4481,-4.6382,-4.8109,-4.9668,-5.1094,-5.2465,-5.3565,-5.4552,-5.5379,6.36,6.36,6.36,6.3531,6.3393,6.3393,6.2944,6.2358,6.2289,6.1841,6.1185,6.1116,6.0703,6.0151,5.9978,5.9668,5.915,5.9012,5.9012,5.9012,5.9012,5.9012,5.9012,5.9012,5.9012,5.9012,5.9012,5.9012,5.9012,5.9012,5.9012,5.9012,5.9012,5.9012,5.9012,5.9012,5.9012,5.9012,5.9012,5.9012,5.9012,5.9012,5.9012,5.9012,5.9012,5.8944,5.8875,5.8597,5.8243,5.7808,5.7289,5.668,5.6165,5.5685,5.5409,5.5328,5.5031,5.4813,5.4729,5.4359,5.4189,5.4175,5.4361,5.4479,5.4421,5.4268,5.4071,5.3774,5.325,5.2652,5.2358,5.1238,5.0208,4.9301,4.8146,4.6849,4.55,4.3903,4.2247,4.0581,3.8353,3.6228,3.3863,3.1192,2.8326,2.5423,2.2174,1.8874,1.554,1.2501,0.9589,0.6511,0.3056,-0.3103,-0.9302,-1.311,-1.6966,-2.0362,-2.3927,-2.6936,-2.9913,-3.2842,-3.5569,-3.762,-3.9941,-4.2376,-4.4458,-4.6382,-4.824,-4.9822,-5.1346,-5.2711,-5.3833,-5.479,-5.5496,6.36,6.36,6.36,6.36,6.36,6.36,6.3393,6.3117,6.3048,6.2634,6.2082,6.1875,6.1496,6.084,6.0323,5.9737,5.9185,5.9012,5.9012,5.9012,5.9012,5.9012,5.9012,5.9012,5.9012,5.9012,5.9012,5.9012,5.9012,5.9012,5.9012,5.9012,5.9012,5.9012,5.9012,5.9012,5.9012,5.9012,5.9012,5.9012,5.9012,5.9012,5.9012,5.9012,5.9012,5.9012,5.8944,5.8701,5.8348,5.7954,5.7364,5.6757,5.629,5.5927,5.5523,5.536,5.5031,5.4813,5.4729,5.4359,5.4229,5.4585,5.4799,5.4945,5.5066,5.4843,5.4357,5.3698,5.3184,5.2437,5.2004,5.1017,5.0096,4.9186,4.7912,4.661,4.5135,4.3529,4.1738,3.9932,3.7955,3.5802,3.3466,3.0768,2.7909,2.4837,2.1739,1.8592,1.5412,1.238,0.9316,0.5115,0.1458,-0.4431,-0.9993,-1.3487,-1.7147,-2.0554,-2.3927,-2.6936,-2.9913,-3.2842,-3.5271,-3.7345,-3.9798,-4.2516,-4.4321,-4.6224,-4.8084,-5.0078,-5.1471,-5.2834,-5.4074,-5.5026,-5.5729,6.36,6.36,6.36,6.36,6.36,6.36,6.36,6.36,6.3565,6.3255,6.2772,6.2668,6.2289,6.1461,6.0599,5.984,5.9219,5.915,5.9012,5.9012,5.9012,5.9012,5.9012,5.9012,5.9012,5.9012,5.9012,5.9012,5.9012,5.9012,5.9012,5.9012,5.9012,5.9012,5.9012,5.9012,5.9012,5.9012,5.9012,5.9012,5.9012,5.9012,5.9012,5.9012,5.9012,5.9012,5.8944,5.8771,5.849,5.8133,5.7514,5.6911,5.648,5.6086,5.5766,5.5442,5.5031,5.4896,5.4761,5.4613,5.4522,5.4844,5.5368,5.5596,5.5337,5.4978,5.4406,5.3319,5.2787,5.2329,5.1677,5.0906,4.987,4.8957,4.7677,4.6345,4.4767,4.3153,4.1377,3.954,3.7554,3.5374,3.3049,3.0643,2.778,2.4703,2.1613,1.8673,1.5487,1.2141,0.8749,0.3864,-0.0816,-0.6282,-1.0837,-1.3501,-1.7138,-2.0554,-2.3927,-2.7107,-2.9913,-3.2859,-3.4954,-3.7217,-3.9962,-4.2516,-4.4298,-4.6201,-4.8347,-5.0181,-5.1695,-5.3078,-5.4194,-5.5261,-5.6077,6.36,6.36,6.36,6.36,6.36,6.36,6.36,6.36,6.36,6.3565,6.3358,6.3393,6.2979,6.2117,6.0875,6.0254,5.9909,5.9426,5.915,5.9185,5.9047,5.9012,5.9012,5.9012,5.9012,5.9012,5.9012,5.9012,5.9012,5.9012,5.9012,5.9012,5.9012,5.9012,5.9012,5.9012,5.9012,5.9012,5.9012,5.9012,5.9012,5.9012,5.9012,5.9012,5.9012,5.9012,5.8944,5.884,5.8561,5.8171,5.7808,5.7139,5.6525,5.6165,5.5846,5.5442,5.5031,5.4813,5.4793,5.4835,5.49,5.5197,5.5684,5.5875,5.5384,5.476,5.4023,5.3213,5.2573,5.2004,5.1348,5.0348,4.9328,4.8262,4.7205,4.5889,4.4422,4.2776,4.0991,3.9014,3.7018,3.469,3.2351,3.0075,2.7635,2.4556,2.1475,1.8551,1.5277,1.1924,0.7565,0.2612,-0.2138,-0.7493,-1.0848,-1.3844,-1.713,-2.0565,-2.3915,-2.7107,-2.9913,-3.269,-3.5121,-3.7492,-4.0228,-4.2516,-4.4161,-4.6201,-4.8477,-5.0436,-5.1819,-5.3227,-5.4341,-5.5379,-5.6279,6.36,6.36,6.36,6.36,6.36,6.36,6.36,6.36,6.36,6.36,6.36,6.36,6.3186,6.2427,6.1703,6.1254,6.0737,6.0013,5.9702,5.9495,5.9288,5.9047,5.9012,5.9012,5.9012,5.9012,5.9012,5.9012,5.9012,5.9012,5.9012,5.9012,5.9012,5.9012,5.9012,5.9012,5.9012,5.9012,5.9012,5.9012,5.9012,5.9012,5.9012,5.9012,5.9012,5.9012,5.8944,5.884,5.8701,5.8314,5.7881,5.7289,5.668,5.6211,5.5927,5.5409,5.5031,5.4813,5.4825,5.5058,5.5184,5.5395,5.5843,5.5838,5.5137,5.4404,5.371,5.2894,5.2358,5.1677,5.0906,4.987,4.8842,4.7677,4.661,4.5281,4.3927,4.2143,4.0473,3.8486,3.6479,3.4277,3.1789,2.9409,2.7129,2.4502,2.1441,1.8365,1.479,1.1124,0.637,0.1163,-0.3668,-0.8382,-1.1037,-1.3686,-1.713,-2.0554,-2.3927,-2.7093,-2.9759,-3.2538,-3.4971,-3.7492,-4.0105,-4.2074,-4.3907,-4.6201,-4.8502,-5.0308,-5.2094,-5.3227,-5.446,-5.5496,-5.6394,6.36,6.36,6.36,6.36,6.36,6.36,6.36,6.36,6.36,6.36,6.36,6.36,6.3289,6.2806,6.253,6.2013,6.1565,6.0806,6.0392,6.0047,5.9668,5.9254,5.9081,5.9012,5.9012,5.9012,5.9012,5.9012,5.9012,5.9012,5.9012,5.9012,5.9012,5.9012,5.9012,5.9012,5.9012,5.9012,5.9012,5.9012,5.9012,5.9012,5.9012,5.9012,5.9012,5.9012,5.8944,5.8909,5.8771,5.8419,5.7954,5.7439,5.6834,5.6369,5.5927,5.5588,5.5306,5.5165,5.5187,5.5375,5.5595,5.5837,5.5844,5.556,5.4869,5.4097,5.35,5.2787,5.2004,5.1348,5.0572,4.9643,4.8495,4.7324,4.613,4.4792,4.3302,4.1633,4.0084,3.8221,3.6209,3.3725,3.1243,2.8898,2.6471,2.4136,2.1231,1.8019,1.4283,1.0292,0.594,0.0837,-0.4356,-0.8562,-1.0882,-1.3679,-1.713,-2.0554,-2.3915,-2.7093,-2.9759,-3.2538,-3.5121,-3.762,-3.9962,-4.2074,-4.3907,-4.6201,-4.8502,-5.0308,-5.197,-5.3227,-5.4433,-5.5584,-5.6623,6.36,6.36,6.36,6.36,6.36,6.36,6.36,6.36,6.36,6.36,6.36,6.36,6.3565,6.3358,6.2875,6.2565,6.2358,6.1599,6.1013,6.0496,6.0082,5.9668,5.9323,5.9116,5.9012,5.9012,5.9012,5.9012,5.9012,5.9012,5.9012,5.9012,5.9012,5.9012,5.9012,5.9012,5.9012,5.9012,5.9012,5.9012,5.9012,5.9012,5.9012,5.9012,5.9012,5.9012,5.9012,5.8944,5.884,5.849,5.8027,5.7588,5.6987,5.6369,5.6006,5.5946,5.5693,5.5645,5.5911,5.6042,5.623,5.6186,5.5984,5.54,5.4713,5.3919,5.329,5.2652,5.1787,5.1128,5.0348,4.9415,4.8146,4.7061,4.5768,4.4422,4.2925,4.1248,3.9561,3.7955,3.586,3.3472,3.1086,2.8758,2.6347,2.4142,2.0242,1.6984,1.3192,0.9269,0.549,0.0839,-0.453,-0.839,-1.0544,-1.3672,-1.713,-2.0554,-2.3768,-2.6779,-2.9619,-3.2369,-3.4971,-3.7326,-3.9674,-4.1792,-4.3907,-4.609,-4.824,-5.0181,-5.1846,-5.32,-5.4552,-5.5729,-5.6737,6.36,6.36,6.36,6.36,6.36,6.36,6.36,6.36,6.36,6.36,6.36,6.36,6.36,6.3496,6.3393,6.3186,6.3048,6.2358,6.1875,6.1323,6.0737,6.0116,5.9668,5.9288,5.9012,5.9012,5.9012,5.9012,5.9012,5.9012,5.9012,5.9012,5.9012,5.9012,5.9012,5.9012,5.9012,5.9012,5.9012,5.9012,5.9012,5.9012,5.9012,5.9012,5.9012,5.9012,5.9012,5.9012,5.8806,5.8456,5.8133,5.7588,5.7063,5.648,5.6203,5.632,5.6047,5.6306,5.6837,5.6931,5.6741,5.6462,5.5993,5.528,5.4509,5.371,5.3078,5.2329,5.1458,5.0683,4.9897,4.8842,4.756,4.661,4.5379,4.3927,4.2489,4.0843,3.9157,3.7536,3.5559,3.3428,3.1003,2.8683,2.6332,2.4009,1.9782,1.5753,1.2043,0.8676,0.5193,0.0839,-0.4533,-0.8223,-1.0544,-1.3844,-1.7147,-2.0382,-2.362,-2.6621,-2.9464,-3.2097,-3.4672,-3.7032,-3.9365,-4.1509,-4.3747,-4.582,-4.7953,-5.0053,-5.1819,-5.3416,-5.4734,-5.5933,-5.6737,6.36,6.36,6.36,6.36,6.36,6.36,6.36,6.36,6.36,6.36,6.36,6.36,6.36,6.36,6.36,6.3565,6.3427,6.3048,6.2703,6.2151,6.1461,6.0668,6.0151,5.9702,5.9323,5.9116,5.9012,5.9012,5.9012,5.9012,5.9012,5.9012,5.9012,5.9012,5.9012,5.9012,5.9012,5.9012,5.9012,5.9012,5.9012,5.9012,5.9012,5.9012,5.9012,5.9012,5.9012,5.9012,5.8806,5.849,5.8133,5.7662,5.7063,5.6624,5.6479,5.6531,5.6666,5.6733,5.742,5.7575,5.7152,5.6673,5.5888,5.5119,5.4304,5.3471,5.2759,5.2221,5.1238,5.0235,4.9556,4.8379,4.7087,4.601,4.4669,4.3349,4.2033,4.0454,3.8688,3.7114,3.5097,3.2924,3.0239,2.774,2.4726,2.2245,1.8818,1.4962,1.1776,0.8531,0.5533,0.0839,-0.4533,-0.7714,-1.0549,-1.3851,-1.7147,-2.0241,-2.346,-2.6319,-2.9153,-3.1944,-3.4539,-3.6904,-3.9241,-4.1509,-4.3609,-4.5685,-4.7821,-4.995,-5.1819,-5.3806,-5.5088,-5.6308,-5.6964,6.36,6.36,6.36,6.36,6.36,6.36,6.36,6.36,6.36,6.36,6.36,6.36,6.36,6.36,6.36,6.36,6.36,6.3496,6.3186,6.2599,6.2186,6.1461,6.0668,6.0082,5.9599,5.9116,5.9012,5.9012,5.9012,5.9012,5.9012,5.9012,5.9012,5.9012,5.9012,5.9012,5.9012,5.9012,5.9012,5.9012,5.9012,5.9012,5.9012,5.9012,5.9012,5.9012,5.9012,5.9012,5.8806,5.849,5.8133,5.7662,5.7214,5.6579,5.6577,5.7005,5.6969,5.7213,5.7828,5.7648,5.7181,5.6669,5.5819,5.4917,5.4304,5.3395,5.2573,5.2113,5.1128,5.0096,4.9072,4.8029,4.673,4.5649,4.4343,4.2824,4.1503,4.0115,3.8473,3.6688,3.4612,3.2363,2.9498,2.6586,2.3008,2.0113,1.7205,1.4167,1.1203,0.804,0.5036,0.0503,-0.4703,-0.7881,-1.0882,-1.3858,-1.6983,-2.0079,-2.314,-2.6175,-2.8842,-3.1469,-3.4203,-3.6756,-3.9096,-4.1105,-4.3331,-4.5549,-4.8133,-5.0742,-5.2492,-5.4286,-5.5584,-5.6652,-5.7164,6.36,6.36,6.36,6.36,6.36,6.36,6.36,6.36,6.36,6.36,6.36,6.36,6.36,6.36,6.36,6.36,6.36,6.36,6.3324,6.3186,6.2772,6.191,6.1082,6.0392,5.9806,5.9219,5.9012,5.9012,5.9012,5.9012,5.9012,5.9012,5.9012,5.9012,5.9012,5.9012,5.9012,5.9012,5.9012,5.9012,5.9012,5.9012,5.9012,5.9012,5.9012,5.9012,5.9012,5.9012,5.8806,5.849,5.8099,5.7662,5.7239,5.6744,5.7069,5.7427,5.7528,5.7707,5.7979,5.7808,5.7244,5.6603,5.572,5.4917,5.4304,5.329,5.2544,5.1787,5.0906,4.987,4.8842,4.7703,4.6591,4.5946,4.4594,4.2921,4.1419,3.9825,3.8266,3.6342,3.4355,3.1345,2.8447,2.5777,2.2418,1.9433,1.6785,1.3672,1.0544,0.7034,0.386,-0.0336,-0.4703,-0.8052,-1.122,-1.4024,-1.6983,-1.9917,-2.2992,-2.603,-2.8686,-3.1162,-3.3751,-3.646,-3.8661,-4.0698,-4.3697,-4.6547,-4.9165,-5.1658,-5.3305,-5.4709,-5.6011,-5.6795,-5.7422,6.36,6.36,6.36,6.36,6.36,6.36,6.36,6.36,6.36,6.36,6.36,6.36,6.36,6.36,6.36,6.36,6.36,6.36,6.36,6.3531,6.3151,6.2255,6.1427,6.0771,6.0013,5.9323,5.9012,5.9012,5.9012,5.9012,5.9012,5.9012,5.9012,5.9012,5.9012,5.9012,5.9012,5.9012,5.9012,5.9012,5.9012,5.9012,5.9012,5.9012,5.9012,5.9012,5.9012,5.8944,5.8806,5.8456,5.8099,5.7588,5.7187,5.714,5.7348,5.7767,5.8226,5.8249,5.8208,5.7746,5.7275,5.67,5.572,5.4815,5.42,5.329,5.2437,5.1568,5.0544,4.9556,4.8548,4.7375,4.6581,4.5917,4.4512,4.2831,4.1386,3.9938,3.8145,3.6324,3.397,3.0819,2.7535,2.4685,2.1823,1.9248,1.65,1.3191,0.9878,0.6366,0.2852,-0.1007,-0.4868,-0.8219,-1.122,-1.4024,-1.6983,-1.9927,-2.282,-2.5885,-2.8374,-3.0854,-3.3583,-3.6146,-3.8535,-4.1209,-4.4706,-4.7724,-5.0293,-5.2256,-5.3771,-5.5139,-5.6378,-5.7196,-5.7915,6.36,6.36,6.36,6.36,6.36,6.36,6.36,6.36,6.36,6.36,6.36,6.36,6.36,6.36,6.36,6.36,6.36,6.36,6.36,6.36,6.3427,6.2496,6.1703,6.1151,6.0254,5.9426,5.9012,5.9012,5.9012,5.9012,5.9012,5.9012,5.9012,5.9012,5.9012,5.9012,5.9012,5.9012,5.9012,5.9012,5.9012,5.9012,5.9012,5.9012,5.9012,5.9012,5.9012,5.8944,5.8806,5.8456,5.8099,5.7588,5.722,5.7094,5.7462,5.7943,5.8631,5.8568,5.8243,5.7684,5.718,5.6603,5.562,5.4815,5.3993,5.3184,5.2221,5.1458,5.046,4.9496,4.8393,4.7573,4.6613,4.5556,4.4324,4.2906,4.1516,4.0059,3.823,3.622,3.3949,3.0993,2.7107,2.4123,2.1545,1.8454,1.5671,1.2529,0.9207,0.6032,0.2515,-0.1175,-0.4868,-0.839,-1.1386,-1.4196,-1.682,-1.9765,-2.2992,-2.5885,-2.8218,-3.0608,-3.3585,-3.6198,-3.8652,-4.1762,-4.5644,-4.8754,-5.1261,-5.3009,-5.4566,-5.5648,-5.6936,-5.794,-5.8726,6.36,6.36,6.36,6.36,6.36,6.36,6.36,6.36,6.36,6.36,6.36,6.36,6.36,6.36,6.36,6.36,6.36,6.36,6.36,6.36,6.3565,6.2565,6.1806,6.1185,6.0323,5.9495,5.9012,5.9012,5.9012,5.9012,5.9012,5.9012,5.9012,5.9012,5.9012,5.9012,5.9012,5.9012,5.9012,5.9012,5.9012,5.9012,5.9012,5.9012,5.9012,5.9012,5.9012,5.9012,5.8806,5.849,5.8099,5.7588,5.69,5.7442,5.8097,5.859,5.8812,5.8701,5.8058,5.7495,5.6988,5.6409,5.5421,5.4641,5.3815,5.2972,5.2113,5.1238,5.0344,4.9427,4.8669,4.7714,4.681,4.583,4.4526,4.3084,4.1625,3.9942,3.8069,3.5591,3.3314,3.0238,2.6346,2.3792,2.105,1.7955,1.4841,1.1866,0.8707,0.553,0.2012,-0.151,-0.5033,-0.8558,-1.1718,-1.4526,-1.6983,-1.9765,-2.2866,-2.5805,-2.8061,-3.0623,-3.3635,-3.6904,-4.0277,-4.35,-4.6912,-4.9607,-5.1975,-5.3818,-5.5364,-5.6431,-5.7398,-5.8565,-5.9597,6.36,6.36,6.36,6.36,6.36,6.36,6.36,6.36,6.36,6.36,6.36,6.36,6.36,6.36,6.36,6.36,6.36,6.36,6.36,6.36,6.36,6.2565,6.1772,6.1185,6.0358,5.953,5.9012,5.9012,5.9012,5.9012,5.9012,5.9012,5.9012,5.9012,5.9012,5.9012,5.9012,5.9012,5.9012,5.9012,5.9012,5.9012,5.9012,5.9012,5.9012,5.9012,5.9012,5.9012,5.8806,5.849,5.8099,5.7514,5.6912,5.7429,5.828,5.8678,5.885,5.8518,5.7965,5.7401,5.6796,5.6115,5.522,5.4436,5.3605,5.2759,5.1868,5.1017,5.0254,4.9488,4.8797,4.8024,4.7178,4.6275,4.4769,4.3255,4.158,3.9881,3.7435,3.4786,3.1912,2.8997,2.6017,2.346,2.0727,1.7474,1.4346,1.1203,0.8207,0.503,0.1677,-0.1846,-0.52,-0.8553,-1.1552,-1.4743,-1.7243,-2.0058,-2.3202,-2.5827,-2.7913,-3.1027,-3.4642,-3.8593,-4.2669,-4.5609,-4.8076,-5.0303,-5.2641,-5.4446,-5.6111,-5.7272,-5.84,-5.9669,-6.0617,6.36,6.36,6.36,6.36,6.36,6.36,6.36,6.36,6.36,6.36,6.36,6.36,6.36,6.36,6.36,6.36,6.36,6.36,6.36,6.36,6.36,6.2772,6.1703,6.122,6.0358,5.9495,5.9012,5.9012,5.9012,5.9012,5.9012,5.9012,5.9012,5.9012,5.9012,5.9012,5.9012,5.9012,5.9012,5.9012,5.9012,5.9012,5.9012,5.9012,5.9012,5.9012,5.9012,5.8944,5.8806,5.849,5.8061,5.7439,5.7285,5.7297,5.8043,5.846,5.8728,5.8335,5.7871,5.7306,5.6603,5.5918,5.5119,5.4097,5.3261,5.2544,5.1677,5.0931,5.0182,4.9614,4.8954,4.8158,4.739,4.6323,4.4821,4.3294,4.1566,3.9365,3.6442,3.3919,3.1315,2.8232,2.5714,2.3164,2.0241,1.6983,1.3901,1.0748,0.7745,0.4719,0.1348,-0.2193,-0.558,-0.8804,-1.1825,-1.487,-1.7548,-2.0385,-2.3388,-2.5899,-2.8075,-3.17,-3.585,-4.0,-4.389,-4.6456,-4.8944,-5.1092,-5.3157,-5.4997,-5.6645,-5.8032,-5.9284,-6.0514,-6.1231,6.36,6.36,6.36,6.36,6.36,6.36,6.36,6.36,6.36,6.36,6.36,6.36,6.36,6.36,6.36,6.36,6.36,6.36,6.36,6.36,6.36,6.2737,6.1565,6.1254,6.0392,5.9461,5.9012,5.9012,5.9012,5.9012,5.9012,5.9012,5.9012,5.9012,5.9012,5.9012,5.9012,5.9012,5.9012,5.9012,5.9012,5.9012,5.9012,5.9012,5.9012,5.9012,5.8944,5.8909,5.8771,5.849,5.7988,5.7783,5.7854,5.7956,5.8309,5.878,5.8701,5.8243,5.7653,5.7084,5.6409,5.562,5.4743,5.3785,5.2943,5.2329,5.1626,5.098,5.0354,4.9823,4.9225,4.8283,4.7394,4.6186,4.4778,4.3171,4.153,3.8476,3.542,3.2994,3.0546,2.7905,2.5396,2.251,1.9592,1.6715,1.3505,1.053,0.7337,0.4276,0.1026,-0.2397,-0.5833,-0.9099,-1.2143,-1.5011,-1.7882,-2.0599,-2.3657,-2.6018,-2.8381,-3.2841,-3.7504,-4.1178,-4.4784,-4.7264,-4.9416,-5.1411,-5.3462,-5.5393,-5.6963,-5.8368,-5.9768,-6.1019,-6.1555,6.36,6.36,6.36,6.36,6.36,6.36,6.36,6.36,6.36,6.36,6.36,6.36,6.36,6.36,6.36,6.36,6.36,6.36,6.36,6.36,6.3358,6.2565,6.1875,6.1254,6.0254,5.9357,5.9081,5.9012,5.9012,5.9012,5.9012,5.9012,5.9012,5.9012,5.9012,5.9012,5.9012,5.9012,5.9012,5.9012,5.9012,5.9012,5.9012,5.9012,5.9012,5.9012,5.8944,5.884,5.8631,5.8341,5.7816,5.783,5.7936,5.8044,5.8382,5.8659,5.8518,5.8058,5.7464,5.6892,5.6213,5.532,5.4539,5.3576,5.263,5.1927,5.1376,5.0709,5.0179,4.9603,4.9186,4.8401,4.7375,4.6154,4.4573,4.2796,4.0371,3.7345,3.4971,3.3011,3.0392,2.7591,2.5066,2.251,1.946,1.6137,1.3075,1.0274,0.7227,0.3991,0.0694,-0.2429,-0.6082,-0.9185,-1.2057,-1.5131,-1.8229,-2.0981,-2.377,-2.7495,-3.0899,-3.5021,-3.9212,-4.2261,-4.5105,-4.7636,-4.97,-5.1583,-5.3649,-5.5525,-5.7092,-5.862,-6.0014,-6.1404,-6.1969,6.3324,6.3427,6.3565,6.36,6.36,6.36,6.36,6.36,6.36,6.36,6.36,6.36,6.36,6.36,6.36,6.36,6.36,6.36,6.36,6.3531,6.3427,6.2565,6.1806,6.1116,6.0116,5.9426,5.9047,5.9012,5.9012,5.9012,5.9012,5.9012,5.9012,5.9012,5.9012,5.9012,5.9012,5.9012,5.9012,5.9012,5.9012,5.9012,5.9012,5.9012,5.9012,5.9012,5.8944,5.884,5.8561,5.8254,5.7873,5.7932,5.8115,5.8216,5.851,5.8696,5.8335,5.7871,5.7401,5.67,5.5918,5.5119,5.4304,5.3453,5.2391,5.1794,5.1254,5.0703,5.0153,4.96,4.9065,4.8392,4.7197,4.5731,4.4068,4.2257,3.9365,3.6479,3.4672,3.2707,3.0068,2.7278,2.4748,2.2189,1.9221,1.5886,1.2972,1.0144,0.7111,0.3851,0.0528,-0.2637,-0.615,-0.9092,-1.2182,-1.5459,-1.8794,-2.1227,-2.4205,-2.8828,-3.3238,-3.6463,-3.9637,-4.2495,-4.5276,-4.7681,-4.9866,-5.1747,-5.3649,-5.5683,-5.7221,-5.862,-6.0137,-6.1404,-6.2204,6.2117,6.2737,6.3324,6.36,6.36,6.36,6.36,6.36,6.36,6.36,6.36,6.36,6.36,6.36,6.36,6.36,6.36,6.36,6.36,6.3565,6.3082,6.2465,6.1705,6.0737,5.9875,5.9357,5.9012,5.9012,5.9012,5.9012,5.9012,5.9012,5.9012,5.9012,5.9012,5.9012,5.9012,5.9012,5.9012,5.9012,5.9012,5.9012,5.9012,5.9012,5.9012,5.9012,5.8944,5.8667,5.849,5.8287,5.8197,5.81,5.8209,5.8355,5.8742,5.8696,5.8243,5.7684,5.718,5.6409,5.562,5.4845,5.3977,5.3202,5.2318,5.1792,5.1285,5.1003,5.0428,4.9819,4.911,4.8224,4.7098,4.5028,4.3236,4.1268,3.8846,3.6479,3.4389,3.2233,2.9774,2.7134,2.4652,2.1989,1.9037,1.5853,1.2974,1.0106,0.7192,0.3893,0.0357,-0.2846,-0.6033,-0.9246,-1.2425,-1.5874,-1.904,-2.1505,-2.4585,-2.9313,-3.3481,-3.6922,-3.9945,-4.2729,-4.5298,-4.7681,-4.9724,-5.1747,-5.3649,-5.5551,-5.7092,-5.862,-6.0137,-6.1404,-6.2204]},{"header":{"parameterUnit":"m.s-1","parameterCategory":1,"la1":31.0,"la2":29.5877,"lo1":-88.7671,"lo2":-86.6584,"dy":0.0162,"dx":0.0185,"nx":115,"ny":88,"refTime":"2024-03-21T12:00:00:Z","depth":0,"parameterNumber":3,"parameterNumberName":"V-component_of_WINDS"},"data":[0.0,0.0,0.0,0.0,0.0,0.0,0.0,0.0,0.0,0.0,0.0,0.0,0.0,0.0,0.0,0.0,0.0,0.0,0.0,0.0,0.0,0.0,0.0,0.0,0.0,0.0,0.0,0.0,0.0,0.0,0.0,0.0,0.0,0.0,0.0,0.0,0.0,0.0,0.0,0.0,0.0,0.0,0.0,0.0,0.0,0.0,0.0,0.0,0.0,0.0,0.0,0.0,0.0,0.0,0.0,0.0,0.0,0.0,0.0,0.0,0.0,0.0,0.0,0.0,0.0,0.0,0.0,0.0,0.0,0.0,0.0,0.0,0.0,0.0,0.0,0.0,0.0,0.0,0.0,0.0,0.0,0.0,0.0,0.0,0.0,0.0,0.0,0.0,0.0,0.0,0.0,0.0,0.0,0.0,0.0,0.0,0.0,0.0,0.0,0.0,0.0,0.0,0.0,0.0,0.0,0.0,0.0,0.0,0.0,0.0,0.0,0.0,0.0,0.0,0.0,0.0,0.0,0.0,0.0,0.0,0.0,0.0,0.0,0.0,0.0,0.0,0.0,0.0,0.0,0.0,0.0,0.0,0.0,0.0,0.0,0.0,0.0,0.0,0.0,0.0,0.0,0.0,0.0,0.0,0.0,0.0,0.0,0.0,0.0,0.0,0.0,0.0,0.0,0.0,0.0,0.0,0.0,0.0,0.0,0.0,0.0,0.0,0.0,0.0,0.0,0.0,0.0,0.0,0.0,0.0,0.0,0.0,0.0,0.0,0.0,0.0,0.0,0.0,0.0,0.0,0.0,0.0,0.0,0.0,0.0,0.0,0.0,0.0,0.0,0.0,0.0,0.0,0.0,0.0,0.0,0.0,0.0,0.0,0.0,0.0,0.0,0.0,0.0,0.0,0.0,0.0,0.0,0.0,0.0,0.0,0.0,0.0,0.0,0.0,0.0,0.0,0.0,0.0,0.0,0.0,0.0,0.0,0.0,0.0,0.0,0.0,0.0,0.0,0.0,0.0,0.0,0.0,0.0,0.0,0.0,0.0,0.0,0.0,0.0,0.0,0.0,0.0,0.0,0.0,0.0,0.0,0.0,0.0,0.0,0.0,0.0,0.0,0.0,0.0,0.0,0.0,0.0,0.0,0.0,0.0,0.0,0.0,0.0,0.0,0.0,0.0,0.0,0.0,0.0,0.0,0.0,0.0,0.0,0.0,0.0,0.0,0.0,0.0,0.0,0.0,0.0,0.0,0.0,0.0,0.0,0.0,0.0,0.0,0.0,0.0,0.0,0.0,0.0,0.0,0.0,0.0,0.0,0.0,0.0,0.0,0.0,0.0,0.0,0.0,0.0,0.0,0.0,0.0,0.0,0.0,0.0,0.0,0.0,0.0,0.0,0.0,0.0,0.0,0.0,0.0,0.0,0.0,0.0,0.0,0.0,0.0,0.0,0.0,0.0,0.0,0.0,0.0,0.0,0.0,0.0,0.0,0.0,0.0,0.0,0.0,0.0,0.0,0.0,0.0,0.0,0.0,0.0,0.0,0.0,0.0,0.0,0.0,0.0,0.0,0.0,0.0,0.0,0.0,0.0,0.0,0.0,0.0,0.0,0.0,0.0,0.0,0.0,0.0,0.0,0.0,0.0,0.0,0.0,0.0,0.0,0.0,0.0,0.0,0.0,0.0,0.0,0.0,0.0,0.0,0.0,0.0,0.0,0.0,0.0,0.0,0.0,0.0,0.0,0.0,0.0,0.0,0.0,0.0,0.0,0.0,0.0,0.0,0.0,0.0,0.0,0.0,0.0,0.0,0.0,0.0,0.0,0.0,0.0,0.0,0.0,0.0,0.0,0.0,0.0,0.0,0.0,0.0,0.0,0.0,0.0,0.0,0.0,0.0,0.0,0.0,0.0,0.0,0.0,0.0,0.0,0.0,0.0,0.0,0.0,0.0,0.0,0.0,0.0,0.0,0.0,0.0,0.0,0.0,0.0,0.0,0.0,0.0,0.0,0.0,0.0,0.0,0.0,0.0,0.0,0.0,0.0,0.0,0.0,0.0,0.0,0.0,0.0,0.0,0.0,0.0,0.0,0.0,0.0,0.0,0.0,0.0,0.0,0.0,0.0,0.0,0.0,0.0,0.0,0.0,0.0,0.0,0.0,0.0,0.0,0.0,0.0,0.0,0.0,0.0,0.0,0.0,0.0,0.0,0.0,0.0,0.0,0.0,0.0,0.0,0.0,0.0,0.0,0.0,0.0,0.0,0.0,0.0,0.0,0.0,0.0,0.0,0.0,0.0,0.0,0.0,0.0,0.0,0.0,0.0,0.0,0.0,0.0,0.0,0.0,0.0,0.0,0.0,0.0,0.0,0.0,0.0,0.0,0.0,0.0,0.0,0.0,0.0,0.0,0.0,0.0,0.0,0.0,0.0,0.0,0.0,0.0,0.0,0.0,0.0,0.0,0.0,0.0,0.0,0.0,0.0,0.0,0.0,0.0,0.0,0.0,0.0,0.0,0.0,0.0,0.0,0.0,0.0,0.0,0.0,0.0,0.0,0.0,0.0,0.0,0.0,0.0,0.0,0.0,0.0,0.0,0.0,0.0,0.0,0.0,0.0,0.0,0.0,0.0,0.0,0.0,0.0,0.0,0.0,0.0,0.0,0.0,0.0,0.0,0.0,0.0,0.0,0.0,0.0,0.0,0.0,0.0,0.0,0.0,0.0,0.0,0.0,0.0,0.0,0.0,0.0,0.0,0.0,0.0,0.0,0.0,0.0,0.0,0.0,0.0,0.0,0.0,0.0,0.0,0.0,0.0,0.0,0.0,0.0,0.0,0.0,0.0,0.0,0.0,0.0,0.0,0.0,0.0,0.0,0.0,0.0,0.0,0.0,0.0,0.0,0.0,0.0,0.0,0.0,0.0,0.0,0.0,0.0,0.0,0.0,0.0,0.0,0.0,0.0,0.0,0.0,0.0,0.0,0.0,0.0,0.0,0.0,0.0,0.0,0.0,0.0,0.0,0.0,0.0,0.0,0.0,0.0,0.0,0.0,0.0,0.0,0.0,0.0,0.0,0.0,0.0,0.0,0.0,0.0,0.0,0.0,0.0,0.0,0.0,0.0,0.0,0.0,0.0,0.0,0.0,0.0,0.0,0.0,0.0,0.0,0.0,0.0,0.0,0.0,0.0,0.0,0.0,0.0,0.0,0.0,0.0,0.0,0.0,0.0,0.0,0.0,0.0,0.0,0.0,0.0,0.0,0.0,0.0,0.0,0.0,0.0,0.0,0.0,0.0,0.0,0.0,0.0,0.0,0.0,0.0,0.0,0.0,0.0,0.0,0.0,0.0,0.0,0.0,0.0,0.0,0.0,0.0,0.0,0.0,0.0,0.0,0.0,0.0,0.0,0.0,0.0,0.0,0.0,0.0,0.0,0.0,0.0,0.0,0.0,0.0,0.0,0.0,0.0,0.0,0.0,0.0,0.0,0.0,0.0,0.0,0.0,0.0,0.0,0.0,0.0,0.0,0.0,0.0,0.0,0.0,0.0,0.0,0.0,0.0,0.0,0.0,0.0,0.0,0.0,0.0,0.0,0.0,0.0,0.0,0.0,0.0,0.0,0.0,0.0,0.0,0.0,0.0,0.0,0.0,0.0,0.0,0.0,0.0,0.0,0.0,0.0,0.0,0.0,0.0,0.0,0.0,0.0,0.0,0.0,0.0,0.0,0.0,0.0,0.0,0.0,0.0,0.0,0.0,0.0,0.0,0.0,0.0,0.0,0.0,0.0,0.0,0.0,0.0,0.0,0.0,0.0,0.0,0.0,0.0,0.0,0.0,0.0,0.0,0.0,0.0,0.0,0.0,0.0,0.0,0.0,0.0,0.0,0.0,0.0,0.0,0.0,0.0,0.0,0.0,0.0,0.0,0.0,0.0,0.0,0.0,0.0,0.0,0.0,0.0,0.0,0.0,0.0,0.0,0.0,0.0,0.0,0.0,0.0,0.0,0.0,0.0,0.0,0.0,0.0,0.0,0.0,0.0,0.0,0.0,0.0,0.0,0.0,0.0,0.0,0.0,0.0,0.0,0.0,0.0,0.0,0.0,0.0,0.0,0.0,0.0,0.0,0.0,0.0,0.0,0.0,0.0,0.0,0.0,0.0,0.0,0.0,0.0,0.0,0.0,0.0,0.0,0.0,0.0,0.0,0.0,0.0,0.0,0.0,0.0,0.0,0.0,0.0,0.0,0.0,0.0,0.0,0.0,0.0,0.0,0.0,0.0,0.0,-1.865,0.0,0.0,0.0,0.0,0.0,0.0,0.0,0.0,0.0,0.0,0.0,0.0,0.0,0.0,0.0,0.0,0.0,0.0,0.0,0.0,0.0,0.0,0.0,0.0,0.0,0.0,0.0,0.0,0.0,0.0,0.0,0.0,0.0,0.0,0.0,0.0,0.0,0.0,0.0,0.0,0.0,0.0,0.0,0.0,0.0,0.0,0.0,0.0,0.0,0.0,0.0,0.0,0.0,0.0,0.0,0.0,0.0,0.0,0.0,0.0,0.0,0.0,0.0,0.0,0.0,0.0,0.0,0.0,0.0,0.0,0.0,0.0,0.0,0.0,0.0,0.0,0.0,0.0,0.0,0.0,0.0,0.0,0.0,0.0,0.0,0.0,0.0,0.0,0.0,0.0,0.0,0.0,0.0,0.0,0.0,0.0,0.0,0.0,0.0,0.0,0.0,0.0,0.0,0.0,0.0,0.0,0.0,0.0,0.0,0.0,-1.9641,-1.9641,-1.9641,-1.9567,-1.9366,0.0,0.0,0.0,0.0,0.0,0.0,0.0,0.0,0.0,0.0,0.0,0.0,0.0,0.0,0.0,0.0,0.0,0.0,0.0,0.0,0.0,0.0,0.0,0.0,0.0,0.0,0.0,0.0,0.0,0.0,0.0,0.0,0.0,0.0,0.0,0.0,0.0,0.0,0.0,0.0,0.0,0.0,0.0,0.0,0.0,0.0,0.0,0.0,0.0,0.0,0.0,0.0,0.0,0.0,0.0,0.0,0.0,0.0,0.0,0.0,0.0,0.0,0.0,0.0,0.0,0.0,0.0,0.0,0.0,0.0,0.0,0.0,0.0,0.0,0.0,0.0,0.0,0.0,0.0,0.0,0.0,0.0,0.0,0.0,0.0,0.0,0.0,0.0,0.0,0.0,0.0,0.0,0.0,0.0,0.0,0.0,0.0,0.0,0.0,0.0,0.0,0.0,0.0,0.0,0.0,0.0,0.0,0.0,0.0,0.0,0.0,0.0,-2.0063,-2.0026,-1.9897,0.0,0.0,0.0,0.0,0.0,0.0,0.0,0.0,0.0,0.0,0.0,0.0,0.0,0.0,0.0,0.0,0.0,0.0,0.0,0.0,0.0,0.0,0.0,0.0,0.0,0.0,0.0,0.0,0.0,0.0,0.0,0.0,0.0,0.0,0.0,0.0,0.0,0.0,0.0,0.0,0.0,0.0,0.0,0.0,0.0,0.0,0.0,0.0,0.0,0.0,0.0,0.0,0.0,0.0,0.0,0.0,0.0,0.0,0.0,0.0,0.0,0.0,0.0,0.0,0.0,0.0,0.0,0.0,0.0,0.0,0.0,0.0,0.0,0.0,0.0,0.0,0.0,0.0,0.0,0.0,0.0,0.0,0.0,0.0,0.0,0.0,0.0,0.0,0.0,0.0,0.0,0.0,0.0,0.0,0.0,0.0,0.0,0.0,0.0,0.0,0.0,0.0,0.0,0.0,0.0,0.0,0.0,0.0,0.0,0.0,-2.0099,-2.0448,-2.0466,0.0,-1.9897,0.0,0.0,0.0,0.0,0.0,0.0,0.0,0.0,0.0,0.0,0.0,0.0,0.0,0.0,0.0,0.0,0.0,0.0,0.0,0.0,0.0,0.0,0.0,0.0,0.0,0.0,0.0,0.0,0.0,0.0,0.0,0.0,0.0,0.0,0.0,0.0,0.0,0.0,0.0,0.0,0.0,0.0,0.0,0.0,0.0,0.0,0.0,0.0,0.0,0.0,0.0,0.0,0.0,0.0,0.0,0.0,0.0,0.0,0.0,0.0,0.0,0.0,0.0,0.0,0.0,0.0,0.0,0.0,0.0,0.0,0.0,0.0,0.0,0.0,0.0,0.0,0.0,0.0,0.0,0.0,0.0,0.0,0.0,0.0,0.0,0.0,0.0,0.0,0.0,0.0,0.0,0.0,0.0,0.0,0.0,0.0,0.0,0.0,0.0,0.0,0.0,0.0,0.0,0.0,0.0,0.0,0.0,0.0,0.0,0.0,-2.0704,-2.0869,-2.0649,-2.0338,0.0,0.0,0.0,0.0,0.0,0.0,0.0,0.0,0.0,0.0,0.0,0.0,0.0,0.0,0.0,0.0,0.0,0.0,0.0,0.0,0.0,0.0,0.0,0.0,0.0,0.0,0.0,0.0,0.0,0.0,0.0,0.0,0.0,0.0,0.0,0.0,0.0,0.0,0.0,0.0,0.0,0.0,0.0,0.0,0.0,0.0,0.0,0.0,0.0,0.0,0.0,0.0,0.0,0.0,0.0,0.0,0.0,0.0,0.0,0.0,0.0,0.0,0.0,0.0,0.0,0.0,0.0,0.0,0.0,0.0,0.0,0.0,0.0,0.0,0.0,0.0,0.0,0.0,0.0,0.0,0.0,0.0,0.0,0.0,0.0,0.0,0.0,0.0,0.0,0.0,0.0,0.0,0.0,0.0,0.0,0.0,0.0,0.0,0.0,0.0,0.0,0.0,0.0,0.0,0.0,0.0,0.0,0.0,0.0,0.0,-2.0759,-2.1163,-2.1255,-2.0888,-2.0503,-2.0099,0.0,0.0,0.0,0.0,0.0,0.0,0.0,0.0,0.0,0.0,0.0,0.0,0.0,0.0,0.0,0.0,0.0,0.0,0.0,0.0,0.0,0.0,0.0,0.0,0.0,0.0,0.0,0.0,0.0,0.0,0.0,0.0,0.0,0.0,0.0,0.0,0.0,0.0,0.0,0.0,0.0,0.0,0.0,0.0,0.0,0.0,0.0,0.0,0.0,0.0,0.0,0.0,0.0,0.0,0.0,0.0,0.0,0.0,0.0,0.0,0.0,0.0,0.0,0.0,0.0,0.0,0.0,0.0,0.0,0.0,0.0,0.0,0.0,0.0,0.0,0.0,0.0,0.0,0.0,0.0,0.0,0.0,0.0,0.0,0.0,0.0,0.0,0.0,0.0,0.0,0.0,0.0,0.0,0.0,0.0,0.0,0.0,0.0,0.0,0.0,0.0,0.0,0.0,0.0,0.0,0.0,0.0,0.0,-2.0484,-2.0906,-2.131,-2.1676,-2.1291,-2.0906,0.0,0.0,0.0,0.0,0.0,0.0,0.0,0.0,0.0,0.0,0.0,0.0,0.0,0.0,0.0,0.0,0.0,0.0,0.0,0.0,0.0,0.0,0.0,0.0,0.0,0.0,0.0,0.0,0.0,0.0,0.0,0.0,0.0,0.0,0.0,0.0,0.0,0.0,0.0,0.0,0.0,0.0,0.0,0.0,0.0,0.0,0.0,0.0,0.0,0.0,0.0,0.0,0.0,0.0,0.0,0.0,0.0,0.0,0.0,0.0,0.0,0.0,0.0,0.0,0.0,0.0,0.0,0.0,0.0,0.0,0.0,0.0,0.0,0.0,0.0,0.0,0.0,0.0,0.0,0.0,0.0,0.0,0.0,0.0,0.0,0.0,0.0,0.0,0.0,0.0,0.0,0.0,0.0,0.0,0.0,0.0,0.0,0.0,0.0,0.0,0.0,0.0,0.0,0.0,0.0,0.0,0.0,0.0,0.0,-2.0539,-2.1163,-2.1585,-2.1713,-2.1328,-2.0924,0.0,0.0,0.0,0.0,0.0,0.0,0.0,0.0,0.0,0.0,0.0,0.0,0.0,0.0,0.0,0.0,0.0,0.0,0.0,0.0,0.0,0.0,0.0,0.0,0.0,0.0,0.0,0.0,0.0,0.0,0.0,0.0,0.0,0.0,0.0,0.0,0.0,0.0,0.0,0.0,0.0,0.0,0.0,0.0,0.0,0.0,0.0,0.0,0.0,0.0,0.0,0.0,0.0,0.0,0.0,0.0,0.0,0.0,0.0,0.0,0.0,0.0,0.0,0.0,0.0,0.0,0.0,0.0,0.0,0.0,0.0,0.0,0.0,0.0,0.0,0.0,0.0,0.0,0.0,0.0,0.0,0.0,0.0,0.0,0.0,0.0,0.0,0.0,0.0,0.0,0.0,0.0,0.0,0.0,0.0,0.0,0.0,0.0,0.0,0.0,0.0,0.0,0.0,0.0,0.0,0.0,0.0,0.0,0.0,-2.0924,0.0,-2.186,-2.1731,-2.1585,-2.1181,0.0,0.0,0.0,0.0,0.0,0.0,0.0,0.0,0.0,0.0,0.0,0.0,0.0,0.0,0.0,0.0,0.0,0.0,0.0,0.0,0.0,0.0,0.0,0.0,0.0,0.0,0.0,0.0,0.0,0.0,0.0,0.0,0.0,0.0,0.0,0.0,0.0,0.0,0.0,0.0,0.0,0.0,0.0,0.0,0.0,0.0,0.0,0.0,0.0,0.0,0.0,0.0,0.0,0.0,0.0,0.0,0.0,0.0,0.0,0.0,0.0,0.0,0.0,0.0,0.0,0.0,0.0,0.0,0.0,0.0,0.0,0.0,0.0,0.0,0.0,0.0,0.0,0.0,0.0,0.0,0.0,0.0,0.0,0.0,0.0,0.0,0.0,0.0,0.0,0.0,0.0,0.0,0.0,0.0,0.0,0.0,0.0,0.0,0.0,0.0,0.0,0.0,0.0,0.0,0.0,0.0,0.0,0.0,-2.0943,-2.1695,-2.2116,-2.2135,-2.1697,-2.2116,-2.175,0.0,0.0,0.0,0.0,0.0,0.0,0.0,0.0,0.0,0.0,0.0,0.0,0.0,0.0,0.0,0.0,0.0,0.0,0.0,0.0,0.0,0.0,0.0,0.0,0.0,0.0,0.0,0.0,0.0,0.0,0.0,0.0,0.0,0.0,0.0,0.0,0.0,0.0,0.0,0.0,0.0,0.0,0.0,0.0,0.0,0.0,0.0,0.0,0.0,0.0,0.0,0.0,0.0,0.0,0.0,0.0,0.0,0.0,0.0,0.0,0.0,0.0,0.0,0.0,0.0,0.0,0.0,0.0,0.0,0.0,0.0,0.0,0.0,0.0,0.0,0.0,0.0,0.0,0.0,0.0,0.0,0.0,0.0,0.0,0.0,0.0,0.0,0.0,0.0,0.0,0.0,0.0,0.0,0.0,0.0,0.0,0.0,0.0,0.0,0.0,0.0,0.0,0.0,0.0,0.0,0.0,0.0,0.0,0.0,-2.2135,-2.2263,-2.241,-2.2464,-2.241,-2.1896,0.0,0.0,0.0,0.0,0.0,0.0,0.0,0.0,0.0,0.0,0.0,0.0,0.0,0.0,0.0,0.0,0.0,0.0,0.0,0.0,0.0,0.0,0.0,0.0,0.0,0.0,0.0,0.0,0.0,0.0,0.0,0.0,0.0,0.0,0.0,0.0,0.0,0.0,0.0,0.0,0.0,0.0,0.0,0.0,0.0,0.0,0.0,0.0,0.0,0.0,0.0,0.0,0.0,0.0,0.0,0.0,0.0,0.0,0.0,0.0,0.0,0.0,0.0,0.0,0.0,0.0,0.0,0.0,0.0,0.0,0.0,0.0,0.0,0.0,0.0,0.0,0.0,0.0,0.0,0.0,0.0,0.0,0.0,0.0,0.0,0.0,0.0,0.0,0.0,0.0,0.0,0.0,0.0,0.0,0.0,0.0,0.0,0.0,0.0,0.0,0.0,0.0,0.0,0.0,0.0,0.0,0.0,0.0,0.0,-2.2758,-2.2777,-2.2832,-2.2866,-2.2703,-2.2171,-2.1383,0.0,0.0,0.0,0.0,0.0,0.0,0.0,0.0,0.0,0.0,0.0,0.0,0.0,0.0,0.0,0.0,0.0,0.0,0.0,0.0,0.0,0.0,0.0,0.0,0.0,0.0,0.0,0.0,0.0,0.0,0.0,0.0,0.0,0.0,0.0,0.0,0.0,0.0,0.0,0.0,0.0,0.0,0.0,0.0,0.0,0.0,0.0,0.0,0.0,0.0,0.0,0.0,0.0,0.0,0.0,0.0,0.0,0.0,0.0,0.0,0.0,0.0,0.0,0.0,0.0,0.0,0.0,0.0,0.0,0.0,0.0,0.0,0.0,0.0,0.0,0.0,0.0,0.0,0.0,0.0,0.0,0.0,0.0,0.0,0.0,0.0,0.0,0.0,0.0,0.0,0.0,0.0,0.0,0.0,0.0,0.0,0.0,0.0,0.0,0.0,0.0,0.0,0.0,0.0,0.0,0.0,0.0,0.0,-2.3565,-2.362,-2.3474,-2.2994,-2.2957,-2.2537,0.0,0.0,0.0,0.0,0.0,0.0,0.0,0.0,0.0,0.0,0.0,0.0,0.0,0.0,0.0,0.0,0.0,0.0,0.0,0.0,0.0,0.0,0.0,0.0,0.0,0.0,0.0,0.0,0.0,0.0,0.0,0.0,0.0,0.0,0.0,0.0,0.0,0.0,0.0,0.0,0.0,0.0,0.0,0.0,0.0,0.0,0.0,0.0,0.0,0.0,0.0,0.0,0.0,0.0,0.0,0.0,0.0,0.0,0.0,0.0,0.0,0.0,0.0,0.0,0.0,0.0,0.0,0.0,0.0,0.0,0.0,0.0,0.0,0.0,0.0,0.0,0.0,0.0,0.0,0.0,0.0,0.0,0.0,0.0,0.0,0.0,0.0,0.0,0.0,0.0,0.0,0.0,0.0,0.0,0.0,0.0,0.0,0.0,0.0,0.0,0.0,0.0,0.0,0.0,0.0,0.0,0.0,0.0,0.0,-2.3987,-2.4574,-2.4702,-2.4317,-2.4005,-2.3308,0.0,0.0,0.0,0.0,0.0,0.0,0.0,0.0,0.0,0.0,0.0,0.0,0.0,0.0,0.0,0.0,0.0,0.0,0.0,0.0,0.0,0.0,0.0,0.0,0.0,0.0,0.0,0.0,0.0,0.0,0.0,0.0,0.0,0.0,0.0,0.0,0.0,0.0,0.0,0.0,0.0,0.0,0.0,0.0,0.0,0.0,0.0,0.0,0.0,0.0,0.0,0.0,0.0,0.0,0.0,0.0,0.0,0.0,0.0,0.0,0.0,0.0,0.0,0.0,0.0,0.0,0.0,0.0,0.0,0.0,0.0,0.0,0.0,0.0,0.0,0.0,0.0,0.0,0.0,0.0,0.0,0.0,0.0,0.0,0.0,0.0,0.0,0.0,0.0,0.0,0.0,0.0,0.0,0.0,0.0,0.0,0.0,0.0,0.0,0.0,0.0,0.0,0.0,0.0,0.0,0.0,0.0,0.0,-2.3822,-2.4409,-2.5197,-2.5509,-2.5271,-2.4537,-2.3749,0.0,0.0,0.0,0.0,0.0,0.0,0.0,0.0,0.0,0.0,0.0,0.0,0.0,0.0,0.0,0.0,0.0,0.0,0.0,0.0,0.0,0.0,0.0,0.0,0.0,0.0,0.0,0.0,0.0,0.0,0.0,0.0,0.0,0.0,0.0,0.0,0.0,0.0,0.0,0.0,0.0,0.0,0.0,0.0,0.0,0.0,0.0,0.0,0.0,0.0,0.0,0.0,0.0,0.0,0.0,0.0,0.0,0.0,0.0,0.0,0.0,0.0,0.0,0.0,0.0,0.0,0.0,0.0,0.0,0.0,0.0,0.0,0.0,0.0,0.0,0.0,0.0,0.0,0.0,0.0,0.0,0.0,0.0,0.0,0.0,0.0,0.0,0.0,0.0,0.0,0.0,0.0,0.0,0.0,0.0,0.0,0.0,0.0,0.0,0.0,0.0,0.0,0.0,0.0,0.0,0.0,0.0,0.0,-2.4005,-2.4831,-2.5619,-2.6023,-2.5986,-2.4886,-2.4042,0.0,0.0,0.0,0.0,0.0,0.0,0.0,0.0,0.0,0.0,0.0,0.0,0.0,0.0,0.0,0.0,0.0,0.0,0.0,0.0,0.0,0.0,0.0,0.0,0.0,0.0,0.0,0.0,0.0,0.0,0.0,0.0,0.0,0.0,0.0,0.0,0.0,0.0,0.0,0.0,0.0,0.0,0.0,0.0,0.0,0.0,0.0,0.0,0.0,0.0,0.0,0.0,0.0,0.0,0.0,0.0,0.0,0.0,0.0,0.0,0.0,0.0,0.0,0.0,0.0,0.0,0.0,0.0,0.0,0.0,0.0,0.0,0.0,0.0,0.0,0.0,0.0,0.0,0.0,0.0,0.0,0.0,0.0,0.0,0.0,0.0,0.0,0.0,0.0,0.0,0.0,0.0,0.0,0.0,0.0,0.0,0.0,0.0,0.0,0.0,0.0,0.0,0.0,0.0,0.0,0.0,0.0,0.0,-2.4409,-2.5234,-2.6041,-2.6463,-2.6444,-2.5582,-2.4611,0.0,0.0,0.0,0.0,0.0,0.0,0.0,0.0,0.0,0.0,0.0,0.0,0.0,0.0,0.0,0.0,0.0,0.0,0.0,0.0,0.0,0.0,0.0,0.0,0.0,0.0,0.0,0.0,0.0,0.0,0.0,0.0,0.0,0.0,0.0,0.0,0.0,0.0,0.0,0.0,0.0,0.0,0.0,0.0,0.0,0.0,0.0,0.0,-4.5047,0.0,0.0,0.0,0.0,0.0,0.0,0.0,0.0,0.0,0.0,0.0,0.0,0.0,0.0,0.0,0.0,0.0,0.0,0.0,0.0,0.0,0.0,0.0,0.0,0.0,0.0,0.0,0.0,0.0,0.0,0.0,0.0,0.0,0.0,0.0,0.0,0.0,0.0,0.0,0.0,0.0,0.0,0.0,0.0,0.0,0.0,0.0,0.0,0.0,0.0,0.0,0.0,0.0,0.0,0.0,0.0,0.0,0.0,0.0,-2.4757,-2.5362,-2.6169,-2.6591,-2.6554,-2.5803,-2.4875,0.0,0.0,0.0,0.0,0.0,0.0,0.0,0.0,0.0,0.0,0.0,0.0,0.0,0.0,0.0,0.0,0.0,0.0,0.0,0.0,0.0,0.0,0.0,0.0,0.0,0.0,0.0,0.0,0.0,0.0,0.0,0.0,0.0,0.0,0.0,0.0,0.0,0.0,0.0,0.0,0.0,0.0,0.0,0.0,0.0,0.0,0.0,0.0,0.0,0.0,0.0,0.0,0.0,0.0,0.0,0.0,0.0,0.0,0.0,0.0,0.0,0.0,0.0,0.0,0.0,0.0,0.0,0.0,0.0,0.0,0.0,0.0,0.0,0.0,0.0,0.0,0.0,0.0,0.0,0.0,0.0,0.0,0.0,0.0,0.0,0.0,0.0,0.0,0.0,0.0,0.0,0.0,0.0,0.0,0.0,0.0,0.0,0.0,0.0,0.0,0.0,0.0,0.0,0.0,0.0,0.0,0.0,-2.4189,-2.4996,-2.5472,-2.6206,-2.6591,-2.6573,-2.5803,-2.5039,-2.4278,0.0,0.0,0.0,0.0,0.0,0.0,0.0,0.0,0.0,0.0,0.0,0.0,0.0,0.0,0.0,0.0,0.0,0.0,0.0,0.0,0.0,0.0,0.0,0.0,0.0,0.0,0.0,0.0,0.0,0.0,0.0,0.0,0.0,0.0,0.0,0.0,0.0,0.0,-3.5748,-4.0086,0.0,0.0,0.0,0.0,0.0,0.0,0.0,0.0,-4.8399,0.0,0.0,0.0,0.0,0.0,0.0,0.0,0.0,0.0,0.0,0.0,0.0,0.0,0.0,0.0,0.0,0.0,0.0,0.0,0.0,0.0,0.0,0.0,0.0,0.0,0.0,0.0,0.0,0.0,0.0,0.0,0.0,0.0,0.0,0.0,0.0,0.0,0.0,0.0,0.0,0.0,0.0,0.0,0.0,0.0,0.0,0.0,0.0,0.0,0.0,0.0,0.0,0.0,0.0,0.0,0.0,-2.3437,-2.4335,-2.5142,-2.5839,-2.6334,-2.6591,-2.6573,-2.5803,-2.5014,-2.4162,0.0,0.0,0.0,0.0,0.0,0.0,0.0,0.0,0.0,0.0,0.0,0.0,0.0,0.0,0.0,0.0,0.0,0.0,0.0,0.0,0.0,0.0,0.0,0.0,0.0,0.0,0.0,0.0,0.0,0.0,0.0,0.0,0.0,0.0,0.0,0.0,0.0,0.0,0.0,-4.2819,-4.607,0.0,0.0,0.0,0.0,0.0,0.0,0.0,0.0,-4.9423,0.0,0.0,0.0,0.0,0.0,0.0,0.0,0.0,0.0,0.0,0.0,0.0,0.0,0.0,0.0,0.0,0.0,0.0,0.0,0.0,0.0,0.0,0.0,0.0,0.0,0.0,0.0,0.0,0.0,0.0,0.0,0.0,0.0,0.0,0.0,0.0,0.0,0.0,0.0,0.0,0.0,0.0,0.0,0.0,0.0,0.0,0.0,0.0,0.0,0.0,0.0,0.0,0.0,0.0,0.0,-2.351,-2.4556,-2.5381,-2.5949,-2.6371,-2.6591,-2.6573,-2.5803,-2.4977,0.0,0.0,0.0,0.0,0.0,0.0,0.0,0.0,0.0,0.0,0.0,0.0,0.0,0.0,0.0,0.0,0.0,0.0,0.0,0.0,0.0,0.0,0.0,0.0,0.0,0.0,0.0,0.0,0.0,0.0,0.0,0.0,0.0,0.0,0.0,0.0,0.0,0.0,0.0,0.0,-4.3863,-4.6696,-4.9647,0.0,0.0,0.0,0.0,0.0,0.0,-5.2701,-5.202,0.0,0.0,0.0,0.0,0.0,0.0,0.0,0.0,0.0,0.0,0.0,0.0,0.0,0.0,0.0,0.0,0.0,0.0,0.0,0.0,0.0,0.0,0.0,0.0,0.0,0.0,0.0,0.0,0.0,0.0,0.0,0.0,0.0,0.0,0.0,0.0,0.0,0.0,0.0,0.0,0.0,0.0,0.0,0.0,0.0,0.0,0.0,0.0,0.0,0.0,0.0,0.0,0.0,0.0,0.0,-2.3639,-2.4794,-2.5601,-2.6078,-2.6408,-2.6591,-2.6573,-2.5803,-2.4996,0.0,0.0,0.0,0.0,0.0,0.0,0.0,0.0,0.0,0.0,0.0,0.0,0.0,0.0,0.0,0.0,0.0,0.0,0.0,0.0,0.0,0.0,0.0,0.0,0.0,0.0,0.0,0.0,0.0,0.0,0.0,0.0,0.0,0.0,0.0,0.0,0.0,0.0,0.0,0.0,0.0,-4.7654,-5.0688,-5.224,0.0,0.0,0.0,0.0,-5.4957,-5.4952,0.0,0.0,0.0,0.0,0.0,0.0,0.0,0.0,0.0,0.0,0.0,0.0,0.0,0.0,0.0,0.0,0.0,0.0,0.0,0.0,0.0,0.0,0.0,0.0,0.0,0.0,0.0,0.0,0.0,0.0,0.0,0.0,0.0,0.0,0.0,0.0,0.0,0.0,0.0,0.0,0.0,0.0,0.0,0.0,0.0,0.0,0.0,0.0,0.0,0.0,0.0,0.0,0.0,0.0,0.0,0.0,-2.4042,-2.4941,-2.5748,-2.6463,-2.6554,-2.6591,-2.6573,-2.5803,-2.4996,0.0,0.0,0.0,0.0,0.0,0.0,0.0,0.0,0.0,0.0,0.0,0.0,0.0,0.0,0.0,0.0,0.0,0.0,0.0,0.0,0.0,0.0,0.0,0.0,0.0,0.0,0.0,0.0,0.0,0.0,0.0,0.0,0.0,0.0,0.0,0.0,0.0,0.0,0.0,0.0,0.0,-5.0254,-5.317,-5.5099,-5.6535,0.0,0.0,-5.8154,-5.8208,-5.6937,0.0,0.0,0.0,0.0,0.0,0.0,0.0,0.0,0.0,0.0,0.0,0.0,0.0,0.0,0.0,0.0,0.0,0.0,0.0,0.0,0.0,0.0,0.0,0.0,0.0,0.0,0.0,0.0,0.0,0.0,0.0,0.0,0.0,0.0,0.0,0.0,0.0,0.0,0.0,0.0,0.0,0.0,0.0,0.0,0.0,0.0,0.0,0.0,0.0,0.0,0.0,0.0,0.0,0.0,0.0,-2.2538,-2.4115,-2.4959,-2.5766,-2.6554,-2.6591,-2.6591,-2.6591,-2.5803,-2.4996,0.0,0.0,0.0,0.0,0.0,0.0,0.0,0.0,0.0,0.0,0.0,0.0,0.0,0.0,0.0,0.0,0.0,0.0,0.0,0.0,0.0,0.0,0.0,0.0,0.0,0.0,0.0,0.0,0.0,0.0,0.0,0.0,0.0,0.0,0.0,0.0,0.0,0.0,0.0,0.0,0.0,0.0,-5.3769,-5.5697,0.0,0.0,0.0,-5.99,-6.0088,0.0,0.0,0.0,0.0,0.0,0.0,0.0,0.0,0.0,0.0,0.0,0.0,0.0,0.0,0.0,0.0,0.0,0.0,0.0,0.0,0.0,0.0,0.0,0.0,0.0,0.0,0.0,0.0,0.0,0.0,0.0,0.0,0.0,0.0,0.0,0.0,0.0,0.0,0.0,0.0,0.0,0.0,0.0,0.0,0.0,0.0,0.0,0.0,0.0,0.0,0.0,0.0,0.0,0.0,0.0,0.0,0.0,-2.4115,-2.4959,-2.5821,-2.6701,-2.6738,-2.6738,-2.6719,-2.6041,0.0,0.0,0.0,0.0,0.0,0.0,0.0,0.0,0.0,0.0,0.0,0.0,0.0,0.0,0.0,0.0,0.0,0.0,0.0,0.0,0.0,0.0,0.0,0.0,0.0,0.0,0.0,-2.2662,0.0,0.0,0.0,0.0,0.0,0.0,0.0,0.0,0.0,0.0,0.0,0.0,0.0,0.0,-5.2186,-5.4932,-5.693,-5.8575,0.0,0.0,-6.1472,-6.1679,-6.1396,-6.0436,0.0,0.0,0.0,0.0,0.0,0.0,0.0,0.0,0.0,0.0,0.0,0.0,0.0,0.0,0.0,0.0,0.0,0.0,0.0,0.0,0.0,0.0,0.0,0.0,0.0,0.0,0.0,0.0,0.0,0.0,0.0,0.0,0.0,0.0,0.0,0.0,0.0,0.0,0.0,0.0,0.0,0.0,0.0,0.0,0.0,0.0,0.0,0.0,0.0,0.0,0.0,0.0,0.0,0.0,0.0,-2.4115,-2.4959,-2.5949,-2.7086,-2.7141,-2.7141,-2.7123,-2.6719,-2.5949,0.0,0.0,0.0,0.0,0.0,0.0,0.0,0.0,0.0,0.0,0.0,0.0,0.0,0.0,0.0,0.0,0.0,0.0,0.0,0.0,0.0,0.0,0.0,0.0,0.0,0.0,0.0,0.0,0.0,0.0,0.0,0.0,0.0,0.0,0.0,0.0,0.0,0.0,0.0,0.0,0.0,-5.5159,-5.7777,-6.0112,-6.1798,0.0,-6.2859,-6.3113,-6.3399,-6.2238,-6.1125,-6.0705,0.0,0.0,0.0,0.0,0.0,0.0,0.0,0.0,0.0,0.0,0.0,0.0,0.0,0.0,0.0,0.0,0.0,0.0,0.0,0.0,0.0,0.0,0.0,0.0,0.0,0.0,0.0,0.0,0.0,0.0,0.0,0.0,0.0,0.0,0.0,0.0,0.0,0.0,0.0,0.0,0.0,0.0,0.0,0.0,0.0,0.0,0.0,0.0,0.0,0.0,0.0,0.0,0.0,-2.2777,-2.4134,-2.5197,-2.6206,-2.7141,-2.7416,-2.7545,-2.7526,-2.6921,-2.6133,0.0,0.0,0.0,0.0,0.0,0.0,0.0,0.0,0.0,0.0,0.0,0.0,0.0,0.0,0.0,0.0,0.0,0.0,0.0,0.0,0.0,0.0,0.0,0.0,0.0,0.0,0.0,0.0,-2.5223,-2.6188,-2.7624,0.0,0.0,0.0,0.0,0.0,0.0,0.0,0.0,0.0,0.0,-5.565,-5.8116,-6.0528,0.0,0.0,-6.3871,-6.4316,-6.5071,-6.4323,-6.3199,-6.1971,-5.9692,0.0,0.0,0.0,0.0,0.0,0.0,0.0,0.0,0.0,0.0,0.0,0.0,0.0,0.0,0.0,0.0,0.0,0.0,0.0,0.0,0.0,0.0,0.0,0.0,0.0,0.0,0.0,0.0,0.0,0.0,0.0,0.0,0.0,0.0,0.0,0.0,0.0,0.0,0.0,0.0,0.0,0.0,0.0,0.0,0.0,0.0,0.0,0.0,0.0,0.0,0.0,0.0,-2.2923,-2.4233,-2.5344,-2.6408,-2.7325,-2.7746,-2.7948,-2.793,-2.7288,-2.6554,0.0,0.0,0.0,0.0,0.0,0.0,0.0,0.0,0.0,0.0,0.0,0.0,0.0,0.0,0.0,0.0,0.0,0.0,0.0,0.0,0.0,0.0,0.0,0.0,0.0,0.0,0.0,0.0,-2.627,-2.7435,-2.9025,0.0,0.0,0.0,0.0,0.0,0.0,0.0,0.0,0.0,0.0,-5.6942,-5.9404,-6.162,-6.3351,-6.4403,-6.4821,-6.5357,-6.6167,-6.5645,-6.4677,-6.331,0.0,0.0,0.0,0.0,0.0,0.0,0.0,0.0,0.0,0.0,0.0,0.0,0.0,0.0,0.0,0.0,0.0,0.0,0.0,0.0,0.0,0.0,0.0,0.0,0.0,0.0,0.0,0.0,0.0,0.0,-1.3319,0.0,0.0,0.0,0.0,0.0,0.0,0.0,0.0,0.0,0.0,0.0,0.0,0.0,0.0,0.0,0.0,0.0,0.0,0.0,0.0,0.0,0.0,-2.2942,-2.4251,-2.5381,-2.6554,-2.771,-2.8168,-2.8388,-2.837,-2.7967,-2.7361,-2.6554,0.0,0.0,0.0,0.0,0.0,0.0,0.0,0.0,0.0,0.0,0.0,0.0,0.0,0.0,0.0,0.0,0.0,0.0,0.0,0.0,0.0,0.0,0.0,0.0,0.0,0.0,-2.6917,-2.8035,-2.9135,0.0,0.0,0.0,0.0,0.0,0.0,0.0,0.0,0.0,0.0,-5.6181,-5.9605,-6.2205,-6.3949,-6.5077,-6.5653,-6.5982,-6.6263,-6.6451,-6.5824,-6.5183,0.0,0.0,0.0,0.0,0.0,0.0,0.0,0.0,0.0,0.0,0.0,0.0,0.0,0.0,0.0,0.0,0.0,0.0,0.0,0.0,0.0,0.0,0.0,0.0,0.0,0.0,0.0,-1.4994,-1.4878,0.0,0.0,0.0,0.0,0.0,0.0,0.0,0.0,0.0,0.0,0.0,-1.8243,-1.9444,0.0,0.0,0.0,0.0,0.0,0.0,0.0,0.0,0.0,0.0,0.0,0.0,-2.3602,-2.4592,-2.6023,-2.7086,-2.7746,-2.8443,-2.8792,-2.8773,-2.8388,-2.7545,-2.6206,0.0,0.0,0.0,0.0,0.0,0.0,0.0,0.0,0.0,0.0,0.0,0.0,0.0,0.0,0.0,0.0,0.0,0.0,0.0,0.0,0.0,0.0,0.0,0.0,0.0,-2.7156,0.0,0.0,0.0,0.0,0.0,0.0,0.0,0.0,0.0,0.0,0.0,-5.0307,-5.3682,-5.747,-6.0722,-6.2747,-6.44,-6.5536,0.0,0.0,0.0,0.0,0.0,0.0,0.0,0.0,0.0,0.0,0.0,0.0,0.0,0.0,-5.4296,-5.1181,-4.9968,-4.916,-4.8324,0.0,0.0,0.0,0.0,0.0,0.0,0.0,0.0,0.0,0.0,0.0,0.0,0.0,0.0,-1.6048,0.0,-1.5538,0.0,0.0,0.0,0.0,0.0,0.0,0.0,0.0,-1.8294,-1.892,-1.9125,-2.0389,-2.1065,0.0,-2.164,-2.1573,0.0,0.0,0.0,0.0,0.0,0.0,0.0,0.0,-2.417,-2.5014,-2.6444,-2.7435,-2.7985,-2.8645,-2.8975,-2.8975,-2.859,-2.771,-2.6224,-2.5271,-2.4225,0.0,0.0,0.0,0.0,0.0,0.0,0.0,0.0,0.0,0.0,0.0,0.0,0.0,0.0,0.0,0.0,0.0,0.0,0.0,0.0,0.0,0.0,0.0,-2.8655,0.0,0.0,0.0,0.0,0.0,0.0,0.0,0.0,0.0,-4.4913,-4.8617,-5.2408,-5.5588,-5.8846,-6.1645,-6.35,0.0,0.0,0.0,0.0,0.0,0.0,0.0,-6.7178,-6.6251,-6.6151,-6.5525,-6.3575,-6.2667,-6.1933,-6.1081,0.0,0.0,-5.4955,-5.3503,-5.2669,-5.1837,-5.0995,-5.0198,-4.967,-4.9488,-4.9143,0.0,0.0,0.0,0.0,0.0,0.0,0.0,0.0,-1.7168,-1.7007,0.0,-1.6446,0.0,0.0,0.0,0.0,0.0,-1.7577,0.0,0.0,-1.8844,-1.9266,-1.9905,-2.0755,-2.1557,-2.2403,-2.2396,-2.2616,-2.3032,-2.1777,0.0,0.0,0.0,0.0,0.0,0.0,-2.4592,-2.5417,-2.6591,-2.7581,-2.837,-2.8773,-2.8975,-2.8975,-2.8608,-2.7856,-2.6701,-2.6206,-2.5417,-2.4362,-2.3052,0.0,0.0,0.0,0.0,0.0,0.0,0.0,0.0,0.0,0.0,0.0,0.0,0.0,0.0,0.0,0.0,0.0,0.0,0.0,0.0,-2.912,0.0,0.0,0.0,0.0,0.0,0.0,0.0,0.0,0.0,0.0,-4.8217,-5.1124,-5.4295,-5.7939,0.0,0.0,0.0,0.0,-6.629,-6.7614,-6.786,-6.8258,-6.913,-6.9167,-6.895,-6.8618,0.0,0.0,-6.6194,-6.5472,-6.4731,-6.3942,-6.2994,-6.1429,-5.8434,-5.6944,-5.5861,-5.4998,-5.4157,-5.3264,-5.2368,-5.2107,-5.166,-1.8668,0.0,0.0,0.0,0.0,-1.7768,-1.7782,-1.7769,-1.7782,-1.7742,-1.7635,-1.7341,0.0,0.0,0.0,0.0,0.0,0.0,-1.9081,-1.9716,-2.0264,-2.0793,-2.1197,-2.1992,-2.272,-2.3148,-2.3353,-2.36,-2.3853,-2.3335,-2.277,-2.2191,0.0,0.0,0.0,0.0,-2.5142,-2.6224,-2.7141,-2.7856,-2.8388,-2.8773,-2.8975,-2.8975,-2.859,-2.8223,-2.7875,-2.694,-2.6114,-2.5454,-2.428,0.0,0.0,0.0,0.0,0.0,0.0,0.0,0.0,0.0,0.0,0.0,0.0,0.0,0.0,0.0,0.0,0.0,0.0,0.0,-2.9902,-3.0899,-3.1782,0.0,0.0,0.0,0.0,0.0,0.0,0.0,0.0,0.0,-5.2296,-5.3883,-5.5959,0.0,0.0,-6.336,-6.4714,-6.6038,-6.7116,-6.7767,-6.8444,0.0,-6.9191,-6.9128,-6.8907,-6.8574,-6.7936,-6.7392,-6.731,-6.6738,-6.5983,-6.5156,-6.4527,-6.3728,-6.2541,-6.0146,-5.8063,-5.7015,-5.655,-5.6203,-5.5782,-5.5408,-5.4887,-1.9784,-1.8978,-1.8343,-1.805,-1.7969,-1.8263,-1.8384,-1.8384,-1.8517,-1.8504,-1.8384,-1.8306,-1.8265,-1.831,-1.8836,0.0,0.0,0.0,-2.0468,-2.1017,-2.1539,-2.1896,-2.2258,-2.2911,-2.336,-2.368,-2.4022,-2.4429,-2.4913,-2.4827,-2.4578,-2.4324,0.0,0.0,-2.4629,-2.5216,-2.6004,-2.7031,-2.7691,-2.8223,-2.8627,-2.8865,-2.8975,-2.8975,-2.8755,-2.8553,-2.8388,-2.7526,-2.6793,-2.6224,-2.5197,-2.4079,0.0,0.0,0.0,0.0,0.0,0.0,0.0,0.0,0.0,0.0,0.0,-2.2725,-2.3509,0.0,0.0,0.0,-2.7989,-2.9902,-3.1832,-3.2644,0.0,0.0,0.0,0.0,0.0,0.0,0.0,-4.5778,-4.8891,-5.1894,-5.4599,-5.6085,-5.7851,-6.0239,-6.2181,-6.3896,-6.534,0.0,-6.7676,-6.8761,-6.9419,-6.9922,-7.018,-7.0119,-6.986,-6.9387,-6.8744,-6.8262,-6.8302,-6.7784,-6.7132,-6.6649,-6.5939,-6.5372,-6.506,-6.2843,-6.0638,-5.9458,-5.8934,-5.8497,-5.7859,-5.7242,-5.6512,-2.078,-2.0684,-1.9631,-1.9018,-1.8776,-1.9004,-1.9112,-1.9125,-1.9367,-1.9327,-1.9072,-1.9285,-1.9458,-1.9498,-2.0361,0.0,-2.0937,-2.1356,-2.1869,-2.2198,-2.2529,-2.2799,-2.3119,-2.3472,-2.3825,-2.4066,-2.4607,-2.5259,-2.5961,-2.6074,-2.6406,-2.6695,-2.5642,-2.5179,-2.5546,-2.6261,-2.7031,-2.7801,-2.8187,-2.859,-2.8975,-2.8975,-2.8975,-2.8975,-2.8975,-2.881,-2.8462,-2.8003,-2.7435,-2.6701,-2.5876,-2.4867,-2.3712,0.0,0.0,0.0,0.0,0.0,0.0,0.0,0.0,0.0,0.0,0.0,0.0,0.0,0.0,-2.7753,-3.0055,0.0,-3.3668,-3.45,0.0,0.0,0.0,-3.9224,-4.1477,-4.309,-4.5094,-4.7782,0.0,0.0,-5.5723,-5.788,-5.9799,-6.144,-6.2744,-6.4169,-6.6046,-6.6935,-6.816,-7.0107,-7.0609,-7.0976,-7.1511,-7.1498,-7.1145,-7.0498,-7.0106,-6.9587,-6.9214,-6.8613,-6.8215,-6.8182,-6.7247,-6.632,-6.612,-6.4801,-6.3563,-6.2158,-6.1084,-6.004,-5.9061,-5.8043,-5.7123,-2.17,-2.1408,-2.1199,-2.0801,-2.051,-2.0344,-2.0405,-2.0392,-2.0109,-1.9998,-1.9943,-2.0044,-2.0217,-2.0366,-2.0355,-2.1027,-2.2041,-2.2041,-2.2561,-2.3438,-2.3533,-2.3805,-2.4334,-2.4667,-2.5155,-2.5656,-2.5881,-2.6335,-2.6936,-2.6978,-2.7205,-2.7486,-2.7233,-2.6958,-2.6756,-2.694,-2.7435,-2.8242,-2.8333,-2.859,-2.8975,-2.8975,-2.8975,-2.8975,-2.8975,-2.8938,-2.8828,-2.815,-2.7673,-2.7471,-2.6426,-2.5417,-2.4537,-2.3712,0.0,0.0,0.0,0.0,0.0,0.0,0.0,0.0,0.0,-2.4534,-2.6037,0.0,-2.8092,0.0,-3.1782,-3.4001,-3.5292,-3.6901,0.0,0.0,-4.0313,-4.1575,-4.3345,-4.5475,-4.7525,-4.9501,-5.2682,-5.5302,-5.6953,-5.8875,-6.0677,-6.1986,-6.302,-6.4326,-6.6178,-6.7537,-6.88,-7.0253,-7.1097,-7.164,-7.1711,-7.143,-7.099,-7.0508,-7.0073,-6.97,-6.9251,-6.9059,-6.882,-6.8356,-6.7733,-6.7165,-6.6884,-6.5617,-6.4547,-6.3767,-6.2426,-6.1119,-6.0035,-5.9387,-5.856,-2.2381,-2.2595,-2.2472,-2.2494,-2.2413,-2.1364,-2.1061,-2.1166,-2.0996,-2.1028,-2.1145,-2.1277,-2.1641,-2.2024,-2.182,-2.2209,-2.3167,-2.3391,-2.3954,-2.4603,-2.4998,-2.5405,-2.5743,-2.5856,-2.6204,-2.653,-2.6644,-2.7086,-2.7561,-2.7694,-2.8016,-2.8315,-2.8315,-2.8205,-2.7985,-2.7801,-2.8022,-2.8645,-2.8663,-2.8773,-2.8975,-2.8975,-2.8975,-2.8975,-2.8975,-2.8902,-2.8737,-2.8095,-2.7691,-2.749,-2.6701,-2.5949,-2.5344,-2.4619,-2.3985,0.0,0.0,0.0,0.0,0.0,0.0,0.0,0.0,0.0,0.0,0.0,-3.0202,-3.1964,-3.403,-3.5838,-3.7402,-3.8988,-4.0315,-4.1483,-4.2505,-4.3814,-4.568,-4.7364,-4.9296,-5.1709,-5.4153,-5.6365,-5.7981,-5.9587,-6.1292,-6.2777,-6.3845,-6.5084,-6.6758,-6.8269,-6.9634,-7.0859,-7.1519,-7.1834,-7.1677,-7.13,-7.0837,-7.0477,-7.0073,-6.9737,-6.974,-6.9432,-6.9225,-6.9274,-6.8622,-6.7976,-6.7759,-6.648,-6.5247,-6.4407,-6.3099,-6.1747,-6.0648,-5.9893,-5.8961,-2.323,-2.3743,-2.3728,-2.3991,-2.407,-2.2384,-2.1761,-2.1973,-2.1929,-2.214,-2.2513,-2.2751,-2.3227,-2.3669,-2.362,-2.3841,-2.4269,-2.5087,-2.5446,-2.5577,-2.6478,-2.6982,-2.6982,-2.6982,-2.7,-2.7053,-2.7283,-2.7597,-2.8093,-2.8345,-2.8645,-2.8975,-2.8975,-2.8975,-2.8975,-2.8645,-2.8645,-2.8975,-2.8975,-2.8975,-2.8975,-2.8975,-2.8975,-2.8975,-2.8938,-2.8737,-2.8407,-2.7948,-2.7526,-2.7196,-2.6811,-2.6408,-2.5968,-2.5581,-2.5289,0.0,-2.4913,0.0,0.0,0.0,0.0,0.0,0.0,0.0,0.0,-3.1014,-3.2636,-3.515,-3.6384,-3.7792,-3.9516,-4.0858,-4.2153,-4.3398,-4.4471,-4.5858,-4.7904,-4.9099,-5.0781,-5.3648,-5.5205,-5.678,-5.8634,-6.0156,-6.1774,-6.357,-6.4956,-6.6217,-6.7643,-6.8976,-7.0234,-7.1505,-7.1806,-7.1815,-7.1549,-7.1239,-7.0837,-7.0477,-7.0225,-7.0039,-7.0342,-6.9904,-6.9777,-7.0369,-6.9591,-6.8751,-6.8642,-6.7209,-6.5801,-6.4728,-6.3388,-6.2022,-6.0939,-5.9925,-5.8743,-2.4487,-2.4857,-2.4857,-2.4857,-2.4841,-2.447,-2.3886,-2.3248,-2.3215,-2.3448,-2.3685,-2.3819,-2.4055,-2.4408,-2.4343,-2.4662,-2.5244,-2.5707,-2.6036,-2.6284,-2.6946,-2.7211,-2.7211,-2.7537,-2.7833,-2.8144,-2.8162,-2.8363,-2.8747,-2.8865,-2.8902,-2.8975,-2.8975,-2.8975,-2.8975,0.0,0.0,0.0,-2.8975,-2.8975,-2.8975,-2.8975,-2.8975,-2.8975,-2.8663,0.0,-2.837,-2.7673,-2.7251,-2.7178,-2.6793,0.0,0.0,0.0,0.0,0.0,0.0,0.0,0.0,0.0,0.0,0.0,-3.0918,-3.1622,-3.1746,-3.367,-3.5633,-3.7208,-3.8538,-3.988,-4.1223,-4.2586,-4.382,-4.4821,-4.6344,-4.773,-4.8784,-5.07,-5.2586,-5.3597,-5.5632,-5.7392,-5.8772,-6.065,-6.2386,-6.3826,-6.584,-6.7532,-6.8541,-6.936,-7.0312,-7.142,-7.1755,-7.1729,-7.1529,-7.1218,-7.0837,-7.0554,-7.0682,-7.072,-7.0486,-7.0834,-7.0882,-7.0807,-7.0094,-6.9316,-6.8559,-6.7127,-6.5746,-6.4545,-6.3324,-6.2085,-6.1,-5.9849,-5.8714,-2.5606,0.0,-2.5659,-2.5594,0.0,-2.5594,-2.5359,-2.4817,-2.4642,-2.4804,-2.5044,-2.5283,-2.5539,-2.5897,-2.5814,-2.6099,-2.6451,-2.6784,-2.7017,-2.7151,-2.7813,-2.8137,-2.8137,-2.8253,-2.848,-2.8682,-2.8682,-2.8792,-2.8975,-2.8975,-2.8975,-2.8975,-2.8975,-2.8975,-2.8975,-2.8975,-2.8975,-2.8975,-2.8975,-2.8975,-2.8975,-2.8975,-2.8975,-2.8975,-2.8792,0.0,0.0,0.0,0.0,0.0,0.0,0.0,0.0,-2.691,0.0,-2.7656,-2.8267,-2.8755,-2.9225,-3.0329,-3.1261,-3.1703,-3.3377,-3.4481,-3.4433,-3.6351,-3.7997,-3.8964,-4.024,-4.1349,-4.2325,-4.3645,-4.4977,-4.6106,-4.7496,-4.8741,-5.0022,-5.1654,-5.3155,-5.4306,-5.5837,-5.7473,-5.9148,-6.0809,-6.2654,-6.4619,-6.6442,-6.8048,-6.9198,-7.0008,-7.0777,-7.1633,-7.1792,-7.1711,-7.1513,-7.1218,-7.0837,-7.0554,-7.0796,-7.1023,-7.1019,-7.1281,-7.1508,-7.1245,-7.0488,-6.9527,-6.8482,-6.7127,-6.5746,-6.4545,-6.3228,-6.2085,-6.1,-5.9849,-5.8743,-2.6727,-2.7068,-2.675,-2.66,-2.6533,-2.6533,-2.6499,-2.6432,0.0,0.0,0.0,-2.6692,-2.7056,-2.7297,-2.7225,-2.7305,-2.7659,-2.7894,-2.8011,-2.803,-2.871,-2.8975,-2.8975,-2.8975,-2.8975,-2.8975,-2.8975,-2.8975,-2.8975,-2.8975,-2.8975,-2.8975,-2.8975,-2.8975,-2.8975,-2.8975,-2.8975,-2.8975,-2.8975,-2.8975,-2.8975,-2.8975,-2.8975,-2.8975,-2.892,-2.8718,-2.8407,-2.8315,-2.7967,-2.7325,-2.7288,-2.7381,-2.7679,-2.7729,-2.8237,-2.9441,-3.0023,-3.0538,-3.1083,-3.2097,-3.3038,-3.374,-3.5474,-3.6719,-3.7045,-3.8426,-3.9633,-4.0399,-4.1477,-4.2493,-4.3241,-4.445,-4.5758,-4.7131,-4.8268,-4.9579,-5.1025,-5.2213,-5.3471,-5.487,-5.5988,-5.7415,-5.9487,-6.0998,-6.2831,-6.535,-6.6963,-6.8269,-6.9801,-7.0695,-7.124,-7.1728,-7.1827,-7.1721,-7.1513,-7.1218,-7.0837,-7.0515,-7.091,-7.1363,-7.1576,-7.1727,-7.1858,-7.1792,-7.0704,-6.9492,-6.837,-6.7044,-6.5713,-6.4453,-6.3228,-6.2085,-6.1,-5.9819,-5.8634,-2.8243,-2.8852,-2.8799,-2.8588,-2.8254,-2.8254,-2.8078,-2.7659,-2.7073,-2.7194,-2.7779,-2.7779,-2.7779,-2.79,-2.7847,-2.7949,-2.7931,-2.8307,-2.8426,-2.8444,-2.8838,-2.8975,-2.8975,-2.8975,-2.8975,-2.8975,-2.8975,-2.8975,-2.8975,-2.8975,-2.8975,-2.8975,-2.8975,-2.8975,-2.8975,-2.8975,-2.8975,-2.8975,-2.8975,-2.8975,-2.8975,-2.8975,-2.8975,-2.8975,-2.8663,-2.8462,-2.8388,-2.8058,-2.7801,-2.7691,-2.7673,-2.7805,-2.8126,-2.8539,-2.9191,-2.9897,-3.0956,-3.1695,-3.2019,-3.3087,-3.4366,-3.5794,-3.6645,-3.7254,-3.7866,-3.8914,-4.0011,-4.101,-4.2097,-4.315,-4.4125,-4.5316,-4.6368,-4.746,-4.8983,-5.0306,-5.1,-5.2529,-5.3828,-5.4685,-5.5829,-5.7415,-5.9556,-6.1488,-6.3413,-6.5549,-6.7407,-6.8951,-7.0279,-7.1158,-7.1549,-7.1774,-7.1834,-7.1737,-7.1544,-7.1218,-7.0875,-7.0445,-7.1367,-7.1968,-7.1726,-7.2174,-7.2392,-7.1818,-7.0673,-6.9347,-6.8059,-6.6878,-6.5625,-6.4268,-6.3036,-6.2085,-6.1,-5.9606,-5.8305,-2.9256,-2.9474,-2.9279,-2.9084,-2.8924,-2.8924,-2.8941,-2.8903,-2.864,-2.8288,-2.8037,-2.8157,-2.8277,-2.8277,-2.8498,-2.8498,-2.8498,-2.8755,-2.8755,-2.8755,-2.8975,-2.8975,-2.8975,-2.8975,-2.8975,-2.8975,-2.8975,-2.8975,-2.8975,-2.8975,-2.8975,-2.8975,-2.8975,-2.8975,-2.8975,-2.8975,-2.8975,-2.8975,-2.8975,-2.8975,-2.8975,-2.8975,-2.8975,-2.8975,-2.881,-2.8718,-2.8718,-2.8535,-2.8333,-2.8113,-2.8095,-2.8325,-2.8765,-2.9241,-3.0019,-3.1124,-3.2064,-3.2754,-3.3219,-3.4185,-3.5273,-3.6661,-3.7321,-3.8063,-3.8842,-3.9752,-4.0707,-4.1595,-4.2814,-4.3946,-4.4808,-4.6007,-4.7276,-4.8492,-4.9608,-5.0545,-5.1486,-5.2541,-5.3608,-5.4497,-5.5913,-5.7676,-5.9848,-6.1848,-6.3818,-6.5917,-6.7815,-6.9472,-7.0575,-7.118,-7.1615,-7.1774,-7.1796,-7.1706,-7.1544,-7.1218,-7.1029,-7.1057,-7.1785,-7.2233,-7.2252,-7.2745,-7.2502,-7.1794,-7.0606,-6.9273,-6.7901,-6.6711,-6.5448,-6.3988,-6.2873,-6.1784,-6.0555,-5.8822,-5.7162,-3.0155,-3.0119,-2.9833,-2.9654,-2.9565,-2.9476,-2.9564,-2.9795,-2.9795,-2.9346,-2.8563,-2.8697,-2.8817,-2.8908,-2.9057,-2.9177,-2.925,-2.925,-2.9269,-2.925,-2.925,-2.9269,-2.925,-2.925,-2.9214,-2.9122,-2.9122,-2.9085,-2.8993,-2.8975,-2.8975,-2.8975,-2.8975,-2.8975,-2.8975,-2.8975,-2.8975,-2.8975,-2.8975,-2.8975,-2.8975,-2.8975,-2.8975,-2.8975,-2.8975,-2.8975,-2.8975,-2.8975,-2.8847,-2.8553,-2.8634,-2.8867,-2.9429,-2.9892,-3.0738,-3.2072,-3.2913,-3.3614,-3.4311,-3.5179,-3.6059,-3.7036,-3.7761,-3.8575,-3.9744,-4.0568,-4.138,-4.2233,-4.3301,-4.4358,-4.5356,-4.6633,-4.7998,-4.9222,-4.9991,-5.0753,-5.188,-5.2577,-5.3377,-5.4391,-5.5992,-5.7939,-6.0062,-6.2055,-6.4084,-6.6453,-6.8315,-6.9701,-7.0439,-7.1098,-7.151,-7.1728,-7.1796,-7.1745,-7.1544,-7.1218,-7.1222,-7.1631,-7.2052,-7.2422,-7.2703,-7.2894,-7.2576,-7.1732,-7.0472,-6.9126,-6.7822,-6.6542,-6.5147,-6.38,-6.2678,-6.1379,-5.9652,-5.7804,-5.602,-3.0936,-3.1194,-3.1121,-3.1066,-3.0591,-3.0244,-3.0098,-3.0222,-3.0204,-3.0167,-2.9934,-2.969,-2.9727,-3.0002,-2.969,-2.9709,-3.0039,-3.0094,-3.0057,-3.0057,-3.0094,-3.0094,-3.0039,-3.0075,-2.9874,-2.9562,-2.9525,-2.936,-2.9067,-2.9012,-2.8993,-2.8975,-2.8975,-2.8975,-2.8975,-2.8975,-2.8975,-2.8975,-2.8975,-2.8975,-2.8975,-2.8975,-2.8975,-2.8975,-2.8975,-2.8975,-2.8975,-2.8975,-2.8975,-2.8938,-2.9275,-2.9512,-2.9846,-3.0684,-3.1496,-3.2227,-3.3048,-3.4065,-3.5202,-3.584,-3.6495,-3.7036,-3.7892,-3.8932,-4.022,-4.1027,-4.1775,-4.2743,-4.3272,-4.4266,-4.5622,-4.6897,-4.8075,-4.9055,-5.0065,-5.1046,-5.1849,-5.2577,-5.3346,-5.4295,-5.6057,-5.7893,-5.9937,-6.2053,-6.4444,-6.7158,-6.8576,-6.9664,-7.0417,-7.0992,-7.1427,-7.1636,-7.1757,-7.1706,-7.1505,-7.1218,-7.1299,-7.1631,-7.2052,-7.2497,-7.2808,-7.288,-7.2593,-7.1573,-7.0336,-6.8978,-6.7662,-6.6287,-6.4967,-6.3578,-6.2252,-6.0835,-5.8575,-5.6936,-5.5556,-3.1249,-3.1377,-3.1377,-3.1286,-3.1121,-3.0956,-3.0901,-3.0901,-3.0901,-3.0901,-3.0846,-3.0479,-3.0259,-3.0185,-3.002,-3.0039,-3.0204,-3.0204,-3.0204,-3.0204,-3.0204,-3.0204,-3.0204,-3.0204,-3.0094,-2.9947,-2.9947,-2.9855,-2.969,-2.9452,-2.9214,-2.9012,-2.8975,-2.8975,-2.8975,-2.8975,-2.8975,-2.8975,-2.8975,-2.8975,-2.8975,-2.8975,-2.8975,-2.8975,-2.8975,-2.8975,-2.8975,-2.8975,-2.8975,-2.8975,-2.9331,-2.9686,-2.9922,-3.0743,-3.1672,-3.2457,-3.3727,-3.4758,-3.5312,-3.595,-3.6472,-3.7012,-3.8179,-3.93,-4.045,-4.1304,-4.2371,-4.3517,-4.4216,-4.5037,-4.6289,-4.7447,-4.8481,-4.9388,-5.0199,-5.0947,-5.1695,-5.2397,-5.3295,-5.4695,-5.644,-5.8312,-6.0435,-6.3032,-6.5412,-6.743,-6.8576,-6.9549,-7.0324,-7.0931,-7.1388,-7.1628,-7.1758,-7.1706,-7.1544,-7.1218,-7.1453,-7.2084,-7.2356,-7.2497,-7.3212,-7.2964,-7.2386,-7.1485,-7.0094,-6.8752,-6.742,-6.6081,-6.4695,-6.3324,-6.1317,-5.9499,-5.7863,-5.6509,-5.5233,-3.1377,-3.1377,-3.1377,-3.1377,-3.1377,-3.1377,-3.1377,-3.1377,-3.1377,-3.1377,-3.1359,-3.1066,-3.0791,-3.0534,-3.0424,-3.0406,-3.0516,-3.0534,-3.0516,-3.0516,-3.0516,-3.0534,-3.0516,-3.0534,-3.0461,-3.0369,-3.0351,-3.0314,-3.0185,-2.991,-2.9599,-2.9342,-2.9195,-2.914,-2.9122,-2.9048,-2.8975,-2.8975,-2.8975,-2.8975,-2.8975,-2.8975,-2.8975,-2.8975,-2.8975,-2.8975,-2.8975,-2.8975,-2.9094,-2.9094,-2.945,-2.9804,-3.0157,-3.0976,-3.1903,-3.2913,-3.4289,-3.5202,-3.5423,-3.6196,-3.6812,-3.7378,-3.8587,-3.9815,-4.0846,-4.1839,-4.307,-4.4335,-4.5048,-4.5673,-4.6754,-4.7724,-4.8681,-4.9502,-5.0086,-5.0662,-5.1509,-5.2215,-5.3361,-5.49,-5.6743,-5.8921,-6.1308,-6.3938,-6.6089,-6.7268,-6.8389,-6.9431,-7.0222,-7.0884,-7.1373,-7.162,-7.1758,-7.1706,-7.1544,-7.1218,-7.1607,-7.2314,-7.2584,-7.2683,-7.3579,-7.3135,-7.2197,-7.1223,-6.9778,-6.8412,-6.7175,-6.5821,-6.4142,-6.2418,-6.0628,-5.8852,-5.764,-5.6394,-5.4998,-3.1377,-3.1377,-3.1377,-3.1377,-3.1377,-3.1377,-3.1377,-3.1377,-3.1377,-3.1377,-3.1377,-3.1341,-3.1322,-3.1249,-3.0919,-3.0956,-3.1267,-3.1267,-3.1249,-3.1249,-3.1267,-3.1304,-3.1341,-3.1322,-3.1121,-3.0772,-3.0754,-3.0589,-3.0241,-3.0185,-3.0167,-3.0112,-2.9727,-2.9544,-2.9507,-2.9232,-2.9012,-2.9085,-2.9085,-2.903,-2.903,-2.903,-2.903,-2.903,-2.8975,-2.8975,-2.8993,-2.8975,-2.9094,-2.945,-2.9804,-3.0157,-3.084,-3.1441,-3.2363,-3.3501,-3.4758,-3.5445,-3.5623,-3.6649,-3.7566,-3.7942,-3.9115,-4.0501,-4.1747,-4.2576,-4.3532,-4.4967,-4.5262,-4.5926,-4.666,-4.7438,-4.8207,-4.9207,-4.9795,-5.0567,-5.1509,-5.2276,-5.3423,-5.4964,-5.6969,-5.9463,-6.2816,-6.4566,-6.5904,-6.7067,-6.816,-6.919,-7.0124,-7.0811,-7.1287,-7.1525,-7.1679,-7.1745,-7.1544,-7.1218,-7.1607,-7.2352,-7.2661,-7.2645,-7.3044,-7.3119,-7.2102,-7.0995,-6.9565,-6.818,-6.6894,-6.526,-6.3451,-6.1753,-6.0346,-5.8743,-5.7528,-5.6279,-5.488,-3.1377,-3.1377,-3.1377,-3.1377,-3.1377,-3.1377,-3.1377,-3.1377,-3.1377,-3.1377,-3.1377,-3.1377,-3.1377,-3.1377,-3.1231,-3.1249,-3.1377,-3.1377,-3.1377,-3.1377,-3.1377,-3.1377,-3.1377,-3.1377,-3.1322,-3.1194,-3.1157,-3.0956,-3.0607,-3.0571,-3.0442,-3.0222,-3.0057,-2.9984,-2.9947,-2.9837,-2.9764,-2.9764,-2.9764,-2.9764,-2.9745,-2.9764,-2.9654,-2.936,-2.9122,-2.8975,-2.8975,-2.9213,-2.9331,-2.9568,-3.0157,-3.0606,-3.0956,-3.1998,-3.3048,-3.3883,-3.5156,-3.5893,-3.605,-3.713,-3.8078,-3.8436,-3.9753,-4.0918,-4.1828,-4.2924,-4.3888,-4.4479,-4.5072,-4.5609,-4.635,-4.7184,-4.8004,-4.8681,-4.96,-5.0346,-5.1195,-5.2305,-5.3742,-5.5537,-5.815,-6.0993,-6.2775,-6.4428,-6.5653,-6.6935,-6.8062,-6.911,-6.9985,-7.0747,-7.1287,-7.1525,-7.1679,-7.1745,-7.1529,-7.1218,-7.1337,-7.2199,-7.2662,-7.2817,-7.3116,-7.2687,-7.1818,-7.0704,-6.9311,-6.7787,-6.6339,-6.4447,-6.2646,-6.1246,-5.9849,-5.8634,-5.7528,-5.6279,-5.4762,-3.1377,-3.1377,-3.1377,-3.1377,-3.1377,-3.1377,-3.1377,-3.1377,-3.1377,-3.1377,-3.1377,-3.1377,-3.1377,-3.1377,-3.1377,-3.1377,-3.1377,-3.1377,-3.1377,-3.1377,-3.1377,-3.1377,-3.1377,-3.1377,-3.1377,-3.1377,-3.1377,-3.1231,-3.1011,-3.0974,-3.0827,-3.0607,-3.0461,-3.0387,-3.0369,-3.0259,-3.0204,-3.0204,-3.0204,-3.0204,-3.0204,-3.0204,-3.0075,-2.9782,-2.9507,-2.9232,-2.9012,-2.9331,-2.9568,-2.9686,-3.0392,-3.1073,-3.1536,-3.2945,-3.3941,-3.4345,-3.5666,-3.6386,-3.6567,-3.7656,-3.8501,-3.8953,-4.0194,-4.1184,-4.188,-4.3118,-4.3984,-4.4313,-4.4856,-4.5395,-4.5928,-4.6769,-4.7596,-4.828,-4.9305,-5.0057,-5.0632,-5.2145,-5.4083,-5.6525,-5.9206,-6.1475,-6.2939,-6.4218,-6.5526,-6.6801,-6.7963,-6.9026,-6.995,-7.0735,-7.1309,-7.1555,-7.1718,-7.1675,-7.1622,-7.1489,-7.1657,-7.2401,-7.2586,-7.2768,-7.2882,-7.2299,-7.1511,-7.0336,-6.8943,-6.7386,-6.5613,-6.3641,-6.2153,-6.0763,-5.9499,-5.8335,-5.7191,-5.6049,-5.4643,-3.1377,-3.1377,-3.1377,-3.1377,-3.1377,-3.1377,-3.1377,-3.1377,-3.1377,-3.1377,-3.1377,-3.1377,-3.1377,-3.1377,-3.1377,-3.1377,-3.1377,-3.1377,-3.1377,-3.1377,-3.1377,-3.1377,-3.1377,-3.1377,-3.1377,-3.1377,-3.1377,-3.1377,-3.1322,-3.1322,-3.1304,-3.1249,-3.0937,-3.0791,-3.0791,-3.0479,-3.0277,-3.0314,-3.0332,-3.0296,-3.0222,-3.0296,-3.0277,-3.0204,-3.0167,-2.9819,-2.9085,-2.9405,-2.9799,-3.0016,-3.0703,-3.1441,-3.2736,-3.3968,-3.4776,-3.507,-3.6153,-3.6879,-3.7061,-3.7952,-3.892,-3.9541,-4.0493,-4.1395,-4.2326,-4.327,-4.3984,-4.4313,-4.4748,-4.5287,-4.5609,-4.6112,-4.695,-4.7976,-4.8881,-4.9571,-5.0589,-5.1987,-5.4329,-5.754,-5.9919,-6.1447,-6.2711,-6.4041,-6.5332,-6.6649,-6.7862,-6.8983,-6.9915,-7.0709,-7.1258,-7.1546,-7.1716,-7.1728,-7.1821,-7.1915,-7.2245,-7.2597,-7.251,-7.2579,-7.2745,-7.2406,-7.1286,-7.0024,-6.8146,-6.6559,-6.472,-6.2939,-6.1621,-6.0346,-5.9147,-5.7974,-5.6851,-5.5817,-5.4524,-3.1377,-3.1377,-3.1377,-3.1377,-3.1377,-3.1377,-3.1377,-3.1377,-3.1377,-3.1377,-3.1377,-3.1377,-3.1377,-3.1377,-3.1377,-3.1377,-3.1377,-3.1377,-3.1377,-3.1377,-3.1377,-3.1377,-3.1377,-3.1377,-3.1377,-3.1377,-3.1377,-3.1377,-3.1377,-3.1377,-3.1377,-3.1341,-3.1249,-3.1194,-3.1176,-3.1066,-3.1011,-3.1011,-3.1011,-3.1011,-3.1011,-3.0992,-3.0882,-3.0644,-3.0607,-3.0351,-2.9855,-3.041,-3.0774,-3.1118,-3.1978,-3.3028,-3.4127,-3.4932,-3.5388,-3.5664,-3.6756,-3.7372,-3.7556,-3.8407,-3.929,-3.9895,-4.05,-4.1263,-4.2199,-4.3073,-4.3653,-4.3984,-4.4531,-4.5072,-4.5475,-4.5901,-4.6665,-4.7699,-4.8509,-4.9606,-5.1081,-5.336,-5.5999,-5.8275,-5.9957,-6.1317,-6.2668,-6.397,-6.5202,-6.651,-6.7811,-6.894,-6.9807,-7.0683,-7.128,-7.1587,-7.1705,-7.1825,-7.1965,-7.2189,-7.2608,-7.2826,-7.2736,-7.2598,-7.2718,-7.2197,-7.1095,-6.9386,-6.7479,-6.5755,-6.3923,-6.245,-6.1144,-6.0,-5.8931,-5.7863,-5.6623,-5.5468,-5.4286,-3.1377,-3.1377,-3.1377,-3.1377,-3.1377,-3.1377,-3.1377,-3.1377,-3.1377,-3.1377,-3.1377,-3.1377,-3.1377,-3.1377,-3.1377,-3.1377,-3.1377,-3.1377,-3.1377,-3.1377,-3.1377,-3.1377,-3.1377,-3.1377,-3.1377,-3.1377,-3.1377,-3.1377,-3.1377,-3.1377,-3.1377,-3.1377,-3.1377,-3.1359,-3.1377,-3.1377,-3.1377,-3.1377,-3.1359,-3.1377,-3.1377,-3.1377,-3.1249,-3.1047,-3.1011,-3.0882,-3.0644,-3.1252,-3.1598,-3.1963,-3.2975,-3.4051,-3.5019,-3.5521,-3.6003,-3.6443,-3.7244,-3.7887,-3.805,-3.8748,-3.9544,-4.0013,-4.0455,-4.1033,-4.1859,-4.2737,-4.3517,-4.3899,-4.4422,-4.4964,-4.5502,-4.5929,-4.6648,-4.7723,-4.8675,-5.0025,-5.2004,-5.437,-5.6653,-5.8473,-5.9881,-6.1235,-6.2634,-6.3898,-6.5105,-6.6451,-6.776,-6.894,-6.9807,-7.0629,-7.1164,-7.1563,-7.1733,-7.1919,-7.2108,-7.2463,-7.2904,-7.3051,-7.3111,-7.295,-7.2897,-7.1984,-7.0872,-6.8613,-6.6559,-6.5081,-6.3324,-6.2053,-6.0866,-5.9819,-5.8714,-5.7387,-5.6279,-5.5379,-5.4314,-3.1433,-3.1414,-3.1414,-3.1414,-3.1377,-3.1377,-3.1377,-3.1377,-3.1377,-3.1377,-3.1377,-3.1377,-3.1377,-3.1377,-3.1377,-3.1377,-3.1377,-3.1377,-3.1377,-3.1377,-3.1377,-3.1377,-3.1377,-3.1377,-3.1377,-3.1377,-3.1377,-3.1377,-3.1377,-3.1377,-3.1377,-3.1377,-3.1377,-3.1377,-3.1377,-3.1377,-3.1377,-3.1377,-3.1377,-3.1377,-3.1377,-3.1377,-3.1359,-3.1341,-3.1322,-3.1304,-3.1396,-3.2016,-3.2237,-3.2221,-3.3779,-3.4875,-3.5328,-3.6124,-3.6741,-3.6741,-3.7754,-3.8291,-3.8477,-3.893,-3.9426,-3.9802,-4.0363,-4.0918,-4.1606,-4.26,-4.3517,-4.3899,-4.45,-4.5043,-4.5714,-4.6195,-4.7136,-4.8204,-4.9437,-5.1121,-5.3694,-5.514,-5.6778,-5.8478,-5.9794,-6.0986,-6.2668,-6.3898,-6.5136,-6.6415,-6.7723,-6.886,-6.9771,-7.0536,-7.1164,-7.1524,-7.1758,-7.2076,-7.2368,-7.289,-7.3304,-7.3433,-7.3452,-7.3185,-7.263,-7.1587,-7.0196,-6.792,-6.5962,-6.4387,-6.3036,-6.1885,-6.069,-5.9499,-5.8305,-5.6964,-5.5933,-5.5144,-5.4194,-3.2111,-3.1854,-3.1836,-3.1671,-3.1396,-3.1377,-3.1377,-3.1377,-3.1377,-3.1377,-3.1377,-3.1377,-3.1377,-3.1377,-3.1377,-3.1377,-3.1377,-3.1377,-3.1377,-3.1377,-3.1377,-3.1377,-3.1377,-3.1377,-3.1377,-3.1377,-3.1377,-3.1377,-3.1377,-3.1377,-3.1377,-3.1377,-3.1377,-3.1377,-3.1377,-3.1377,-3.1377,-3.1377,-3.1377,-3.1377,-3.1377,-3.1377,-3.1377,-3.1377,-3.1377,-3.1377,-3.1506,-3.253,-3.3485,-3.4121,-3.5188,-3.6061,-3.626,-3.685,-3.7156,-3.732,-3.791,-3.838,-3.85,-3.8953,-3.9426,-3.9802,-4.0153,-4.0735,-4.1606,-4.2513,-4.3321,-4.3976,-4.4785,-4.5595,-4.6219,-4.689,-4.8029,-4.9872,-5.0957,-5.234,-5.3933,-5.5567,-5.7088,-5.8605,-5.9707,-6.1036,-6.2557,-6.3898,-6.5105,-6.6415,-6.7723,-6.894,-6.9771,-7.0574,-7.1261,-7.1534,-7.1852,-7.2241,-7.2718,-7.3258,-7.3639,-7.3811,-7.3714,-7.3426,-7.2336,-7.1023,-6.9351,-6.7305,-6.5788,-6.4235,-6.3036,-6.1784,-6.0555,-5.9315,-5.8085,-5.6964,-5.5961,-5.5054,-5.4074,-3.2459,-3.2258,-3.2258,-3.2019,-3.1653,-3.1634,-3.1543,-3.1396,-3.1377,-3.1377,-3.1377,-3.1377,-3.1377,-3.1377,-3.1377,-3.1377,-3.1377,-3.1377,-3.1377,-3.1377,-3.1377,-3.1377,-3.1377,-3.1377,-3.1377,-3.1377,-3.1377,-3.1377,-3.1377,-3.1377,-3.1377,-3.1377,-3.1377,-3.1377,-3.1377,-3.1377,-3.1377,-3.1377,-3.1377,-3.1377,-3.1377,-3.1377,-3.1377,-3.1377,-3.1377,-3.1506,-3.1891,-3.2657,-3.367,-3.4652,-3.5665,-3.6423,-3.6667,-3.7154,-3.7374,-3.7374,-3.7998,-3.838,-3.85,-3.8953,-3.9308,-3.9684,-3.9919,-4.0595,-4.1426,-4.2574,-4.3563,-4.4284,-4.533,-4.6146,-4.6941,-4.7835,-4.9283,-5.0976,-5.2349,-5.3363,-5.4451,-5.5969,-5.7402,-5.8637,-5.9881,-6.1069,-6.2668,-6.3898,-6.5136,-6.6415,-6.776,-6.8822,-6.9771,-7.0563,-7.1241,-7.1544,-7.2158,-7.2709,-7.3302,-7.3859,-7.4125,-7.4278,-7.3483,-7.3252,-7.197,-7.0535,-6.8838,-6.7141,-6.5613,-6.4142,-6.2939,-6.1683,-6.0451,-5.9285,-5.8085,-5.6964,-5.5961,-5.5054,-5.4074,-3.2698,-3.2661,-3.2661,-3.2441,-3.2093,-3.2056,-3.1836,-3.1506,-3.1488,-3.1433,-3.1396,-3.1377,-3.1377,-3.1377,-3.1377,-3.1377,-3.1377,-3.1377,-3.1377,-3.1377,-3.1377,-3.1377,-3.1377,-3.1377,-3.1377,-3.1377,-3.1377,-3.1377,-3.1377,-3.1377,-3.1377,-3.1377,-3.1377,-3.1377,-3.1377,-3.1377,-3.1377,-3.1377,-3.1377,-3.1377,-3.1377,-3.1377,-3.1377,-3.1377,-3.1377,-3.1635,-3.2166,-3.2785,-3.3418,-3.4298,-3.5685,-3.63,-3.6545,-3.7132,-3.7374,-3.7495,-3.7998,-3.838,-3.85,-3.8953,-3.9308,-3.9426,-3.9873,-4.0503,-4.1432,-4.2806,-4.3967,-4.4771,-4.5875,-4.6803,-4.7686,-4.9062,-5.0353,-5.159,-5.2808,-5.389,-5.5018,-5.6311,-5.7559,-5.876,-6.0001,-6.1317,-6.2634,-6.3935,-6.5136,-6.6627,-6.7862,-6.8903,-6.9807,-7.0591,-7.118,-7.1636,-7.2392,-7.3295,-7.3873,-7.4478,-7.462,-7.4671,-7.3287,-7.2502,-7.1402,-6.9989,-6.8531,-6.6976,-6.5559,-6.4142,-6.2744,-6.1582,-6.0451,-5.9285,-5.8085,-5.6964,-5.5845,-5.5054,-5.4221,-3.3376,-3.3083,-3.3083,-3.2845,-3.2514,-3.2459,-3.2239,-3.1873,-3.1873,-3.1708,-3.1451,-3.1377,-3.1377,-3.1377,-3.1377,-3.1377,-3.1377,-3.1377,-3.1377,-3.1377,-3.1377,-3.1377,-3.1377,-3.1377,-3.1377,-3.1377,-3.1377,-3.1377,-3.1377,-3.1377,-3.1377,-3.1377,-3.1377,-3.1377,-3.1377,-3.1377,-3.1377,-3.1377,-3.1377,-3.1377,-3.1377,-3.1377,-3.1377,-3.1377,-3.1377,-3.1635,-3.2038,-3.2549,-3.3292,-3.4173,-3.5294,-3.6178,-3.6667,-3.7132,-3.7374,-3.7495,-3.7998,-3.838,-3.85,-3.8953,-3.9308,-3.9426,-3.9919,-4.0714,-4.1774,-4.3054,-4.4295,-4.5335,-4.6472,-4.7512,-4.8566,-4.9936,-5.0961,-5.1839,-5.2759,-5.3919,-5.5018,-5.6311,-5.7527,-5.8818,-6.0141,-6.148,-6.2973,-6.4218,-6.5426,-6.6801,-6.7926,-6.8988,-6.9839,-7.0629,-7.1137,-7.1659,-7.2743,-7.3607,-7.4053,-7.4563,-7.472,-7.4485,-7.3268,-7.2138,-7.1031,-6.9743,-6.8335,-6.6976,-6.5559,-6.411,-6.2744,-6.1481,-6.0481,-5.9285,-5.8085,-5.6851,-5.5845,-5.5054,-5.4221,-3.3688,-3.3505,-3.3505,-3.3266,-3.2918,-3.2881,-3.2661,-3.2331,-3.2294,-3.2056,-3.1726,-3.1671,-3.1561,-3.1377,-3.1377,-3.1377,-3.1377,-3.1377,-3.1377,-3.1377,-3.1377,-3.1377,-3.1377,-3.1377,-3.1377,-3.1377,-3.1377,-3.1377,-3.1377,-3.1377,-3.1377,-3.1377,-3.1377,-3.1377,-3.1377,-3.1377,-3.1377,-3.1377,-3.1377,-3.1377,-3.1377,-3.1377,-3.1377,-3.1377,-3.1377,-3.1506,-3.191,-3.2422,-3.3038,-3.3922,-3.5046,-3.5911,-3.6667,-3.7154,-3.7374,-3.7495,-3.7998,-3.838,-3.85,-3.8953,-3.9308,-3.9308,-4.0059,-4.1046,-4.2179,-4.3523,-4.49,-4.5975,-4.7017,-4.8116,-4.9072,-5.0208,-5.11,-5.1787,-5.2865,-5.4023,-5.522,-5.6506,-5.7621,-5.8908,-6.0226,-6.1609,-6.298,-6.4323,-6.5653,-6.6858,-6.8012,-6.9068,-6.9915,-7.064,-7.1158,-7.184,-7.3036,-7.3881,-7.4203,-7.4474,-7.4656,-7.4157,-7.3178,-7.2043,-7.1067,-6.9743,-6.837,-6.6976,-6.5646,-6.4235,-6.2873,-6.1683,-6.0377,-5.9069,-5.7863,-5.6737,-5.5701,-5.479,-5.3954,-3.3817,-3.3817,-3.3817,-3.3615,-3.334,-3.3303,-3.3083,-3.2735,-3.2698,-3.2459,-3.2148,-3.2093,-3.1891,-3.1561,-3.1506,-3.1451,-3.1377,-3.1377,-3.1377,-3.1377,-3.1377,-3.1377,-3.1377,-3.1377,-3.1377,-3.1377,-3.1377,-3.1377,-3.1377,-3.1377,-3.1377,-3.1377,-3.1377,-3.1377,-3.1377,-3.1377,-3.1377,-3.1377,-3.1377,-3.1377,-3.1377,-3.1377,-3.1377,-3.1377,-3.1377,-3.1506,-3.1782,-3.2294,-3.2804,-3.3796,-3.4797,-3.5685,-3.6423,-3.7011,-3.7374,-3.7374,-3.7998,-3.838,-3.85,-3.8953,-3.9308,-3.9331,-4.0339,-4.1259,-4.2372,-4.4042,-4.5506,-4.6565,-4.76,-4.8584,-4.9213,-5.0235,-5.121,-5.2004,-5.2972,-5.4097,-5.5391,-5.6669,-5.7808,-5.8966,-6.045,-6.1883,-6.3205,-6.4497,-6.5743,-6.6972,-6.8111,-6.911,-6.995,-7.0717,-7.1313,-7.2142,-7.3348,-7.448,-7.4921,-7.468,-7.4822,-7.4017,-7.3045,-7.2043,-7.1002,-6.9707,-6.8327,-6.7059,-6.5701,-6.4328,-6.2939,-6.1551,-6.0211,-5.8931,-5.7751,-5.6509,-5.5468,-5.4552,-5.3713,-3.3817,-3.3817,-3.3817,-3.378,-3.3707,-3.3707,-3.3468,-3.3156,-3.312,-3.2881,-3.2533,-3.2496,-3.2276,-3.1983,-3.1891,-3.1726,-3.1451,-3.1377,-3.1377,-3.1377,-3.1377,-3.1377,-3.1377,-3.1377,-3.1377,-3.1377,-3.1377,-3.1377,-3.1377,-3.1377,-3.1377,-3.1377,-3.1377,-3.1377,-3.1377,-3.1377,-3.1377,-3.1377,-3.1377,-3.1377,-3.1377,-3.1377,-3.1377,-3.1377,-3.1377,-3.1506,-3.1635,-3.2147,-3.2785,-3.3544,-3.4423,-3.5418,-3.63,-3.7032,-3.7374,-3.7495,-3.7998,-3.838,-3.85,-3.8953,-3.919,-3.9541,-4.0409,-4.1615,-4.271,-4.4339,-4.5978,-4.7159,-4.8158,-4.9098,-4.9469,-5.0572,-5.154,-5.2408,-5.3471,-5.4611,-5.569,-5.6957,-5.8148,-5.9323,-6.0787,-6.2122,-6.3353,-6.4667,-6.593,-6.7103,-6.8246,-6.9231,-7.0095,-7.0898,-7.1626,-7.2599,-7.3686,-7.4818,-7.5759,-7.5313,-7.4979,-7.4048,-7.3097,-7.2043,-7.0901,-6.9636,-6.8327,-6.7175,-6.5821,-6.4328,-6.2907,-6.1551,-6.0106,-5.8852,-5.7528,-5.6279,-5.5261,-5.4314,-5.3592,-3.3817,-3.3817,-3.3817,-3.3817,-3.3817,-3.3817,-3.3707,-3.356,-3.3523,-3.3303,-3.301,-3.29,-3.2698,-3.2349,-3.2074,-3.1763,-3.1469,-3.1377,-3.1377,-3.1377,-3.1377,-3.1377,-3.1377,-3.1377,-3.1377,-3.1377,-3.1377,-3.1377,-3.1377,-3.1377,-3.1377,-3.1377,-3.1377,-3.1377,-3.1377,-3.1377,-3.1377,-3.1377,-3.1377,-3.1377,-3.1377,-3.1377,-3.1377,-3.1377,-3.1377,-3.1377,-3.1506,-3.2038,-3.2676,-3.3292,-3.4298,-3.5294,-3.6034,-3.6667,-3.7275,-3.7517,-3.7998,-3.838,-3.85,-3.8953,-3.94,-3.9841,-4.0735,-4.197,-4.3216,-4.4808,-4.6425,-4.7717,-4.8521,-4.9328,-4.9783,-5.0795,-5.1649,-5.2516,-5.3681,-5.4815,-5.5986,-5.7244,-5.8514,-5.9762,-6.1036,-6.2324,-6.3608,-6.487,-6.615,-6.7322,-6.8426,-6.9388,-7.0243,-7.1118,-7.1978,-7.3142,-7.4243,-7.5143,-7.5907,-7.5524,-7.5018,-7.4117,-7.3097,-7.2043,-7.0901,-6.9636,-6.8482,-6.7373,-6.5908,-6.4235,-6.3004,-6.1621,-6.018,-5.8634,-5.7416,-5.6164,-5.5026,-5.4074,-5.3349,-3.3817,-3.3817,-3.3817,-3.3817,-3.3817,-3.3817,-3.3817,-3.3817,-3.3798,-3.3633,-3.3376,-3.3321,-3.312,-3.268,-3.2221,-3.1818,-3.1488,-3.1451,-3.1377,-3.1377,-3.1377,-3.1377,-3.1377,-3.1377,-3.1377,-3.1377,-3.1377,-3.1377,-3.1377,-3.1377,-3.1377,-3.1377,-3.1377,-3.1377,-3.1377,-3.1377,-3.1377,-3.1377,-3.1377,-3.1377,-3.1377,-3.1377,-3.1377,-3.1377,-3.1377,-3.1377,-3.1506,-3.191,-3.2422,-3.3058,-3.4047,-3.5046,-3.5809,-3.6423,-3.6911,-3.7396,-3.7998,-3.8261,-3.8522,-3.9135,-3.9794,-4.0214,-4.1345,-4.2468,-4.382,-4.532,-4.7087,-4.8431,-4.901,-4.9442,-5.0123,-5.0906,-5.1868,-5.273,-5.389,-5.4988,-5.628,-5.7527,-5.8818,-6.0022,-6.1283,-6.2523,-6.3826,-6.4972,-6.6247,-6.7413,-6.8548,-6.969,-7.0586,-7.1595,-7.256,-7.3727,-7.4761,-7.5599,-7.591,-7.5601,-7.498,-7.4117,-7.3097,-7.2021,-7.0901,-6.9671,-6.86,-6.7488,-6.5855,-6.4235,-6.2972,-6.1589,-5.997,-5.8495,-5.7162,-5.5933,-5.4908,-5.3833,-5.2983,-3.3817,-3.3817,-3.3817,-3.3817,-3.3817,-3.3817,-3.3817,-3.3817,-3.3817,-3.3798,-3.3688,-3.3707,-3.3486,-3.3028,-3.2368,-3.2038,-3.1854,-3.1598,-3.1451,-3.1469,-3.1396,-3.1377,-3.1377,-3.1377,-3.1377,-3.1377,-3.1377,-3.1377,-3.1377,-3.1377,-3.1377,-3.1377,-3.1377,-3.1377,-3.1377,-3.1377,-3.1377,-3.1377,-3.1377,-3.1377,-3.1377,-3.1377,-3.1377,-3.1377,-3.1377,-3.1377,-3.1506,-3.1782,-3.2294,-3.2912,-3.3544,-3.4673,-3.5665,-3.63,-3.6789,-3.7396,-3.7998,-3.838,-3.8545,-3.9294,-4.0071,-4.0657,-4.177,-4.2875,-4.445,-4.5949,-4.7586,-4.8548,-4.924,-4.9783,-5.046,-5.1458,-5.2437,-5.3366,-5.4304,-5.5421,-5.6603,-5.7808,-5.9088,-6.0365,-6.1609,-6.2905,-6.4183,-6.5237,-6.6307,-6.7467,-6.8633,-6.9844,-7.1112,-7.2225,-7.3518,-7.4798,-7.536,-7.6077,-7.5987,-7.5618,-7.4942,-7.4154,-7.306,-7.2021,-7.0901,-6.9707,-6.8559,-6.7291,-6.5646,-6.4235,-6.3068,-6.1589,-5.9864,-5.8276,-5.7049,-5.5845,-5.4817,-5.3713,-5.2711,-3.3817,-3.3817,-3.3817,-3.3817,-3.3817,-3.3817,-3.3817,-3.3817,-3.3817,-3.3817,-3.3817,-3.3817,-3.3596,-3.3193,-3.2808,-3.257,-3.2294,-3.1909,-3.1744,-3.1634,-3.1524,-3.1396,-3.1377,-3.1377,-3.1377,-3.1377,-3.1377,-3.1377,-3.1377,-3.1377,-3.1377,-3.1377,-3.1377,-3.1377,-3.1377,-3.1377,-3.1377,-3.1377,-3.1377,-3.1377,-3.1377,-3.1377,-3.1377,-3.1377,-3.1377,-3.1377,-3.1506,-3.1782,-3.2038,-3.2657,-3.3418,-3.4423,-3.5418,-3.6156,-3.6667,-3.7374,-3.7998,-3.838,-3.8567,-3.9454,-4.0278,-4.1178,-4.2272,-4.3625,-4.525,-4.6671,-4.7938,-4.8895,-4.9469,-5.0123,-5.0906,-5.1868,-5.2837,-5.389,-5.4815,-5.5918,-5.6988,-5.8272,-5.9443,-6.0703,-6.1929,-6.3131,-6.4463,-6.5668,-6.6727,-6.7777,-6.9052,-7.0378,-7.1893,-7.3341,-7.469,-7.6124,-7.6357,-7.6534,-7.6118,-7.5686,-7.4942,-7.4117,-7.3097,-7.1984,-7.0966,-6.9778,-6.8635,-6.7291,-6.5767,-6.4479,-6.3292,-6.1589,-5.9895,-5.8386,-5.6851,-5.5845,-5.4699,-5.3592,-5.2588,-3.3817,-3.3817,-3.3817,-3.3817,-3.3817,-3.3817,-3.3817,-3.3817,-3.3817,-3.3817,-3.3817,-3.3817,-3.3651,-3.3395,-3.3248,-3.2973,-3.2735,-3.2331,-3.2111,-3.1928,-3.1726,-3.1506,-3.1414,-3.1377,-3.1377,-3.1377,-3.1377,-3.1377,-3.1377,-3.1377,-3.1377,-3.1377,-3.1377,-3.1377,-3.1377,-3.1377,-3.1377,-3.1377,-3.1377,-3.1377,-3.1377,-3.1377,-3.1377,-3.1377,-3.1377,-3.1377,-3.1506,-3.1653,-3.191,-3.2549,-3.3292,-3.4173,-3.517,-3.5911,-3.6667,-3.7318,-3.8011,-3.8627,-3.9002,-3.9681,-4.0577,-4.1696,-4.3044,-4.4792,-4.6245,-4.7442,-4.8172,-4.901,-4.9783,-5.046,-5.1238,-5.2085,-5.3155,-5.42,-5.522,-5.6311,-5.7464,-5.8637,-5.9707,-6.087,-6.2088,-6.3427,-6.4773,-6.6066,-6.7201,-6.8157,-6.9444,-7.0951,-7.2632,-7.4409,-7.547,-7.6753,-7.6712,-7.6632,-7.6219,-7.5648,-7.4942,-7.4117,-7.306,-7.1984,-7.0966,-6.9778,-6.8559,-6.7175,-6.5855,-6.4479,-6.3292,-6.1589,-5.9895,-5.8386,-5.6964,-5.5845,-5.4671,-5.3443,-5.2342,-3.3817,-3.3817,-3.3817,-3.3817,-3.3817,-3.3817,-3.3817,-3.3817,-3.3817,-3.3817,-3.3817,-3.3817,-3.3798,-3.3688,-3.3431,-3.3266,-3.3156,-3.2753,-3.2441,-3.2166,-3.1946,-3.1726,-3.1543,-3.1433,-3.1377,-3.1377,-3.1377,-3.1377,-3.1377,-3.1377,-3.1377,-3.1377,-3.1377,-3.1377,-3.1377,-3.1377,-3.1377,-3.1377,-3.1377,-3.1377,-3.1377,-3.1377,-3.1377,-3.1377,-3.1377,-3.1377,-3.1377,-3.1506,-3.1782,-3.2422,-3.3165,-3.3922,-3.4922,-3.5911,-3.6545,-3.7205,-3.8277,-3.8963,-3.9331,-4.0159,-4.123,-4.2725,-4.4135,-4.5668,-4.673,-4.7703,-4.8405,-4.9098,-5.001,-5.0683,-5.1458,-5.2301,-5.3471,-5.4377,-5.5521,-5.6603,-5.7746,-5.8908,-6.0054,-6.1036,-6.2425,-6.3958,-6.5541,-6.6935,-6.7752,-6.8652,-7.0592,-7.2129,-7.387,-7.5488,-7.613,-7.687,-7.6819,-7.6612,-7.6227,-7.561,-7.4942,-7.4117,-7.3149,-7.2102,-7.1067,-6.9814,-6.8635,-6.7339,-6.6029,-6.4662,-6.3292,-6.1721,-6.0106,-5.8495,-5.7078,-5.5817,-5.4552,-5.3349,-5.2218,-3.3817,-3.3817,-3.3817,-3.3817,-3.3817,-3.3817,-3.3817,-3.3817,-3.3817,-3.3817,-3.3817,-3.3817,-3.3817,-3.3762,-3.3707,-3.3596,-3.3523,-3.3156,-3.29,-3.2606,-3.2294,-3.1964,-3.1726,-3.1524,-3.1377,-3.1377,-3.1377,-3.1377,-3.1377,-3.1377,-3.1377,-3.1377,-3.1377,-3.1377,-3.1377,-3.1377,-3.1377,-3.1377,-3.1377,-3.1377,-3.1377,-3.1377,-3.1377,-3.1377,-3.1377,-3.1377,-3.1377,-3.1377,-3.1763,-3.2403,-3.3058,-3.3922,-3.4797,-3.5809,-3.6673,-3.7277,-3.852,-3.9243,-3.9983,-4.0796,-4.1986,-4.3521,-4.4939,-4.618,-4.6968,-4.7938,-4.8637,-4.9442,-5.0348,-5.1128,-5.1896,-5.2837,-5.3993,-5.4815,-5.5789,-5.6988,-5.8213,-5.9427,-6.0877,-6.2163,-6.3494,-6.4905,-6.6486,-6.7986,-6.8596,-6.9236,-7.1331,-7.3327,-7.4976,-7.6148,-7.666,-7.6909,-7.6858,-7.663,-7.6227,-7.5618,-7.5018,-7.4124,-7.3238,-7.216,-7.1131,-7.0025,-6.8787,-6.7501,-6.6167,-6.4844,-6.3356,-6.1922,-6.0285,-5.8605,-5.7049,-5.5556,-5.4259,-5.3078,-5.2218,-3.3817,-3.3817,-3.3817,-3.3817,-3.3817,-3.3817,-3.3817,-3.3817,-3.3817,-3.3817,-3.3817,-3.3817,-3.3817,-3.3817,-3.3817,-3.3798,-3.3725,-3.3523,-3.334,-3.3046,-3.268,-3.2258,-3.1983,-3.1744,-3.1543,-3.1433,-3.1377,-3.1377,-3.1377,-3.1377,-3.1377,-3.1377,-3.1377,-3.1377,-3.1377,-3.1377,-3.1377,-3.1377,-3.1377,-3.1377,-3.1377,-3.1377,-3.1377,-3.1377,-3.1377,-3.1377,-3.1377,-3.1377,-3.1763,-3.2422,-3.3058,-3.3796,-3.4797,-3.5727,-3.6678,-3.7595,-3.8583,-3.9725,-4.058,-4.1639,-4.2677,-4.4079,-4.5257,-4.625,-4.7205,-4.8146,-4.8983,-4.9556,-5.0572,-5.1568,-5.2221,-5.3261,-5.4406,-5.532,-5.6409,-5.7527,-5.8928,-6.0258,-6.1914,-6.3323,-6.4641,-6.6036,-6.7522,-6.9092,-7.031,-7.1093,-7.2762,-7.4369,-7.5414,-7.6361,-7.6715,-7.687,-7.6858,-7.6605,-7.6266,-7.5656,-7.5018,-7.4243,-7.329,-7.2312,-7.1259,-7.0095,-6.8898,-6.7616,-6.6287,-6.4844,-6.3451,-6.2022,-6.039,-5.8743,-5.7049,-5.5233,-5.3899,-5.2738,-5.197,-3.3817,-3.3817,-3.3817,-3.3817,-3.3817,-3.3817,-3.3817,-3.3817,-3.3817,-3.3817,-3.3817,-3.3817,-3.3817,-3.3817,-3.3817,-3.3817,-3.3817,-3.3762,-3.3596,-3.3285,-3.3065,-3.268,-3.2258,-3.1946,-3.1689,-3.1433,-3.1377,-3.1377,-3.1377,-3.1377,-3.1377,-3.1377,-3.1377,-3.1377,-3.1377,-3.1377,-3.1377,-3.1377,-3.1377,-3.1377,-3.1377,-3.1377,-3.1377,-3.1377,-3.1377,-3.1377,-3.1377,-3.1377,-3.1763,-3.2422,-3.3058,-3.3796,-3.4548,-3.5871,-3.6742,-3.7374,-3.8971,-4.0061,-4.068,-4.2269,-4.3482,-4.4275,-4.5403,-4.6491,-4.7205,-4.8289,-4.924,-4.967,-5.0683,-5.1649,-5.2623,-5.3576,-5.4713,-5.5871,-5.7012,-5.8404,-5.9826,-6.1186,-6.2782,-6.4517,-6.5786,-6.7095,-6.8658,-7.0172,-7.1876,-7.3144,-7.4524,-7.5518,-7.6094,-7.6493,-7.6827,-7.6912,-7.6887,-7.6588,-7.6219,-7.5695,-7.5055,-7.4287,-7.3391,-7.2406,-7.1386,-7.0267,-6.8978,-6.7696,-6.6372,-6.5147,-6.3641,-6.2121,-6.0241,-5.8372,-5.6537,-5.4762,-5.3443,-5.2368,-5.1924,-3.3817,-3.3817,-3.3817,-3.3817,-3.3817,-3.3817,-3.3817,-3.3817,-3.3817,-3.3817,-3.3817,-3.3817,-3.3817,-3.3817,-3.3817,-3.3817,-3.3817,-3.3817,-3.367,-3.3596,-3.3376,-3.2918,-3.2478,-3.2111,-3.1799,-3.1488,-3.1377,-3.1377,-3.1377,-3.1377,-3.1377,-3.1377,-3.1377,-3.1377,-3.1377,-3.1377,-3.1377,-3.1377,-3.1377,-3.1377,-3.1377,-3.1377,-3.1377,-3.1377,-3.1377,-3.1377,-3.1377,-3.1377,-3.1763,-3.2422,-3.3038,-3.3796,-3.4733,-3.5976,-3.7061,-3.801,-3.9538,-4.0783,-4.1547,-4.2776,-4.3529,-4.4422,-4.5525,-4.6491,-4.7205,-4.8405,-4.9213,-5.001,-5.0906,-5.1868,-5.2837,-5.3919,-5.5036,-5.6486,-5.7855,-5.9348,-6.0832,-6.2212,-6.3685,-6.5562,-6.7064,-6.878,-7.0408,-7.1304,-7.2757,-7.3813,-7.494,-7.561,-7.6227,-7.6552,-7.6856,-7.6913,-7.6887,-7.6609,-7.621,-7.5664,-7.5055,-7.4331,-7.3479,-7.25,-7.1448,-7.0404,-6.92,-6.7856,-6.6627,-6.5448,-6.358,-6.1769,-5.9908,-5.7878,-5.6418,-5.4948,-5.3619,-5.2731,-5.1931,-3.3817,-3.3817,-3.3817,-3.3817,-3.3817,-3.3817,-3.3817,-3.3817,-3.3817,-3.3817,-3.3817,-3.3817,-3.3817,-3.3817,-3.3817,-3.3817,-3.3817,-3.3817,-3.3817,-3.378,-3.3578,-3.3101,-3.2661,-3.2313,-3.1909,-3.1543,-3.1377,-3.1377,-3.1377,-3.1377,-3.1377,-3.1377,-3.1377,-3.1377,-3.1377,-3.1377,-3.1377,-3.1377,-3.1377,-3.1377,-3.1377,-3.1377,-3.1377,-3.1377,-3.1377,-3.1377,-3.1377,-3.1506,-3.1763,-3.2403,-3.3038,-3.3922,-3.5044,-3.6227,-3.742,-3.8417,-3.9831,-4.1167,-4.2097,-4.2925,-4.3553,-4.4299,-4.5525,-4.661,-4.7324,-4.8405,-4.9328,-5.0235,-5.121,-5.2221,-5.3213,-5.4259,-5.576,-5.7212,-5.8802,-6.0325,-6.1938,-6.3297,-6.4757,-6.6553,-6.8134,-7.0043,-7.1732,-7.2721,-7.3672,-7.4426,-7.5203,-7.5774,-7.6316,-7.6611,-7.6861,-7.6907,-7.6838,-7.6591,-7.621,-7.5664,-7.5055,-7.4369,-7.3492,-7.2593,-7.1573,-7.0539,-6.9238,-6.798,-6.6745,-6.5312,-6.3258,-6.136,-5.9937,-5.8548,-5.716,-5.5622,-5.397,-5.3103,-5.2376,-3.3817,-3.3817,-3.3817,-3.3817,-3.3817,-3.3817,-3.3817,-3.3817,-3.3817,-3.3817,-3.3817,-3.3817,-3.3817,-3.3817,-3.3817,-3.3817,-3.3817,-3.3817,-3.3817,-3.3817,-3.3725,-3.323,-3.2808,-3.2514,-3.2038,-3.1598,-3.1377,-3.1377,-3.1377,-3.1377,-3.1377,-3.1377,-3.1377,-3.1377,-3.1377,-3.1377,-3.1377,-3.1377,-3.1377,-3.1377,-3.1377,-3.1377,-3.1377,-3.1377,-3.1377,-3.1377,-3.1377,-3.1506,-3.1763,-3.2403,-3.3038,-3.3922,-3.5064,-3.6373,-3.7316,-3.8716,-4.0484,-4.1392,-4.2316,-4.3075,-4.3678,-4.4422,-4.5646,-4.661,-4.756,-4.8521,-4.9556,-5.0348,-5.1348,-5.2386,-5.3511,-5.4968,-5.6545,-5.8047,-5.9627,-6.1276,-6.3023,-6.442,-6.5883,-6.7409,-6.8842,-7.0436,-7.2021,-7.3156,-7.3916,-7.4708,-7.534,-7.5887,-7.6361,-7.6638,-7.6834,-7.6905,-7.6838,-7.6612,-7.6185,-7.5672,-7.5092,-7.4412,-7.3479,-7.2593,-7.1635,-7.0817,-6.9628,-6.8438,-6.6948,-6.5239,-6.3404,-6.1844,-6.0552,-5.9132,-5.7752,-5.6381,-5.4743,-5.3794,-5.311,-3.3817,-3.3817,-3.3817,-3.3817,-3.3817,-3.3817,-3.3817,-3.3817,-3.3817,-3.3817,-3.3817,-3.3817,-3.3817,-3.3817,-3.3817,-3.3817,-3.3817,-3.3817,-3.3817,-3.3817,-3.3798,-3.3266,-3.2863,-3.2533,-3.2074,-3.1634,-3.1377,-3.1377,-3.1377,-3.1377,-3.1377,-3.1377,-3.1377,-3.1377,-3.1377,-3.1377,-3.1377,-3.1377,-3.1377,-3.1377,-3.1377,-3.1377,-3.1377,-3.1377,-3.1377,-3.1377,-3.1377,-3.1377,-3.1763,-3.2422,-3.3038,-3.3922,-3.5211,-3.6771,-3.8272,-4.0268,-4.1181,-4.1678,-4.257,-4.3326,-4.3927,-4.4669,-4.5889,-4.6874,-4.7821,-4.8753,-4.967,-5.0572,-5.168,-5.2772,-5.4052,-5.5619,-5.7293,-5.8924,-6.0449,-6.2105,-6.3792,-6.518,-6.6607,-6.8007,-6.9455,-7.0806,-7.2386,-7.3224,-7.4018,-7.4789,-7.5469,-7.5993,-7.6419,-7.6676,-7.6848,-7.6899,-7.6788,-7.6594,-7.6135,-7.5609,-7.5055,-7.4412,-7.3641,-7.287,-7.2158,-7.1278,-7.0124,-6.8682,-6.7033,-6.5411,-6.3689,-6.2364,-6.1124,-5.9771,-5.8341,-5.6926,-5.5671,-5.4613,-5.3661,-3.3817,-3.3817,-3.3817,-3.3817,-3.3817,-3.3817,-3.3817,-3.3817,-3.3817,-3.3817,-3.3817,-3.3817,-3.3817,-3.3817,-3.3817,-3.3817,-3.3817,-3.3817,-3.3817,-3.3817,-3.3817,-3.3266,-3.2845,-3.2533,-3.2093,-3.1653,-3.1377,-3.1377,-3.1377,-3.1377,-3.1377,-3.1377,-3.1377,-3.1377,-3.1377,-3.1377,-3.1377,-3.1377,-3.1377,-3.1377,-3.1377,-3.1377,-3.1377,-3.1377,-3.1377,-3.1377,-3.1377,-3.1377,-3.1763,-3.2422,-3.3038,-3.4047,-3.5562,-3.7295,-3.9126,-4.0896,-4.1399,-4.1934,-4.2696,-4.3451,-4.4175,-4.5037,-4.613,-4.7112,-4.8055,-4.8983,-4.987,-5.0795,-5.204,-5.3303,-5.4672,-5.6228,-5.8001,-5.9765,-6.1337,-6.2936,-6.4334,-6.5721,-6.7189,-6.8642,-7.0024,-7.1323,-7.2463,-7.329,-7.4109,-7.4943,-7.5564,-7.6094,-7.6475,-7.6749,-7.6857,-7.6892,-7.6777,-7.6555,-7.616,-7.5846,-7.5437,-7.4859,-7.415,-7.3442,-7.2717,-7.1785,-7.0634,-6.8913,-6.6977,-6.544,-6.4089,-6.2957,-6.1634,-6.0204,-5.8871,-5.7522,-5.6151,-5.4916,-5.4103,-3.3817,-3.3817,-3.3817,-3.3817,-3.3817,-3.3817,-3.3817,-3.3817,-3.3817,-3.3817,-3.3817,-3.3817,-3.3817,-3.3817,-3.3817,-3.3817,-3.3817,-3.3817,-3.3817,-3.3817,-3.3817,-3.3376,-3.2808,-3.2551,-3.2093,-3.1634,-3.1377,-3.1377,-3.1377,-3.1377,-3.1377,-3.1377,-3.1377,-3.1377,-3.1377,-3.1377,-3.1377,-3.1377,-3.1377,-3.1377,-3.1377,-3.1377,-3.1377,-3.1377,-3.1377,-3.1377,-3.1377,-3.1506,-3.1763,-3.2422,-3.3184,-3.4173,-3.6144,-3.7924,-3.9892,-4.0934,-4.1505,-4.2189,-4.2822,-4.3576,-4.4422,-4.5281,-4.625,-4.7442,-4.8379,-4.9213,-5.0123,-5.1377,-5.265,-5.4144,-5.5576,-5.7139,-5.8784,-6.0369,-6.1975,-6.3288,-6.4622,-6.6167,-6.7822,-6.9161,-7.0336,-7.1671,-7.2613,-7.3466,-7.4243,-7.5055,-7.5925,-7.6475,-7.6916,-7.716,-7.7254,-7.7312,-7.7377,-7.7273,-7.6829,-7.6498,-7.6008,-7.5418,-7.4746,-7.4162,-7.3617,-7.2472,-7.1124,-6.9282,-6.7585,-6.6039,-6.4658,-6.3376,-6.1964,-6.0547,-5.9172,-5.8032,-5.6753,-5.5208,-5.4411,-3.3817,-3.3817,-3.3817,-3.3817,-3.3817,-3.3817,-3.3817,-3.3817,-3.3817,-3.3817,-3.3817,-3.3817,-3.3817,-3.3817,-3.3817,-3.3817,-3.3817,-3.3817,-3.3817,-3.3817,-3.3817,-3.3358,-3.2735,-3.257,-3.2111,-3.1616,-3.1377,-3.1377,-3.1377,-3.1377,-3.1377,-3.1377,-3.1377,-3.1377,-3.1377,-3.1377,-3.1377,-3.1377,-3.1377,-3.1377,-3.1377,-3.1377,-3.1377,-3.1377,-3.1377,-3.1377,-3.1506,-3.1653,-3.191,-3.2422,-3.3311,-3.4891,-3.7213,-3.8908,-4.0262,-4.1158,-4.1678,-4.2316,-4.3051,-4.3802,-4.4669,-4.5646,-4.6755,-4.7795,-4.8726,-4.9442,-5.0512,-5.1878,-5.3295,-5.4851,-5.6378,-5.8053,-5.9582,-6.1014,-6.2487,-6.3703,-6.4877,-6.6643,-6.8405,-6.9564,-7.0673,-7.1757,-7.2724,-7.3628,-7.4417,-7.5396,-7.6592,-7.7373,-7.7976,-7.8321,-7.8392,-7.844,-7.8494,-7.834,-7.7768,-7.7226,-7.6693,-7.621,-7.5604,-7.5031,-7.442,-7.2905,-7.1283,-6.9906,-6.8307,-6.6568,-6.4986,-6.3771,-6.232,-6.0716,-5.9245,-5.7861,-5.6471,-5.4942,-5.4459,-3.3817,-3.3817,-3.3817,-3.3817,-3.3817,-3.3817,-3.3817,-3.3817,-3.3817,-3.3817,-3.3817,-3.3817,-3.3817,-3.3817,-3.3817,-3.3817,-3.3817,-3.3817,-3.3817,-3.3817,-3.3688,-3.3266,-3.29,-3.257,-3.2038,-3.1561,-3.1414,-3.1377,-3.1377,-3.1377,-3.1377,-3.1377,-3.1377,-3.1377,-3.1377,-3.1377,-3.1377,-3.1377,-3.1377,-3.1377,-3.1377,-3.1377,-3.1377,-3.1377,-3.1377,-3.1377,-3.1506,-3.1782,-3.2166,-3.3008,-3.4226,-3.5787,-3.7804,-3.9336,-4.0501,-4.1264,-4.1934,-4.257,-4.3302,-4.4051,-4.4915,-4.601,-4.6993,-4.8029,-4.9293,-5.0146,-5.1376,-5.274,-5.4047,-5.5575,-5.7084,-5.8716,-6.0095,-6.1527,-6.2778,-6.4049,-6.5559,-6.7373,-6.8635,-6.9599,-7.074,-7.1878,-7.2797,-7.3628,-7.4573,-7.5921,-7.7102,-7.8037,-7.8653,-7.947,-7.9528,-7.9494,-7.9494,-7.9078,-7.8335,-7.784,-7.7414,-7.6957,-7.6551,-7.5542,-7.4596,-7.3012,-7.1474,-6.9988,-6.8471,-6.6783,-6.5359,-6.3984,-6.2262,-6.0595,-5.9121,-5.7606,-5.6209,-5.4805,-5.4106,-3.367,-3.3725,-3.3798,-3.3817,-3.3817,-3.3817,-3.3817,-3.3817,-3.3817,-3.3817,-3.3817,-3.3817,-3.3817,-3.3817,-3.3817,-3.3817,-3.3817,-3.3817,-3.3817,-3.378,-3.3725,-3.3266,-3.2863,-3.2496,-3.1964,-3.1598,-3.1396,-3.1377,-3.1377,-3.1377,-3.1377,-3.1377,-3.1377,-3.1377,-3.1377,-3.1377,-3.1377,-3.1377,-3.1377,-3.1377,-3.1377,-3.1377,-3.1377,-3.1377,-3.1377,-3.1377,-3.1506,-3.1782,-3.2294,-3.3633,-3.5118,-3.6729,-3.8102,-3.9638,-4.059,-4.1482,-4.2189,-4.2822,-4.3451,-4.4299,-4.5281,-4.625,-4.7205,-4.8341,-4.9717,-5.0898,-5.2156,-5.3664,-5.4973,-5.6309,-5.7958,-5.9229,-6.0681,-6.2085,-6.3228,-6.4453,-6.6167,-6.789,-6.8787,-6.9743,-7.0836,-7.1998,-7.2906,-7.3725,-7.4998,-7.6373,-7.7516,-7.837,-7.9291,-8.0181,-8.074,-8.0543,-8.039,-7.9796,-7.9146,-7.8611,-7.8283,-7.7861,-7.7356,-7.6089,-7.4654,-7.3133,-7.1507,-7.0029,-6.8405,-6.6846,-6.5282,-6.3902,-6.2262,-6.0502,-5.8996,-5.7606,-5.6078,-5.4805,-5.3835,-3.3028,-3.3358,-3.367,-3.3817,-3.3817,-3.3817,-3.3817,-3.3817,-3.3817,-3.3817,-3.3817,-3.3817,-3.3817,-3.3817,-3.3817,-3.3817,-3.3817,-3.3817,-3.3817,-3.3798,-3.3541,-3.3038,-3.2637,-3.2294,-3.1836,-3.1561,-3.1377,-3.1377,-3.1377,-3.1377,-3.1377,-3.1377,-3.1377,-3.1377,-3.1377,-3.1377,-3.1377,-3.1377,-3.1377,-3.1377,-3.1377,-3.1377,-3.1377,-3.1377,-3.1377,-3.1377,-3.1506,-3.2019,-3.2422,-3.3652,-3.5489,-3.7192,-3.8528,-3.9919,-4.0941,-4.1482,-4.2316,-4.3075,-4.3678,-4.4669,-4.5646,-4.6636,-4.7755,-4.8964,-5.0303,-5.1567,-5.3107,-5.4934,-5.6252,-5.7311,-5.8787,-5.9818,-6.1103,-6.2548,-6.38,-6.509,-6.661,-6.789,-6.8973,-6.992,-7.1002,-7.2094,-7.3145,-7.4233,-7.5649,-7.7058,-7.8584,-7.9438,-8.0186,-8.1039,-8.1796,-8.1513,-8.1182,-8.1154,-8.0729,-7.9804,-7.9309,-7.8879,-7.7974,-7.6364,-7.4759,-7.3252,-7.1693,-7.007,-6.8437,-6.6846,-6.539,-6.3902,-6.2262,-6.0624,-5.9121,-5.7606,-5.6078,-5.4805,-5.3835]}]]